[[{"header":{"parameterUnit":"m.s-1","parameterCategory":1,"la1":31.0,"la2":29.5877,"lo1":-88.7671,"lo2":-86.6584,"dy":0.0162,"dx":0.0185,"nx":115,"ny":88,"refTime":"2023-04-10T12:00:00:Z","depth":0,"parameterNumber":2,"parameterNumberName":"U-component_of_WINDS"},"data":[0.0,0.0,0.0,0.0,0.0,0.0,0.0,0.0,0.0,0.0,0.0,0.0,0.0,0.0,0.0,0.0,0.0,0.0,0.0,0.0,0.0,0.0,0.0,0.0,0.0,0.0,0.0,0.0,0.0,0.0,0.0,0.0,0.0,0.0,0.0,0.0,0.0,0.0,0.0,0.0,0.0,0.0,0.0,0.0,0.0,0.0,0.0,0.0,0.0,0.0,0.0,0.0,0.0,0.0,0.0,0.0,0.0,0.0,0.0,0.0,0.0,0.0,0.0,0.0,0.0,0.0,0.0,0.0,0.0,0.0,0.0,0.0,0.0,0.0,0.0,0.0,0.0,0.0,0.0,0.0,0.0,0.0,0.0,0.0,0.0,0.0,0.0,0.0,0.0,0.0,0.0,0.0,0.0,0.0,0.0,0.0,0.0,0.0,0.0,0.0,0.0,0.0,0.0,0.0,0.0,0.0,0.0,0.0,0.0,0.0,0.0,0.0,0.0,0.0,0.0,0.0,0.0,0.0,0.0,0.0,0.0,0.0,0.0,0.0,0.0,0.0,0.0,0.0,0.0,0.0,0.0,0.0,0.0,0.0,0.0,0.0,0.0,0.0,0.0,0.0,0.0,0.0,0.0,0.0,0.0,0.0,0.0,0.0,0.0,0.0,0.0,0.0,0.0,0.0,0.0,0.0,0.0,0.0,0.0,0.0,0.0,0.0,0.0,0.0,0.0,0.0,0.0,0.0,0.0,0.0,0.0,0.0,0.0,0.0,0.0,0.0,0.0,0.0,0.0,0.0,0.0,0.0,0.0,0.0,0.0,0.0,0.0,0.0,0.0,0.0,0.0,0.0,0.0,0.0,0.0,0.0,0.0,0.0,0.0,0.0,0.0,0.0,0.0,0.0,0.0,0.0,0.0,0.0,0.0,0.0,0.0,0.0,0.0,0.0,0.0,0.0,0.0,0.0,0.0,0.0,0.0,0.0,0.0,0.0,0.0,0.0,0.0,0.0,0.0,0.0,0.0,0.0,0.0,0.0,0.0,0.0,0.0,0.0,0.0,0.0,0.0,0.0,0.0,0.0,0.0,0.0,0.0,0.0,0.0,0.0,0.0,0.0,0.0,0.0,0.0,0.0,0.0,0.0,0.0,0.0,0.0,0.0,0.0,0.0,0.0,0.0,0.0,0.0,0.0,0.0,0.0,0.0,0.0,0.0,0.0,0.0,0.0,0.0,0.0,0.0,0.0,0.0,0.0,0.0,0.0,0.0,0.0,0.0,0.0,0.0,0.0,0.0,0.0,0.0,0.0,0.0,0.0,0.0,0.0,0.0,0.0,0.0,0.0,0.0,0.0,0.0,0.0,0.0,0.0,0.0,0.0,0.0,0.0,0.0,0.0,0.0,0.0,0.0,0.0,0.0,0.0,0.0,0.0,0.0,0.0,0.0,0.0,0.0,0.0,0.0,0.0,0.0,0.0,0.0,0.0,0.0,0.0,0.0,0.0,0.0,0.0,0.0,0.0,0.0,0.0,0.0,0.0,0.0,0.0,0.0,0.0,0.0,0.0,0.0,0.0,0.0,0.0,0.0,0.0,0.0,0.0,0.0,0.0,0.0,0.0,0.0,0.0,0.0,0.0,0.0,0.0,0.0,0.0,0.0,0.0,0.0,0.0,0.0,0.0,0.0,0.0,0.0,0.0,0.0,0.0,0.0,0.0,0.0,0.0,0.0,0.0,0.0,0.0,0.0,0.0,0.0,0.0,0.0,0.0,0.0,0.0,0.0,0.0,0.0,0.0,0.0,0.0,0.0,0.0,0.0,0.0,0.0,0.0,0.0,0.0,0.0,0.0,0.0,0.0,0.0,0.0,0.0,0.0,0.0,0.0,0.0,0.0,0.0,0.0,0.0,0.0,0.0,0.0,0.0,0.0,0.0,0.0,0.0,0.0,0.0,0.0,0.0,0.0,0.0,0.0,0.0,0.0,0.0,0.0,0.0,0.0,0.0,0.0,0.0,0.0,0.0,0.0,0.0,0.0,0.0,0.0,0.0,0.0,0.0,0.0,0.0,0.0,0.0,0.0,0.0,0.0,0.0,0.0,0.0,0.0,0.0,0.0,0.0,0.0,0.0,0.0,0.0,0.0,0.0,0.0,0.0,0.0,0.0,0.0,0.0,0.0,0.0,0.0,0.0,0.0,0.0,0.0,0.0,0.0,0.0,0.0,0.0,0.0,0.0,0.0,0.0,0.0,0.0,0.0,0.0,0.0,0.0,0.0,0.0,0.0,0.0,0.0,0.0,0.0,0.0,0.0,0.0,0.0,0.0,0.0,0.0,0.0,0.0,0.0,0.0,0.0,0.0,0.0,0.0,0.0,0.0,0.0,0.0,0.0,0.0,0.0,0.0,0.0,0.0,0.0,0.0,0.0,0.0,0.0,0.0,0.0,0.0,0.0,0.0,0.0,0.0,0.0,0.0,0.0,0.0,0.0,0.0,0.0,0.0,0.0,0.0,0.0,0.0,0.0,0.0,0.0,0.0,0.0,0.0,0.0,0.0,0.0,0.0,0.0,0.0,0.0,0.0,0.0,0.0,0.0,0.0,0.0,0.0,0.0,0.0,0.0,0.0,0.0,0.0,0.0,0.0,0.0,0.0,0.0,0.0,0.0,0.0,0.0,0.0,0.0,0.0,0.0,0.0,0.0,0.0,0.0,0.0,0.0,0.0,0.0,0.0,0.0,0.0,0.0,0.0,0.0,0.0,0.0,0.0,0.0,0.0,0.0,0.0,0.0,0.0,0.0,0.0,0.0,0.0,0.0,0.0,0.0,0.0,0.0,0.0,0.0,0.0,0.0,0.0,0.0,0.0,0.0,0.0,0.0,0.0,0.0,0.0,0.0,0.0,0.0,0.0,0.0,0.0,0.0,0.0,0.0,0.0,0.0,0.0,0.0,0.0,0.0,0.0,0.0,0.0,0.0,0.0,0.0,0.0,0.0,0.0,0.0,0.0,0.0,0.0,0.0,0.0,0.0,0.0,0.0,0.0,0.0,0.0,0.0,0.0,0.0,0.0,0.0,0.0,0.0,0.0,0.0,0.0,0.0,0.0,0.0,0.0,0.0,0.0,0.0,0.0,0.0,0.0,0.0,0.0,0.0,0.0,0.0,0.0,0.0,0.0,0.0,0.0,0.0,0.0,0.0,0.0,0.0,0.0,0.0,0.0,0.0,0.0,0.0,0.0,0.0,0.0,0.0,0.0,0.0,0.0,0.0,0.0,0.0,0.0,0.0,0.0,0.0,0.0,0.0,0.0,0.0,0.0,0.0,0.0,0.0,0.0,0.0,0.0,0.0,0.0,0.0,0.0,0.0,0.0,0.0,0.0,0.0,0.0,0.0,0.0,0.0,0.0,0.0,0.0,0.0,0.0,0.0,0.0,0.0,0.0,0.0,0.0,0.0,0.0,0.0,0.0,0.0,0.0,0.0,0.0,0.0,0.0,0.0,0.0,0.0,0.0,0.0,0.0,0.0,0.0,0.0,0.0,0.0,0.0,0.0,0.0,0.0,0.0,0.0,0.0,0.0,0.0,0.0,0.0,0.0,0.0,0.0,0.0,0.0,0.0,0.0,0.0,0.0,0.0,0.0,0.0,0.0,0.0,0.0,0.0,0.0,0.0,0.0,0.0,0.0,0.0,0.0,0.0,0.0,0.0,0.0,0.0,0.0,0.0,0.0,0.0,0.0,0.0,0.0,0.0,0.0,0.0,0.0,0.0,0.0,0.0,0.0,0.0,0.0,0.0,0.0,0.0,0.0,0.0,0.0,0.0,0.0,0.0,0.0,0.0,0.0,0.0,0.0,0.0,0.0,0.0,0.0,0.0,0.0,0.0,0.0,0.0,0.0,0.0,0.0,0.0,0.0,0.0,0.0,0.0,0.0,0.0,0.0,0.0,0.0,0.0,0.0,0.0,0.0,0.0,0.0,0.0,0.0,0.0,0.0,0.0,0.0,0.0,0.0,0.0,0.0,0.0,0.0,0.0,0.0,0.0,0.0,0.0,0.0,0.0,0.0,0.0,0.0,0.0,0.0,0.0,0.0,0.0,0.0,0.0,0.0,0.0,0.0,0.0,0.0,0.0,0.0,0.0,0.0,0.0,0.0,0.0,0.0,0.0,0.0,0.0,0.0,0.0,0.0,0.0,0.0,0.0,0.0,0.0,0.0,0.0,0.0,0.0,0.0,0.0,0.0,0.0,0.0,0.0,0.0,0.0,0.0,0.0,0.0,0.0,0.4272,0.0,0.0,0.0,0.0,0.0,0.0,0.0,0.0,0.0,0.0,0.0,0.0,0.0,0.0,0.0,0.0,0.0,0.0,0.0,0.0,0.0,0.0,0.0,0.0,0.0,0.0,0.0,0.0,0.0,0.0,0.0,0.0,0.0,0.0,0.0,0.0,0.0,0.0,0.0,0.0,0.0,0.0,0.0,0.0,0.0,0.0,0.0,0.0,0.0,0.0,0.0,0.0,0.0,0.0,0.0,0.0,0.0,0.0,0.0,0.0,0.0,0.0,0.0,0.0,0.0,0.0,0.0,0.0,0.0,0.0,0.0,0.0,0.0,0.0,0.0,0.0,0.0,0.0,0.0,0.0,0.0,0.0,0.0,0.0,0.0,0.0,0.0,0.0,0.0,0.0,0.0,0.0,0.0,0.0,0.0,0.0,0.0,0.0,0.0,0.0,0.0,0.0,0.0,0.0,0.0,0.0,0.0,0.0,0.0,0.0,0.5227,0.5017,0.481,0.4591,0.4346,0.0,0.0,0.0,0.0,0.0,0.0,0.0,0.0,0.0,0.0,0.0,0.0,0.0,0.0,0.0,0.0,0.0,0.0,0.0,0.0,0.0,0.0,0.0,0.0,0.0,0.0,0.0,0.0,0.0,0.0,0.0,0.0,0.0,0.0,0.0,0.0,0.0,0.0,0.0,0.0,0.0,0.0,0.0,0.0,0.0,0.0,0.0,0.0,0.0,0.0,0.0,0.0,0.0,0.0,0.0,0.0,0.0,0.0,0.0,0.0,0.0,0.0,0.0,0.0,0.0,0.0,0.0,0.0,0.0,0.0,0.0,0.0,0.0,0.0,0.0,0.0,0.0,0.0,0.0,0.0,0.0,0.0,0.0,0.0,0.0,0.0,0.0,0.0,0.0,0.0,0.0,0.0,0.0,0.0,0.0,0.0,0.0,0.0,0.0,0.0,0.0,0.0,0.0,0.0,0.0,0.0,0.0,0.0,0.0,0.0,0.0,0.0,0.4927,0.4647,0.4269,0.0,0.0,0.0,0.0,0.0,0.0,0.0,0.0,0.0,0.0,0.0,0.0,0.0,0.0,0.0,0.0,0.0,0.0,0.0,0.0,0.0,0.0,0.0,0.0,0.0,0.0,0.0,0.0,0.0,0.0,0.0,0.0,0.0,0.0,0.0,0.0,0.0,0.0,0.0,0.0,0.0,0.0,0.0,0.0,0.0,0.0,0.0,0.0,0.0,0.0,0.0,0.0,0.0,0.0,0.0,0.0,0.0,0.0,0.0,0.0,0.0,0.0,0.0,0.0,0.0,0.0,0.0,0.0,0.0,0.0,0.0,0.0,0.0,0.0,0.0,0.0,0.0,0.0,0.0,0.0,0.0,0.0,0.0,0.0,0.0,0.0,0.0,0.0,0.0,0.0,0.0,0.0,0.0,0.0,0.0,0.0,0.0,0.0,0.0,0.0,0.0,0.0,0.0,0.0,0.0,0.0,0.0,0.0,0.0,0.0,0.5408,0.5026,0.4857,0.0,0.3891,0.0,0.0,0.0,0.0,0.0,0.0,0.0,0.0,0.0,0.0,0.0,0.0,0.0,0.0,0.0,0.0,0.0,0.0,0.0,0.0,0.0,0.0,0.0,0.0,0.0,0.0,0.0,0.0,0.0,0.0,0.0,0.0,0.0,0.0,0.0,0.0,0.0,0.0,0.0,0.0,0.0,0.0,0.0,0.0,0.0,0.0,0.0,0.0,0.0,0.0,0.0,0.0,0.0,0.0,0.0,0.0,0.0,0.0,0.0,0.0,0.0,0.0,0.0,0.0,0.0,0.0,0.0,0.0,0.0,0.0,0.0,0.0,0.0,0.0,0.0,0.0,0.0,0.0,0.0,0.0,0.0,0.0,0.0,0.0,0.0,0.0,0.0,0.0,0.0,0.0,0.0,0.0,0.0,0.0,0.0,0.0,0.0,0.0,0.0,0.0,0.0,0.0,0.0,0.0,0.0,0.0,0.0,0.0,0.0,0.0,0.5534,0.5185,0.4895,0.4488,0.0,0.0,0.0,0.0,0.0,0.0,0.0,0.0,0.0,0.0,0.0,0.0,0.0,0.0,0.0,0.0,0.0,0.0,0.0,0.0,0.0,0.0,0.0,0.0,0.0,0.0,0.0,0.0,0.0,0.0,0.0,0.0,0.0,0.0,0.0,0.0,0.0,0.0,0.0,0.0,0.0,0.0,0.0,0.0,0.0,0.0,0.0,0.0,0.0,0.0,0.0,0.0,0.0,0.0,0.0,0.0,0.0,0.0,0.0,0.0,0.0,0.0,0.0,0.0,0.0,0.0,0.0,0.0,0.0,0.0,0.0,0.0,0.0,0.0,0.0,0.0,0.0,0.0,0.0,0.0,0.0,0.0,0.0,0.0,0.0,0.0,0.0,0.0,0.0,0.0,0.0,0.0,0.0,0.0,0.0,0.0,0.0,0.0,0.0,0.0,0.0,0.0,0.0,0.0,0.0,0.0,0.0,0.0,0.0,0.0,0.5805,0.5482,0.514,0.4815,0.4429,0.4014,0.0,0.0,0.0,0.0,0.0,0.0,0.0,0.0,0.0,0.0,0.0,0.0,0.0,0.0,0.0,0.0,0.0,0.0,0.0,0.0,0.0,0.0,0.0,0.0,0.0,0.0,0.0,0.0,0.0,0.0,0.0,0.0,0.0,0.0,0.0,0.0,0.0,0.0,0.0,0.0,0.0,0.0,0.0,0.0,0.0,0.0,0.0,0.0,0.0,0.0,0.0,0.0,0.0,0.0,0.0,0.0,0.0,0.0,0.0,0.0,0.0,0.0,0.0,0.0,0.0,0.0,0.0,0.0,0.0,0.0,0.0,0.0,0.0,0.0,0.0,0.0,0.0,0.0,0.0,0.0,0.0,0.0,0.0,0.0,0.0,0.0,0.0,0.0,0.0,0.0,0.0,0.0,0.0,0.0,0.0,0.0,0.0,0.0,0.0,0.0,0.0,0.0,0.0,0.0,0.0,0.0,0.0,0.0,0.5649,0.5423,0.5134,0.4754,0.4574,0.4339,0.0,0.0,0.0,0.0,0.0,0.0,0.0,0.0,0.0,0.0,0.0,0.0,0.0,0.0,0.0,0.0,0.0,0.0,0.0,0.0,0.0,0.0,0.0,0.0,0.0,0.0,0.0,0.0,0.0,0.0,0.0,0.0,0.0,0.0,0.0,0.0,0.0,0.0,0.0,0.0,0.0,0.0,0.0,0.0,0.0,0.0,0.0,0.0,0.0,0.0,0.0,0.0,0.0,0.0,0.0,0.0,0.0,0.0,0.0,0.0,0.0,0.0,0.0,0.0,0.0,0.0,0.0,0.0,0.0,0.0,0.0,0.0,0.0,0.0,0.0,0.0,0.0,0.0,0.0,0.0,0.0,0.0,0.0,0.0,0.0,0.0,0.0,0.0,0.0,0.0,0.0,0.0,0.0,0.0,0.0,0.0,0.0,0.0,0.0,0.0,0.0,0.0,0.0,0.0,0.0,0.0,0.0,0.0,0.0,0.5752,0.5357,0.5122,0.5012,0.4689,0.4347,0.0,0.0,0.0,0.0,0.0,0.0,0.0,0.0,0.0,0.0,0.0,0.0,0.0,0.0,0.0,0.0,0.0,0.0,0.0,0.0,0.0,0.0,0.0,0.0,0.0,0.0,0.0,0.0,0.0,0.0,0.0,0.0,0.0,0.0,0.0,0.0,0.0,0.0,0.0,0.0,0.0,0.0,0.0,0.0,0.0,0.0,0.0,0.0,0.0,0.0,0.0,0.0,0.0,0.0,0.0,0.0,0.0,0.0,0.0,0.0,0.0,0.0,0.0,0.0,0.0,0.0,0.0,0.0,0.0,0.0,0.0,0.0,0.0,0.0,0.0,0.0,0.0,0.0,0.0,0.0,0.0,0.0,0.0,0.0,0.0,0.0,0.0,0.0,0.0,0.0,0.0,0.0,0.0,0.0,0.0,0.0,0.0,0.0,0.0,0.0,0.0,0.0,0.0,0.0,0.0,0.0,0.0,0.0,0.0,0.5676,0.0,0.5017,0.498,0.457,0.4237,0.0,0.0,0.0,0.0,0.0,0.0,0.0,0.0,0.0,0.0,0.0,0.0,0.0,0.0,0.0,0.0,0.0,0.0,0.0,0.0,0.0,0.0,0.0,0.0,0.0,0.0,0.0,0.0,0.0,0.0,0.0,0.0,0.0,0.0,0.0,0.0,0.0,0.0,0.0,0.0,0.0,0.0,0.0,0.0,0.0,0.0,0.0,0.0,0.0,0.0,0.0,0.0,0.0,0.0,0.0,0.0,0.0,0.0,0.0,0.0,0.0,0.0,0.0,0.0,0.0,0.0,0.0,0.0,0.0,0.0,0.0,0.0,0.0,0.0,0.0,0.0,0.0,0.0,0.0,0.0,0.0,0.0,0.0,0.0,0.0,0.0,0.0,0.0,0.0,0.0,0.0,0.0,0.0,0.0,0.0,0.0,0.0,0.0,0.0,0.0,0.0,0.0,0.0,0.0,0.0,0.0,0.0,0.0,0.6067,0.5426,0.5076,0.4838,0.4607,0.424,0.4016,0.0,0.0,0.0,0.0,0.0,0.0,0.0,0.0,0.0,0.0,0.0,0.0,0.0,0.0,0.0,0.0,0.0,0.0,0.0,0.0,0.0,0.0,0.0,0.0,0.0,0.0,0.0,0.0,0.0,0.0,0.0,0.0,0.0,0.0,0.0,0.0,0.0,0.0,0.0,0.0,0.0,0.0,0.0,0.0,0.0,0.0,0.0,0.0,0.0,0.0,0.0,0.0,0.0,0.0,0.0,0.0,0.0,0.0,0.0,0.0,0.0,0.0,0.0,0.0,0.0,0.0,0.0,0.0,0.0,0.0,0.0,0.0,0.0,0.0,0.0,0.0,0.0,0.0,0.0,0.0,0.0,0.0,0.0,0.0,0.0,0.0,0.0,0.0,0.0,0.0,0.0,0.0,0.0,0.0,0.0,0.0,0.0,0.0,0.0,0.0,0.0,0.0,0.0,0.0,0.0,0.0,0.0,0.0,0.0,0.5469,0.5279,0.5045,0.4754,0.4534,0.4292,0.0,0.0,0.0,0.0,0.0,0.0,0.0,0.0,0.0,0.0,0.0,0.0,0.0,0.0,0.0,0.0,0.0,0.0,0.0,0.0,0.0,0.0,0.0,0.0,0.0,0.0,0.0,0.0,0.0,0.0,0.0,0.0,0.0,0.0,0.0,0.0,0.0,0.0,0.0,0.0,0.0,0.0,0.0,0.0,0.0,0.0,0.0,0.0,0.0,0.0,0.0,0.0,0.0,0.0,0.0,0.0,0.0,0.0,0.0,0.0,0.0,0.0,0.0,0.0,0.0,0.0,0.0,0.0,0.0,0.0,0.0,0.0,0.0,0.0,0.0,0.0,0.0,0.0,0.0,0.0,0.0,0.0,0.0,0.0,0.0,0.0,0.0,0.0,0.0,0.0,0.0,0.0,0.0,0.0,0.0,0.0,0.0,0.0,0.0,0.0,0.0,0.0,0.0,0.0,0.0,0.0,0.0,0.0,0.0,0.6086,0.534,0.5068,0.5359,0.4606,0.4175,0.419,0.0,0.0,0.0,0.0,0.0,0.0,0.0,0.0,0.0,0.0,0.0,0.0,0.0,0.0,0.0,0.0,0.0,0.0,0.0,0.0,0.0,0.0,0.0,0.0,0.0,0.0,0.0,0.0,0.0,0.0,0.0,0.0,0.0,0.0,0.0,0.0,0.0,0.0,0.0,0.0,0.0,0.0,0.0,0.0,0.0,0.0,0.0,0.0,0.0,0.0,0.0,0.0,0.0,0.0,0.0,0.0,0.0,0.0,0.0,0.0,0.0,0.0,0.0,0.0,0.0,0.0,0.0,0.0,0.0,0.0,0.0,0.0,0.0,0.0,0.0,0.0,0.0,0.0,0.0,0.0,0.0,0.0,0.0,0.0,0.0,0.0,0.0,0.0,0.0,0.0,0.0,0.0,0.0,0.0,0.0,0.0,0.0,0.0,0.0,0.0,0.0,0.0,0.0,0.0,0.0,0.0,0.0,0.0,0.7278,0.5305,0.487,0.6207,0.4603,0.3892,0.0,0.0,0.0,0.0,0.0,0.0,0.0,0.0,0.0,0.0,0.0,0.0,0.0,0.0,0.0,0.0,0.0,0.0,0.0,0.0,0.0,0.0,0.0,0.0,0.0,0.0,0.0,0.0,0.0,0.0,0.0,0.0,0.0,0.0,0.0,0.0,0.0,0.0,0.0,0.0,0.0,0.0,0.0,0.0,0.0,0.0,0.0,0.0,0.0,0.0,0.0,0.0,0.0,0.0,0.0,0.0,0.0,0.0,0.0,0.0,0.0,0.0,0.0,0.0,0.0,0.0,0.0,0.0,0.0,0.0,0.0,0.0,0.0,0.0,0.0,0.0,0.0,0.0,0.0,0.0,0.0,0.0,0.0,0.0,0.0,0.0,0.0,0.0,0.0,0.0,0.0,0.0,0.0,0.0,0.0,0.0,0.0,0.0,0.0,0.0,0.0,0.0,0.0,0.0,0.0,0.0,0.0,0.0,0.0,0.8297,0.5188,0.4255,0.5936,0.5666,0.4887,0.0,0.0,0.0,0.0,0.0,0.0,0.0,0.0,0.0,0.0,0.0,0.0,0.0,0.0,0.0,0.0,0.0,0.0,0.0,0.0,0.0,0.0,0.0,0.0,0.0,0.0,0.0,0.0,0.0,0.0,0.0,0.0,0.0,0.0,0.0,0.0,0.0,0.0,0.0,0.0,0.0,0.0,0.0,0.0,0.0,0.0,0.0,0.0,0.0,0.0,0.0,0.0,0.0,0.0,0.0,0.0,0.0,0.0,0.0,0.0,0.0,0.0,0.0,0.0,0.0,0.0,0.0,0.0,0.0,0.0,0.0,0.0,0.0,0.0,0.0,0.0,0.0,0.0,0.0,0.0,0.0,0.0,0.0,0.0,0.0,0.0,0.0,0.0,0.0,0.0,0.0,0.0,0.0,0.0,0.0,0.0,0.0,0.0,0.0,0.0,0.0,0.0,0.0,0.0,0.0,0.0,0.0,0.0,0.5638,0.7665,0.5158,0.4221,0.5184,0.4937,0.437,0.0,0.0,0.0,0.0,0.0,0.0,0.0,0.0,0.0,0.0,0.0,0.0,0.0,0.0,0.0,0.0,0.0,0.0,0.0,0.0,0.0,0.0,0.0,0.0,0.0,0.0,0.0,0.0,0.0,0.0,0.0,0.0,0.0,0.0,0.0,0.0,0.0,0.0,0.0,0.0,0.0,0.0,0.0,0.0,0.0,0.0,0.0,0.0,0.0,0.0,0.0,0.0,0.0,0.0,0.0,0.0,0.0,0.0,0.0,0.0,0.0,0.0,0.0,0.0,0.0,0.0,0.0,0.0,0.0,0.0,0.0,0.0,0.0,0.0,0.0,0.0,0.0,0.0,0.0,0.0,0.0,0.0,0.0,0.0,0.0,0.0,0.0,0.0,0.0,0.0,0.0,0.0,0.0,0.0,0.0,0.0,0.0,0.0,0.0,0.0,0.0,0.0,0.0,0.0,0.0,0.0,0.0,0.0,0.4528,0.5898,0.4905,0.4315,0.4236,0.3501,0.3189,0.0,0.0,0.0,0.0,0.0,0.0,0.0,0.0,0.0,0.0,0.0,0.0,0.0,0.0,0.0,0.0,0.0,0.0,0.0,0.0,0.0,0.0,0.0,0.0,0.0,0.0,0.0,0.0,0.0,0.0,0.0,0.0,0.0,0.0,0.0,0.0,0.0,0.0,0.0,0.0,0.0,0.0,0.0,0.0,0.0,0.0,0.0,0.0,0.0,0.0,0.0,0.0,0.0,0.0,0.0,0.0,0.0,0.0,0.0,0.0,0.0,0.0,0.0,0.0,0.0,0.0,0.0,0.0,0.0,0.0,0.0,0.0,0.0,0.0,0.0,0.0,0.0,0.0,0.0,0.0,0.0,0.0,0.0,0.0,0.0,0.0,0.0,0.0,0.0,0.0,0.0,0.0,0.0,0.0,0.0,0.0,0.0,0.0,0.0,0.0,0.0,0.0,0.0,0.0,0.0,0.0,0.0,0.0,0.4167,0.5591,0.3279,0.2804,0.4473,0.4481,0.3694,0.0,0.0,0.0,0.0,0.0,0.0,0.0,0.0,0.0,0.0,0.0,0.0,0.0,0.0,0.0,0.0,0.0,0.0,0.0,0.0,0.0,0.0,0.0,0.0,0.0,0.0,0.0,0.0,0.0,0.0,0.0,0.0,0.0,0.0,0.0,0.0,0.0,0.0,0.0,0.0,0.0,0.0,0.0,0.0,0.0,0.0,0.0,0.0,0.2817,0.0,0.0,0.0,0.0,0.0,0.0,0.0,0.0,0.0,0.0,0.0,0.0,0.0,0.0,0.0,0.0,0.0,0.0,0.0,0.0,0.0,0.0,0.0,0.0,0.0,0.0,0.0,0.0,0.0,0.0,0.0,0.0,0.0,0.0,0.0,0.0,0.0,0.0,0.0,0.0,0.0,0.0,0.0,0.0,0.0,0.0,0.0,0.0,0.0,0.0,0.0,0.0,0.0,0.0,0.0,0.0,0.0,0.0,0.0,0.3312,0.3559,0.211,0.1779,0.2703,0.2963,0.2606,0.0,0.0,0.0,0.0,0.0,0.0,0.0,0.0,0.0,0.0,0.0,0.0,0.0,0.0,0.0,0.0,0.0,0.0,0.0,0.0,0.0,0.0,0.0,0.0,0.0,0.0,0.0,0.0,0.0,0.0,0.0,0.0,0.0,0.0,0.0,0.0,0.0,0.0,0.0,0.0,0.0,0.0,0.0,0.0,0.0,0.0,0.0,0.0,0.0,0.0,0.0,0.0,0.0,0.0,0.0,0.0,0.0,0.0,0.0,0.0,0.0,0.0,0.0,0.0,0.0,0.0,0.0,0.0,0.0,0.0,0.0,0.0,0.0,0.0,0.0,0.0,0.0,0.0,0.0,0.0,0.0,0.0,0.0,0.0,0.0,0.0,0.0,0.0,0.0,0.0,0.0,0.0,0.0,0.0,0.0,0.0,0.0,0.0,0.0,0.0,0.0,0.0,0.0,0.0,0.0,0.0,0.0,0.3072,0.2347,0.1324,0.1146,0.094,0.0611,0.0836,0.1054,0.1295,0.0,0.0,0.0,0.0,0.0,0.0,0.0,0.0,0.0,0.0,0.0,0.0,0.0,0.0,0.0,0.0,0.0,0.0,0.0,0.0,0.0,0.0,0.0,0.0,0.0,0.0,0.0,0.0,0.0,0.0,0.0,0.0,0.0,0.0,0.0,0.0,0.0,0.0,0.1279,0.1514,0.0,0.0,0.0,0.0,0.0,0.0,0.0,0.0,0.2532,0.0,0.0,0.0,0.0,0.0,0.0,0.0,0.0,0.0,0.0,0.0,0.0,0.0,0.0,0.0,0.0,0.0,0.0,0.0,0.0,0.0,0.0,0.0,0.0,0.0,0.0,0.0,0.0,0.0,0.0,0.0,0.0,0.0,0.0,0.0,0.0,0.0,0.0,0.0,0.0,0.0,0.0,0.0,0.0,0.0,0.0,0.0,0.0,0.0,0.0,0.0,0.0,0.0,0.0,0.0,0.0,0.2871,0.2391,0.1714,0.0852,0.0408,0.0375,0.066,0.0344,0.0382,0.0808,0.0,0.0,0.0,0.0,0.0,0.0,0.0,0.0,0.0,0.0,0.0,0.0,0.0,0.0,0.0,0.0,0.0,0.0,0.0,0.0,0.0,0.0,0.0,0.0,0.0,0.0,0.0,0.0,0.0,0.0,0.0,0.0,0.0,0.0,0.0,0.0,0.0,0.0,0.0,0.1392,0.15,0.0,0.0,0.0,0.0,0.0,0.0,0.0,0.0,0.2205,0.0,0.0,0.0,0.0,0.0,0.0,0.0,0.0,0.0,0.0,0.0,0.0,0.0,0.0,0.0,0.0,0.0,0.0,0.0,0.0,0.0,0.0,0.0,0.0,0.0,0.0,0.0,0.0,0.0,0.0,0.0,0.0,0.0,0.0,0.0,0.0,0.0,0.0,0.0,0.0,0.0,0.0,0.0,0.0,0.0,0.0,0.0,0.0,0.0,0.0,0.0,0.0,0.0,0.0,0.0,0.2725,0.1959,0.1194,0.0359,0.0124,0.0084,0.0292,0.0116,0.0211,0.0,0.0,0.0,0.0,0.0,0.0,0.0,0.0,0.0,0.0,0.0,0.0,0.0,0.0,0.0,0.0,0.0,0.0,0.0,0.0,0.0,0.0,0.0,0.0,0.0,0.0,0.0,0.0,0.0,0.0,0.0,0.0,0.0,0.0,0.0,0.0,0.0,0.0,0.0,0.0,0.0992,0.1026,0.0996,0.0,0.0,0.0,0.0,0.0,0.0,0.1597,0.2035,0.0,0.0,0.0,0.0,0.0,0.0,0.0,0.0,0.0,0.0,0.0,0.0,0.0,0.0,0.0,0.0,0.0,0.0,0.0,0.0,0.0,0.0,0.0,0.0,0.0,0.0,0.0,0.0,0.0,0.0,0.0,0.0,0.0,0.0,0.0,0.0,0.0,0.0,0.0,0.0,0.0,0.0,0.0,0.0,0.0,0.0,0.0,0.0,0.0,0.0,0.0,0.0,0.0,0.0,0.0,0.2722,0.1686,0.0779,0.0,0.0,0.0,0.0,0.0,0.0211,0.0,0.0,0.0,0.0,0.0,0.0,0.0,0.0,0.0,0.0,0.0,0.0,0.0,0.0,0.0,0.0,0.0,0.0,0.0,0.0,0.0,0.0,0.0,0.0,0.0,0.0,0.0,0.0,0.0,0.0,0.0,0.0,0.0,0.0,0.0,0.0,0.0,0.0,0.0,0.0,0.0,0.0582,0.0432,0.0667,0.0,0.0,0.0,0.0,0.1046,0.1375,0.0,0.0,0.0,0.0,0.0,0.0,0.0,0.0,0.0,0.0,0.0,0.0,0.0,0.0,0.0,0.0,0.0,0.0,0.0,0.0,0.0,0.0,0.0,0.0,0.0,0.0,0.0,0.0,0.0,0.0,0.0,0.0,0.0,0.0,0.0,0.0,0.0,0.0,0.0,0.0,0.0,0.0,0.0,0.0,0.0,0.0,0.0,0.0,0.0,0.0,0.0,0.0,0.0,0.0,0.0,0.0,0.2791,0.1575,0.0607,0.0,0.0,0.0,0.0,0.0,0.0239,0.0,0.0,0.0,0.0,0.0,0.0,0.0,0.0,0.0,0.0,0.0,0.0,0.0,0.0,0.0,0.0,0.0,0.0,0.0,0.0,0.0,0.0,0.0,0.0,0.0,0.0,0.0,0.0,0.0,0.0,0.0,0.0,0.0,0.0,0.0,0.0,0.0,0.0,0.0,0.0,0.0,0.044,0.0397,0.045,0.0525,0.0,0.0,0.0512,0.0495,0.0679,0.0,0.0,0.0,0.0,0.0,0.0,0.0,0.0,0.0,0.0,0.0,0.0,0.0,0.0,0.0,0.0,0.0,0.0,0.0,0.0,0.0,0.0,0.0,0.0,0.0,0.0,0.0,0.0,0.0,0.0,0.0,0.0,0.0,0.0,0.0,0.0,0.0,0.0,0.0,0.0,0.0,0.0,0.0,0.0,0.0,0.0,0.0,0.0,0.0,0.0,0.0,0.0,0.0,0.0,0.0,0.3204,0.266,0.1168,0.0268,0.0,0.0,0.0,0.0,0.0,0.0135,0.0,0.0,0.0,0.0,0.0,0.0,0.0,0.0,0.0,0.0,0.0,0.0,0.0,0.0,0.0,0.0,0.0,0.0,0.0,0.0,0.0,0.0,0.0,0.0,0.0,0.0,0.0,0.0,0.0,0.0,0.0,0.0,0.0,0.0,0.0,0.0,0.0,0.0,0.0,0.0,0.0,0.0,0.0149,0.0184,0.0,0.0,0.0,0.0253,0.0445,0.0,0.0,0.0,0.0,0.0,0.0,0.0,0.0,0.0,0.0,0.0,0.0,0.0,0.0,0.0,0.0,0.0,0.0,0.0,0.0,0.0,0.0,0.0,0.0,0.0,0.0,0.0,0.0,0.0,0.0,0.0,0.0,0.0,0.0,0.0,0.0,0.0,0.0,0.0,0.0,0.0,0.0,0.0,0.0,0.0,0.0,0.0,0.0,0.0,0.0,0.0,0.0,0.0,0.0,0.0,0.0,0.0,0.255,0.0862,0.0,0.0,0.0,0.0,0.0,0.0,0.0,0.0,0.0,0.0,0.0,0.0,0.0,0.0,0.0,0.0,0.0,0.0,0.0,0.0,0.0,0.0,0.0,0.0,0.0,0.0,0.0,0.0,0.0,0.0,0.0,0.0,0.0,-0.0877,0.0,0.0,0.0,0.0,0.0,0.0,0.0,0.0,0.0,0.0,0.0,0.0,0.0,0.0,-0.0315,-0.0032,0.0,0.0,0.0,0.0,0.0103,0.0343,0.035,0.0486,0.0,0.0,0.0,0.0,0.0,0.0,0.0,0.0,0.0,0.0,0.0,0.0,0.0,0.0,0.0,0.0,0.0,0.0,0.0,0.0,0.0,0.0,0.0,0.0,0.0,0.0,0.0,0.0,0.86,0.0,0.0,0.0,0.0,0.0,0.0,0.0,0.0,0.0,0.0,0.0,0.0,0.0,0.0,0.0,0.0,0.0,0.0,0.0,0.0,0.0,0.0,0.0,0.0,0.0,0.2874,0.2558,0.0888,0.0,0.0,0.0,0.0,0.0,0.0,0.0105,0.0,0.0,0.0,0.0,0.0,0.0,0.0,0.0,0.0,0.0,0.0,0.0,0.0,0.0,0.0,0.0,0.0,0.0,0.0,0.0,0.0,0.0,0.0,0.0,0.0,0.0,0.0,0.0,0.0,0.0,0.0,0.0,0.0,0.0,0.0,0.0,0.0,0.0,0.0,0.0,0.0,-0.03,-0.0035,0.0,0.0,0.0,0.0,0.0,0.0,0.0,0.0115,0.0431,0.0,0.0,0.0,0.0,0.0,0.0,0.0,0.0,0.0,0.0,0.0,0.0,0.0,0.0,0.0,0.0,0.0,0.0,0.0,0.0,0.0,0.0,0.0,0.0,0.0,0.8763,0.0,0.0,0.8502,0.0,0.0,0.0,0.0,0.0,0.0,0.0,0.0,0.0,0.0,0.0,0.0,0.0,0.0,0.0,0.0,0.0,0.0,0.0,0.0,0.0,0.0,0.0,0.0,0.2545,0.2234,0.0739,0.0,0.0,0.0,0.0,0.0,0.0,0.0036,0.0,0.0,0.0,0.0,0.0,0.0,0.0,0.0,0.0,0.0,0.0,0.0,0.0,0.0,0.0,0.0,0.0,0.0,0.0,0.0,0.0,0.0,0.0,0.0,0.0,0.0,0.0,0.0,-0.0389,-0.0442,-0.0709,0.0,0.0,0.0,0.0,0.0,0.0,0.0,0.0,0.0,0.0,-0.0314,0.0,0.0,0.0,0.0,0.0,0.0,0.0,0.0,0.0038,0.0137,0.0159,0.0,0.0,0.0,0.0,0.0,0.0,0.0,0.0,0.0,0.0,0.0,0.0,0.0,0.0,0.0,0.0,0.0,0.0,0.0,0.0,0.0,0.0,0.0,0.0,0.0,0.0,0.0,0.0,0.0,0.0,0.0,0.0,0.0,0.0,0.0,0.0,0.0,0.0,0.0,0.0,0.0,0.0,0.0,0.0,0.0,0.0,0.0,0.0,0.0,0.0,0.0,0.0,0.2281,0.2007,0.0709,0.0,0.0,0.0,0.0,0.0,0.0,0.0,0.0,0.0,0.0,0.0,0.0,0.0,0.0,0.0,0.0,0.0,0.0,0.0,0.0,0.0,0.0,0.0,0.0,0.0,0.0,0.0,0.0,0.0,0.0,0.0,0.0,0.0,0.0,0.0,-0.0486,-0.0696,-0.1164,0.0,0.0,0.0,0.0,0.0,0.0,0.0,0.0,0.0,0.0,-0.0291,0.0,0.0,0.0,0.0,0.0,0.0,0.0,0.0,0.0,0.0,0.0,0.0,0.0,0.0,0.0,0.0,0.0,0.0,0.0,0.0,0.0,0.0,0.0,0.0,0.0,0.0,0.0,0.0,0.0,0.0,0.0,0.0,0.0,0.0,0.0,0.0,0.0,0.8998,0.0,0.0,0.8492,0.0,0.0,0.0,0.0,0.0,0.0,0.0,0.0,0.0,0.0,0.0,0.0,0.0,0.0,0.0,0.0,0.0,0.0,0.0,0.0,0.0,0.0,0.2154,0.2064,0.0688,0.0,0.0,0.0,0.0,0.0,0.0,0.0,0.0,0.0,0.0,0.0,0.0,0.0,0.0,0.0,0.0,0.0,0.0,0.0,0.0,0.0,0.0,0.0,0.0,0.0,0.0,0.0,0.0,0.0,0.0,0.0,0.0,0.0,0.0,-0.0766,-0.0788,-0.0903,0.0,0.0,0.0,0.0,0.0,0.0,0.0,0.0,0.0,0.0,-0.039,-0.0304,0.0,0.0,0.0,0.0,0.0,0.0,0.0,0.0,0.0,0.0,0.0,0.0,0.0,0.0,0.0,0.0,0.0,0.0,0.0,0.0,0.0,0.0,0.0,0.0,0.0,0.0,0.0,0.0,0.0,0.0,0.0,0.0,0.0,0.0,0.0,0.0,0.9469,0.9676,0.0,0.0,0.0,0.0,0.0,0.0,0.0,0.0,0.0,0.0,0.0,0.3493,0.3229,0.0,0.0,0.0,0.0,0.0,0.0,0.0,0.0,0.0,0.0,0.0,0.0,0.1851,0.1526,0.0543,0.0,0.0,0.0,0.0,0.0,0.0,0.0,0.0,0.0,0.0,0.0,0.0,0.0,0.0,0.0,0.0,0.0,0.0,0.0,0.0,0.0,0.0,0.0,0.0,0.0,0.0,0.0,0.0,0.0,0.0,0.0,0.0,0.0,-0.0568,0.0,0.0,0.0,0.0,0.0,0.0,0.0,0.0,0.0,0.0,0.0,-0.0499,-0.0401,-0.0249,-0.0112,0.0,0.0,0.0,0.0,0.0,0.0,0.0,0.0,0.0,0.0,0.0,0.0,0.0,0.0,0.0,0.0,0.0,0.0,0.0,0.0,0.0029,0.0114,0.0,0.0,0.0,0.0,0.0,0.0,0.0,0.0,0.0,0.0,0.0,0.0,0.0,0.0,0.9344,0.0,0.8183,0.0,0.0,0.0,0.0,0.0,0.0,0.0,0.0,0.2939,0.2261,0.2169,0.1954,0.1989,0.0,0.2268,0.2872,0.0,0.0,0.0,0.0,0.0,0.0,0.0,0.0,0.1579,0.1313,0.0437,0.0,0.0,0.0,0.0,0.0,0.0,0.0,0.0,0.0,-0.0134,0.0,0.0,0.0,0.0,0.0,0.0,0.0,0.0,0.0,0.0,0.0,0.0,0.0,0.0,0.0,0.0,0.0,0.0,0.0,0.0,0.0,0.0,0.0,-0.0625,0.0,0.0,0.0,0.0,0.0,0.0,0.0,0.0,0.0,-0.1167,-0.0626,-0.0298,-0.0421,-0.0183,-0.0038,-0.0151,0.0,0.0,0.0,0.0,0.0,0.0,0.0,0.0,0.0,0.0,0.0,0.0,0.0,0.0,0.0,0.0,0.0,0.0,0.0,0.0,0.0,0.0,0.0,0.0,0.0,-0.0034,0.0,0.0,0.0,0.0,0.0,0.0,0.0,0.0,0.905,0.8744,0.0,0.6137,0.0,0.0,0.0,0.0,0.0,0.3742,0.0,0.0,0.1001,0.0389,0.0915,0.0672,0.0672,0.0951,0.1201,0.1523,0.1861,0.2405,0.0,0.0,0.0,0.0,0.0,0.0,0.1316,0.1326,0.0453,0.0,0.0,0.0,0.0,0.0,0.0,0.0,0.0,0.0,-0.011,-0.0373,-0.0704,0.0,0.0,0.0,0.0,0.0,0.0,0.0,0.0,0.0,0.0,0.0,0.0,0.0,0.0,0.0,0.0,0.0,0.0,0.0,0.0,-0.0685,0.0,0.0,0.0,0.0,0.0,0.0,0.0,0.0,0.0,0.0,-0.0908,-0.0399,-0.0138,-0.0442,0.0,0.0,0.0,0.0,0.0,0.0,0.0,0.0,0.0,0.0,0.0,0.0,0.0,0.0,0.0,0.0,0.0,0.0,0.0,0.0,0.0,0.0,0.0,0.0,0.0,0.0,0.0,0.0,-0.0076,1.4672,0.0,0.0,0.0,0.0,1.2377,1.2529,1.2513,1.1955,1.1515,1.1181,0.9896,0.0,0.0,0.0,0.0,0.0,0.0,0.2302,0.1866,0.0868,0.0359,0.0272,0.0184,0.0183,0.0269,0.0043,0.0127,0.0538,0.04,0.0993,0.2335,0.0,0.0,0.0,0.0,0.1129,0.0748,0.0254,0.0,0.0,0.0,0.0,0.0,0.0,0.0,0.0,0.0,-0.0039,-0.0109,-0.0382,0.0,0.0,0.0,0.0,0.0,0.0,0.0,0.0,0.0,0.0,0.0,0.0,0.0,0.0,0.0,0.0,0.0,0.0,0.0,-0.042,-0.0701,-0.0966,0.0,0.0,0.0,0.0,0.0,0.0,0.0,0.0,0.0,-0.0589,-0.0432,-0.0285,0.0,0.0,-0.0038,-0.0148,-0.0076,0.0,0.0,0.0,0.0,0.0,0.0,0.0,0.0,-0.1131,-0.2542,-0.3956,-0.4144,-0.4111,-0.4139,-0.3014,-0.2082,-0.199,-0.0886,0.0,0.0,0.0,0.0,0.0,0.0,0.0,1.6209,1.4882,1.4302,1.3916,1.3769,1.3733,1.3693,1.3631,1.2646,1.2072,1.179,1.0235,0.9072,0.8212,0.7083,0.0,0.0,0.0,0.1533,0.0892,0.0554,0.0236,0.0,-0.0243,-0.0338,-0.0332,-0.0839,-0.096,-0.0624,-0.0522,0.0122,0.1282,0.0,0.0,0.1525,0.1131,0.0812,0.0493,0.0175,0.0,0.0,0.0,0.0,0.0,0.0,0.0,0.0,0.0,0.0,0.0,-0.0259,-0.0493,0.0,0.0,0.0,0.0,0.0,0.0,0.0,0.0,0.0,0.0,0.0,-0.1063,-0.0747,0.0,0.0,0.0,-0.0398,-0.0285,-0.0422,-0.0747,0.0,0.0,0.0,0.0,0.0,0.0,0.0,-0.1419,-0.1106,-0.0768,-0.047,-0.0466,-0.0424,-0.0236,-0.0078,-0.0039,-0.0193,0.0,0.0,0.0,-0.07,-0.1191,-0.1142,-0.1836,-0.2358,-0.2354,-0.3257,-0.4374,-0.5679,-0.587,-0.5827,-0.5791,-0.4988,-0.4161,-0.4151,-0.3209,-0.1787,0.0,0.0,0.0,0.0,0.0,0.0,1.7615,1.7412,1.6237,1.5886,1.5966,1.5072,1.4513,1.4098,1.1747,1.0979,1.1047,0.8085,0.7736,0.9179,0.6472,0.0,0.147,0.1171,0.065,0.0,-0.0049,-0.005,-0.01,-0.0706,-0.0902,-0.0885,-0.1413,-0.1625,-0.1486,-0.0677,-0.0219,-0.017,0.0201,0.058,0.0903,0.0589,0.0411,0.0472,0.0136,0.0,0.0,0.0,0.0,0.0,0.0,0.0,0.0,0.0,0.0,0.0,-0.0234,-0.0376,-0.0403,0.0,0.0,0.0,0.0,0.0,0.0,0.0,0.0,0.0,0.0,0.0,0.0,0.0,0.0,-0.041,-0.0134,0.0,-0.0457,-0.0792,0.0,0.0,0.0,-0.1253,-0.0947,-0.0872,-0.0861,-0.0845,0.0,0.0,-0.0483,-0.0457,-0.0468,-0.0473,-0.017,-0.0168,-0.0616,-0.0505,-0.0258,0.0,-0.1807,-0.2871,-0.2395,-0.3899,-0.5205,-0.548,-0.5906,-0.6134,-0.6696,-0.6681,-0.6492,-0.6779,-0.6469,-0.6345,-0.631,-0.6061,-0.493,-0.1312,0.0,0.0,0.0,0.0,0.0,1.8647,1.8515,1.7672,1.7103,1.6735,1.6217,1.4715,1.251,1.1598,0.9862,0.7558,0.6755,0.5727,0.4428,0.2314,0.0995,0.0383,0.029,0.0196,0.0,-0.0455,-0.0664,-0.072,-0.1236,-0.1481,-0.1505,-0.159,-0.137,-0.1006,-0.0708,-0.0419,-0.0046,0.0045,0.0261,0.0608,0.054,0.0343,0.0133,0.0046,0.0,0.0,0.0,0.0,0.0,0.0,0.0,0.0,0.0,0.0,0.0,-0.0081,-0.0197,-0.0457,-0.0853,0.0,0.0,0.0,0.0,0.0,0.0,0.0,0.0,0.0,-0.0856,-0.0518,0.0,-0.0161,0.0,-0.0035,-0.011,-0.0398,-0.0472,0.0,0.0,-0.1029,-0.1082,-0.098,-0.0762,-0.0592,-0.0595,-0.0365,-0.0209,-0.0131,-0.0132,-0.0134,-0.0092,0.0,-0.0559,-0.2098,-0.2462,-0.2378,-0.229,-0.2768,-0.256,-0.1493,-0.2332,-0.4348,-0.5671,-0.7074,-0.8618,-1.0323,-1.0507,-1.0473,-1.0472,-0.9284,-0.8451,-0.8283,-0.7158,-0.5952,-0.4742,-0.3385,-0.1791,0.0,0.0,0.0,1.9125,1.8754,1.8196,1.6969,1.5302,1.4714,1.349,1.1744,1.0173,0.8426,0.6615,0.6457,0.5106,0.3014,0.1844,0.0847,0.0,0.0,-0.0153,-0.0412,-0.0727,-0.0889,-0.0946,-0.1418,-0.1564,-0.1286,-0.1535,-0.1466,-0.1142,-0.0885,-0.0583,-0.0384,-0.0143,0.0093,0.0269,0.0269,0.0181,0.0,0.0,0.0,0.0,0.0,-0.0095,-0.0274,-0.027,-0.0352,-0.0512,-0.0503,-0.0496,-0.049,-0.0482,-0.0589,-0.0765,-0.1087,-0.132,0.0,0.0,0.0,0.0,0.0,0.0,0.0,0.0,0.0,0.0,0.0,0.0,0.0,0.0,-0.0115,-0.0416,-0.0458,-0.0535,-0.0715,-0.0765,-0.0701,-0.0594,-0.0369,-0.0294,-0.0296,-0.0086,0.0,0.0,0.0,0.0,0.0,0.0,-0.0411,-0.1401,-0.1737,-0.2034,-0.2878,-0.384,-0.4841,-0.512,-0.619,-0.7237,-0.8404,-0.9451,-1.0596,-1.1833,-1.1971,-1.1933,-1.1995,-1.1168,-1.0413,-1.0371,-0.9651,-0.8601,-0.7413,-0.58,-0.3759,-0.1763,-0.1334,-0.1144,1.9051,1.7989,1.7757,1.5942,1.3074,1.1599,1.0941,1.073,0.7982,0.6512,0.6096,0.5706,0.4553,0.2814,0.2665,0.1636,0.0,0.0,-0.0314,-0.0896,-0.0903,-0.0959,-0.1012,-0.1492,-0.1432,-0.0947,-0.1367,-0.1565,-0.1488,-0.0967,-0.0703,-0.0691,-0.0245,0.0,0.0,0.0,0.0,0.0,0.0,0.0,0.0,0.0,-0.0189,-0.0585,-0.062,-0.0816,-0.1183,-0.1123,-0.111,-0.1098,-0.1087,-0.1079,-0.1031,-0.1353,-0.1533,0.0,-0.171,0.0,0.0,0.0,0.0,0.0,0.0,0.0,0.0,0.0,0.0,0.0,0.0,-0.012,-0.0398,-0.0442,-0.0446,-0.041,-0.0453,-0.0334,-0.0043,0.0,0.0,0.0,0.0,0.0,0.0,0.0,0.0,0.0,0.0,0.0,-0.1045,-0.1228,-0.1893,-0.3236,-0.4891,-0.6839,-0.9504,-1.0766,-1.1054,-1.1382,-1.1531,-1.1922,-1.2129,-1.2127,-1.2047,-1.2187,-1.2114,-1.212,-1.2219,-1.2125,-1.1505,-0.9789,-0.8171,-0.618,-0.3567,-0.2428,-0.2047,1.8143,1.5446,1.4867,1.3881,1.2327,0.7491,0.5667,0.5961,0.4924,0.3266,0.1348,0.1217,0.0984,0.0595,0.0589,0.0374,0.0,0.0,-0.0318,-0.0904,-0.0905,-0.1119,-0.1545,-0.1652,-0.1644,-0.1525,-0.1209,-0.0994,-0.0932,-0.0414,-0.0154,-0.0153,-0.0051,0.0,0.0,0.0,0.0,0.0,0.0,0.0,0.0,0.0,-0.0188,-0.0584,-0.0611,0.0,-0.1182,-0.1145,-0.1086,-0.1084,-0.117,0.0,0.0,0.0,0.0,0.0,0.0,0.0,0.0,0.0,0.0,0.0,-0.0596,-0.0518,-0.0322,-0.0148,0.0,0.0,0.0,-0.0042,-0.0084,-0.0085,-0.0086,-0.0086,0.0,-0.0089,0.0,0.0,0.0,0.0,0.0,0.0,0.0,0.0,0.0,-0.2249,-0.2594,-0.352,-0.5442,-0.519,-0.5167,-0.558,-0.6052,-0.6433,-0.707,-0.8686,-0.988,-0.9753,-1.1036,-1.1921,-1.2181,-1.2203,-1.2181,-1.2219,-1.2219,-1.2219,-1.2219,-1.2219,-1.2078,-1.1694,-1.1217,-0.9406,-0.4137,-0.1715,-0.0477,1.5595,0.0,1.169,1.0215,0.0,0.515,0.3293,0.2351,0.2042,0.1211,0.0,0.0,0.0,0.0,0.0,0.0,0.0,0.0,-0.0321,-0.0906,-0.0906,-0.1066,-0.1279,-0.1332,-0.1117,-0.0847,-0.0582,-0.0423,-0.0368,-0.0157,0.0,0.0,0.0,0.0,0.0,0.0,0.0,0.0,0.0,0.0,0.0,0.0,-0.019,-0.0589,-0.062,0.0,0.0,0.0,0.0,0.0,0.0,0.0,0.0,0.0,0.0,-0.2172,-0.1481,-0.1386,-0.2075,-0.1295,-0.0593,-0.0282,-0.1145,-0.1296,-0.031,-0.008,0.0,0.0,0.0,0.0,0.0,0.0,0.0,0.0,0.0,0.0,0.0,0.0,0.0,-0.0336,-0.0386,-0.0485,-0.0779,-0.1818,-0.2712,-0.3848,-0.4949,-0.6039,-0.719,-0.6869,-0.6569,-0.7534,-0.8593,-0.9087,-0.9093,-0.975,-1.0478,-1.0683,-1.1424,-1.2049,-1.2209,-1.2219,-1.2219,-1.2219,-1.2219,-1.2219,-1.2219,-1.2219,-1.2219,-1.2078,-1.1358,-0.993,-0.6464,-0.4425,-0.2334,1.2324,0.9011,0.8451,0.6559,0.3906,0.3413,0.1992,0.0,0.0,0.0,0.0,0.0,0.0,0.0,0.0,0.0,0.0,0.0,-0.0323,-0.0906,-0.0799,-0.0799,-0.0906,-0.0799,-0.048,0.0,0.0,0.0,0.0,0.0,0.0,0.0,0.0,0.0,0.0,0.0,0.0,0.0,0.0,0.0,0.0,0.0,-0.0194,-0.0598,-0.0589,-0.0788,-0.1197,-0.1123,-0.1112,-0.1082,-0.1102,-0.1102,-0.1007,-0.1365,-0.2223,-0.3628,-0.2638,-0.253,-0.3728,-0.2357,-0.1359,-0.1139,-0.261,-0.2888,-0.1137,-0.1077,-0.1096,-0.1054,-0.1118,0.0,-0.1086,0.0,-0.1131,-0.1131,-0.1141,0.0,0.0,-0.1246,-0.168,-0.1828,-0.2229,-0.2236,-0.2878,-0.4291,-0.5571,-0.6073,-0.7499,-0.8821,-0.8898,-0.832,-0.814,-0.9745,-1.1102,-1.2109,-1.1995,-1.1939,-1.2159,-1.1869,-1.2038,-1.2214,-1.2219,-1.2219,-1.2219,-1.2219,-1.2219,-1.2219,-1.2219,-1.2219,-1.2219,-1.2219,-1.0881,-0.95,-0.9027,-0.7792,-0.5325,0.8773,0.5603,0.5493,0.4858,0.375,0.1529,0.0362,0.0,0.0,0.0,0.0,0.0,0.0,0.0,0.0,0.0,0.0,0.0,-0.0322,-0.0853,-0.0373,-0.0426,-0.0853,-0.0373,-0.0107,0.0,0.0,0.0,0.0,0.0,0.0,0.0,0.0,0.0,0.0,0.0,0.0,0.0,0.0,0.0,0.0,0.0,-0.0196,-0.0569,-0.06,-0.0806,-0.1165,-0.1119,-0.1094,-0.1096,-0.1173,-0.102,-0.0668,-0.2376,-0.3286,-0.3263,-0.4455,-0.5371,-0.567,-0.5358,-0.5223,-0.5379,-0.5678,-0.5628,-0.5149,-0.5154,-0.5261,-0.5214,-0.5175,-0.5399,-0.5404,-0.523,-0.5085,-0.5228,-0.5363,-0.5459,-0.5067,-0.5412,-0.5636,-0.5715,-0.6742,-0.6733,-0.6628,-0.7255,-0.8317,-0.9828,-1.0581,-1.1444,-1.2544,-1.1756,-1.1158,-1.2181,-1.2772,-1.2707,-1.2245,-1.2138,-1.2159,-1.2009,-1.2085,-1.2209,-1.2219,-1.2209,-1.2209,-1.2219,-1.2219,-1.2219,-1.2219,-1.2219,-1.2219,-1.2172,-1.1742,-1.1122,-0.9647,-0.8838,-0.727,0.5675,0.2882,0.2416,0.2035,0.1664,0.049,0.0,0.0,0.0,0.0,0.0,0.0,0.0,0.0,0.0,0.0,0.0,0.0,-0.0162,-0.0376,-0.0107,-0.0161,-0.0376,-0.0107,0.0,0.0,0.0,0.0,0.0,0.0,0.0,0.0,0.0,0.0,0.0,0.0,0.0,0.0,0.0,0.0,0.0,0.0,-0.0101,-0.0246,-0.0291,-0.0333,-0.0554,-0.0541,-0.1023,-0.2177,-0.2186,-0.2623,-0.3611,-0.4546,-0.5391,-0.6227,-0.6167,-0.6635,-0.7763,-0.6854,-0.674,-0.7824,-0.8051,-0.8527,-0.9339,-0.7456,-0.6241,-0.6192,-0.6274,-0.633,-0.6286,-0.5358,-0.4678,-0.4675,-0.3933,-0.3368,-0.343,-0.3833,-0.4295,-0.4678,-0.5866,-0.6809,-0.7089,-0.9198,-1.0899,-1.2103,-1.2968,-1.4168,-1.5108,-1.4293,-1.3516,-1.3656,-1.3537,-1.314,-1.2544,-1.2466,-1.2389,-1.2056,-1.2078,-1.2143,-1.2192,-1.2129,-1.2154,-1.2209,-1.2219,-1.2219,-1.2219,-1.2219,-1.2219,-1.2219,-1.2219,-1.1647,-1.0933,-0.9978,-0.765,0.2848,0.0755,0.0248,0.0,0.0,0.0,0.0,0.0,0.0,0.0,0.0,0.0,0.0,0.0,0.0,0.0,0.0,0.0,0.0,0.0,0.0,0.0,0.0,0.0,0.0,0.0,0.0,0.0,0.0,0.0,0.0,0.0,0.0,0.0,0.0,0.0,0.0,0.0,-0.0526,-0.0522,0.0,0.0,-0.0207,-0.0765,-0.0763,-0.0753,-0.0785,-0.1259,-0.2067,-0.3111,-0.3601,-0.4594,-0.6193,-0.6684,-0.7564,-0.8891,-0.825,-0.8334,-0.9755,-0.8807,-0.8648,-1.0012,-1.0339,-1.1035,-1.2083,-0.9757,-0.7835,-0.7769,-0.8028,-0.8067,-0.7984,-0.6684,-0.5497,-0.5499,-0.452,-0.4477,-0.403,-0.4384,-0.4837,-0.5441,-0.6897,-0.8346,-0.9051,-1.1509,-1.3461,-1.3848,-1.4953,-1.581,-1.5888,-1.571,-1.5208,-1.4626,-1.4145,-1.3657,-1.2981,-1.2795,-1.2625,-1.2151,-1.1996,-1.2067,-1.2143,-1.2116,-1.2047,-1.2187,-1.2219,-1.2219,-1.2219,-1.2219,-1.2219,-1.2219,-1.2219,-1.2172,-1.1983,-1.098,-0.8838,0.0,0.0125,0.0,0.0,0.0,0.0,0.0,0.0,0.0,0.0,0.0,0.0,0.0,0.0,0.0,0.0,0.0,0.0,0.0,0.0,0.0,0.0,0.0,0.0,0.0,0.0,0.0,0.0,0.0,0.0,0.0,0.0,0.0,0.0,0.0,0.0,0.0,0.0,-0.202,-0.2071,0.0,0.0,-0.1005,-0.3034,-0.3113,-0.3084,-0.3147,-0.5093,-0.5221,-0.3567,-0.5218,-0.6314,-0.6612,-0.8171,-0.9268,-0.9571,-1.0921,-1.1984,-1.2159,-1.2316,-1.2269,-1.2669,-1.2635,-1.2746,-1.2982,-1.2624,-1.2329,-1.1975,-1.2198,-1.209,-1.2443,-1.1888,-1.1474,-1.156,-1.1557,-1.2679,-1.2313,-1.3716,-1.4071,-1.4121,-1.3467,-1.5074,-1.4321,-1.5012,-1.5559,-1.5427,-1.5549,-1.586,-1.586,-1.5594,-1.5397,-1.52,-1.4915,-1.4219,-1.349,-1.2899,-1.272,-1.2472,-1.2065,-1.1979,-1.2058,-1.211,-1.2025,-1.2181,-1.2219,-1.2219,-1.2219,-1.2219,-1.2219,-1.2219,-1.2219,-1.2219,-1.2172,-1.1931,-1.0692,0.0,0.0,0.0,0.0,0.0,0.0,0.0,0.0,0.0,0.0,0.0,0.0,0.0,0.0,0.0,0.0,0.0,0.0,-0.0223,-0.05,-0.0553,-0.0551,-0.0551,-0.0551,-0.0386,0.0,0.0,0.0,0.0,0.0,0.0,0.0,0.0,0.0,0.0,0.0,-0.0639,-0.2022,-0.2927,-0.3564,-0.3989,-0.4042,-0.446,-0.529,-0.5426,-0.5393,-0.5503,-0.6332,-0.6894,-0.7184,-0.803,-0.8985,-1.0179,-1.0896,-1.1318,-1.1426,-1.2188,-1.2721,-1.2846,-1.3004,-1.3118,-1.3167,-1.3238,-1.3221,-1.3091,-1.3129,-1.3096,-1.296,-1.2994,-1.2988,-1.3002,-1.2191,-1.1661,-1.1802,-1.128,-1.1009,-1.1109,-1.1714,-1.1963,-1.2063,-1.3317,-1.4265,-1.4402,-1.5245,-1.5815,-1.5832,-1.5696,-1.5635,-1.5689,-1.5466,-1.5337,-1.533,-1.5147,-1.4744,-1.4041,-1.3594,-1.315,-1.2679,-1.2179,-1.1895,-1.2039,-1.1966,-1.1944,-1.2129,-1.2209,-1.2219,-1.2219,-1.2219,-1.2219,-1.2219,-1.2219,-1.2219,-1.2219,-1.2408,-1.2072,0.0,0.0,0.0,0.0,0.0,0.0,0.0,0.0,0.0,0.0,0.0,0.0,-0.0119,-0.0234,-0.0058,0.0,0.0,-0.0171,-0.0452,-0.0903,-0.1064,-0.1172,-0.1116,-0.0949,-0.0669,-0.0278,0.0,0.0,0.0,0.0,0.0,0.0,-0.0651,-0.0974,-0.1025,-0.1503,-0.273,-0.4325,-0.4973,-0.6204,-0.763,-0.8425,-0.8415,-0.7812,-0.7759,-0.7734,-0.774,-0.8314,-0.9012,-0.9919,-1.0402,-1.1373,-1.2783,-1.2776,-1.2705,-1.2754,-1.2873,-1.2988,-1.3107,-1.3221,-1.3251,-1.3284,-1.3343,-1.3352,-1.3211,-1.3183,-1.3151,-1.312,-1.3078,-1.3156,-1.3176,-1.216,-1.1567,-1.1806,-1.1069,-1.0604,-1.1004,-1.1209,-1.1714,-1.1614,-1.3367,-1.3749,-1.395,-1.4939,-1.5757,-1.5614,-1.5527,-1.5438,-1.552,-1.5364,-1.5228,-1.533,-1.5248,-1.5026,-1.4618,-1.4067,-1.357,-1.3102,-1.2506,-1.1976,-1.208,-1.1995,-1.1868,-1.2053,-1.2165,-1.2219,-1.2219,-1.2219,-1.2256,-1.2261,-1.2308,-1.2403,-1.2456,-1.2786,-1.2739,0.0,0.0,0.0,0.0,0.0,0.0,0.0,0.0,0.0,0.0,0.0,0.0,-0.03,-0.0832,-0.0354,0.0,0.0,-0.0634,-0.0918,-0.1032,-0.1537,-0.1758,-0.1702,-0.1192,-0.0904,-0.073,0.0,0.0,0.0,0.0,0.0,0.0,-0.2193,-0.3317,-0.3569,-0.5372,-0.6778,-0.7001,-0.8776,-1.0138,-1.0446,-1.2268,-1.2113,-1.0273,-1.0037,-1.0033,-1.024,-1.2103,-1.2322,-1.0117,-1.1971,-1.3132,-1.3147,-1.3042,-1.2982,-1.2912,-1.2993,-1.3113,-1.3176,-1.3289,-1.345,-1.3542,-1.3482,-1.3412,-1.3352,-1.3205,-1.3096,-1.3114,-1.3306,-1.3555,-1.3881,-1.3569,-1.3813,-1.4736,-1.495,-1.4925,-1.5472,-1.5074,-1.5728,-1.5529,-1.5529,-1.5513,-1.5584,-1.5639,-1.5621,-1.556,-1.5499,-1.5432,-1.5438,-1.5309,-1.5228,-1.5215,-1.5248,-1.514,-1.4965,-1.4427,-1.404,-1.3605,-1.2926,-1.2298,-1.221,-1.2191,-1.208,-1.2012,-1.2187,-1.2253,-1.2203,-1.2256,-1.2334,-1.2422,-1.2705,-1.2804,-1.2875,-1.3352,-1.3299,0.0,0.0,0.0,0.0,0.0,0.0,0.0,0.0,0.0,-0.0242,-0.0542,-0.0603,-0.0958,-0.1538,-0.1305,-0.1241,-0.1231,-0.1454,-0.1738,-0.2084,-0.2356,-0.2397,-0.2385,-0.2158,-0.1589,-0.0963,-0.0681,-0.0396,0.0,0.0,-0.0832,-0.2213,-0.3145,-0.4286,-0.5751,-0.6714,-0.7837,-0.9233,-1.0236,-1.1266,-1.259,-1.3513,-1.3492,-1.2687,-1.2446,-1.2377,-1.2377,-1.318,-1.3158,-1.2322,-1.3043,-1.3333,-1.3292,-1.3151,-1.3086,-1.3107,-1.3086,-1.3156,-1.3278,-1.3343,-1.3477,-1.3586,-1.3569,-1.3461,-1.3278,-1.317,-1.3118,-1.3067,-1.3311,-1.3714,-1.4201,-1.4385,-1.4613,-1.5187,-1.5532,-1.579,-1.6006,-1.6133,-1.6133,-1.6133,-1.6126,-1.5988,-1.5798,-1.5669,-1.5553,-1.5506,-1.5445,-1.5459,-1.5506,-1.5425,-1.5309,-1.5303,-1.5248,-1.5167,-1.5126,-1.4652,-1.4195,-1.3878,-1.342,-1.3035,-1.2823,-1.2448,-1.2266,-1.2346,-1.2402,-1.2435,-1.2499,-1.2685,-1.269,-1.2958,-1.3198,-1.3292,-1.3387,-1.3817,-1.377,0.0,0.0,0.0,0.0,0.0,0.0,-0.0123,-0.0307,-0.0306,-0.0607,-0.1144,-0.1205,-0.1555,-0.2127,-0.2198,-0.2315,-0.2475,-0.2284,-0.2396,-0.2803,-0.3014,-0.3051,-0.298,-0.2805,-0.2287,-0.1541,-0.1084,-0.0681,-0.045,-0.09,-0.2017,-0.3501,-0.4995,-0.6648,-0.8174,-0.9027,-1.0324,-1.1509,-1.1745,-1.2574,-1.3912,-1.407,-1.3993,-1.3993,-1.3798,-1.3716,-1.3716,-1.3722,-1.37,-1.3662,-1.358,-1.3504,-1.3417,-1.3232,-1.3156,-1.3165,-1.3167,-1.3211,-1.3333,-1.3423,-1.3477,-1.3586,-1.3564,-1.3403,-1.3208,-1.3359,-1.3339,-1.3318,-1.3723,-1.4231,-1.4595,-1.4905,-1.5172,-1.5457,-1.579,-1.5967,-1.6062,-1.6133,-1.616,-1.6137,-1.6062,-1.5934,-1.5811,-1.5703,-1.556,-1.5445,-1.5445,-1.5466,-1.552,-1.5438,-1.5337,-1.533,-1.5242,-1.5187,-1.516,-1.4899,-1.4646,-1.4343,-1.3867,-1.3538,-1.3274,-1.2876,-1.2605,-1.2687,-1.2683,-1.2706,-1.2855,-1.3038,-1.3248,-1.349,-1.3644,-1.374,-1.399,-1.4335,-1.4046,0.0,0.0,0.0,0.0,0.0,0.0,-0.0372,-0.0868,-0.0921,-0.128,-0.1882,-0.1876,-0.2276,-0.2723,-0.2793,-0.3147,-0.3421,-0.3061,-0.2824,-0.294,-0.3389,-0.3608,-0.3601,-0.3136,-0.2777,-0.2588,-0.161,-0.1084,-0.1238,-0.2882,-0.395,-0.4705,-0.8215,-1.0083,-1.0608,-1.2574,-1.3862,-1.3924,-1.3872,-1.4099,-1.4102,-1.4107,-1.4124,-1.4064,-1.4042,-1.4037,-1.4026,-1.4004,-1.3928,-1.3787,-1.377,-1.3667,-1.3403,-1.3262,-1.3197,-1.3213,-1.3197,-1.3251,-1.3406,-1.3433,-1.3493,-1.3569,-1.3504,-1.3458,-1.3436,-1.3735,-1.3874,-1.3898,-1.4477,-1.5082,-1.5125,-1.5413,-1.5693,-1.6022,-1.6029,-1.6035,-1.6119,-1.6133,-1.6137,-1.6212,-1.6076,-1.5996,-1.5967,-1.5852,-1.5648,-1.5635,-1.5547,-1.5466,-1.5486,-1.5398,-1.5255,-1.5215,-1.5262,-1.5296,-1.5242,-1.5174,-1.5092,-1.4891,-1.4349,-1.3887,-1.3777,-1.343,-1.3128,-1.3138,-1.3087,-1.315,-1.3387,-1.3581,-1.3636,-1.3829,-1.4005,-1.4268,-1.4498,-1.4617,-1.414,0.0,0.0,0.0,0.0,0.0,-0.0431,-0.0736,-0.0983,-0.1345,-0.1948,-0.2486,-0.255,-0.2954,-0.3396,-0.3515,-0.3621,-0.3773,-0.3536,-0.3476,-0.3534,-0.3702,-0.3745,-0.3672,-0.3493,-0.3197,-0.3073,-0.3763,-0.3858,-0.3882,-0.5762,-0.7369,-0.8695,-1.0007,-1.1674,-1.3001,-1.4044,-1.4423,-1.4412,-1.4504,-1.4504,-1.4412,-1.4466,-1.4445,-1.4358,-1.4462,-1.4473,-1.433,-1.4151,-1.3966,-1.3798,-1.3787,-1.3711,-1.3564,-1.3381,-1.3406,-1.3471,-1.3406,-1.3417,-1.3526,-1.3542,-1.3558,-1.3644,-1.388,-1.4017,-1.4013,-1.4416,-1.4641,-1.4578,-1.5132,-1.5518,-1.5593,-1.5841,-1.6019,-1.594,-1.5976,-1.6044,-1.6076,-1.6139,-1.6103,-1.6151,-1.6157,-1.6103,-1.603,-1.5879,-1.5886,-1.5798,-1.573,-1.5724,-1.5588,-1.5581,-1.5588,-1.5398,-1.5432,-1.5425,-1.5371,-1.5316,-1.5248,-1.5133,-1.4738,-1.4355,-1.4211,-1.4003,-1.3745,-1.3591,-1.3572,-1.3636,-1.3913,-1.4062,-1.4075,-1.4323,-1.4587,-1.4766,-1.4912,-1.4751,-1.4375,0.0,0.0,0.0,-0.0124,-0.0371,-0.0796,-0.1219,-0.1641,-0.206,-0.2595,-0.3128,-0.3248,-0.3416,-0.3745,-0.3799,-0.379,-0.3831,-0.3831,-0.3831,-0.3831,-0.3831,-0.376,-0.3744,-0.3744,-0.42,-0.4657,-0.5535,-0.626,-0.6768,-0.8647,-1.0193,-1.1082,-1.1875,-1.2902,-1.4343,-1.4526,-1.461,-1.4808,-1.501,-1.5072,-1.5118,-1.5067,-1.4981,-1.4926,-1.4805,-1.467,-1.4499,-1.4276,-1.4086,-1.3934,-1.3841,-1.3749,-1.3673,-1.3564,-1.3526,-1.3569,-1.3542,-1.3526,-1.3591,-1.3597,-1.3713,-1.3924,-1.4188,-1.4447,-1.4655,-1.5093,-1.5337,-1.5276,-1.5699,-1.6019,-1.6044,-1.6195,-1.6293,-1.613,-1.6119,-1.6069,-1.6151,-1.6164,-1.6171,-1.6191,-1.6198,-1.6144,-1.6096,-1.6071,-1.6056,-1.6003,-1.5935,-1.5888,-1.575,-1.5737,-1.5635,-1.556,-1.556,-1.5492,-1.5451,-1.5404,-1.5398,-1.5276,-1.5073,-1.4851,-1.4644,-1.4433,-1.4178,-1.4172,-1.412,-1.4172,-1.44,-1.4432,-1.4492,-1.4841,-1.5037,-1.5052,-1.504,-1.5127,-1.4852,0.0,0.0,0.0,-0.0369,-0.0855,-0.1036,-0.1758,-0.2712,-0.2874,-0.3165,-0.3634,-0.3745,-0.3786,-0.3778,-0.3842,-0.3839,-0.3831,-0.3831,-0.3831,-0.3831,-0.3831,-0.3827,-0.3767,-0.4177,-0.5331,-0.682,-0.7432,-0.8495,-1.0219,-1.1715,-1.2198,-1.2626,-1.3891,-1.4626,-1.4913,-1.4838,-1.5146,-1.5485,-1.5623,-1.5913,-1.6195,-1.5901,-1.5669,-1.5658,-1.5219,-1.489,-1.4712,-1.4512,-1.4341,-1.414,-1.3917,-1.3809,-1.3776,-1.3684,-1.364,-1.3656,-1.3629,-1.3687,-1.3687,-1.3821,-1.4027,-1.4462,-1.4651,-1.468,-1.5231,-1.5664,-1.5963,-1.5853,-1.6239,-1.6527,-1.6527,-1.6493,-1.6524,-1.651,-1.6368,-1.6313,-1.6313,-1.632,-1.6307,-1.6279,-1.6198,-1.6137,-1.6239,-1.6151,-1.6117,-1.6076,-1.603,-1.5949,-1.5915,-1.5818,-1.5654,-1.5627,-1.5703,-1.5689,-1.5669,-1.5615,-1.556,-1.5452,-1.5323,-1.5194,-1.5018,-1.4783,-1.4531,-1.4569,-1.461,-1.4655,-1.4708,-1.476,-1.4814,-1.4964,-1.5045,-1.5119,-1.5166,-1.5181,-1.5248,0.0,0.0,-0.0491,-0.0734,-0.1036,-0.187,-0.2458,-0.2871,-0.3343,-0.3636,-0.3817,-0.3832,-0.3818,-0.3806,-0.3802,-0.3793,-0.3835,-0.3831,-0.3831,-0.3831,-0.3831,-0.3831,-0.4301,-0.5709,-0.6873,-0.8028,-1.084,-1.2835,-1.3131,-1.4968,-1.5682,-1.535,-1.5635,-1.6035,-1.6056,-1.6082,-1.622,-1.638,-1.6489,-1.6546,-1.6621,-1.6598,-1.6507,-1.6428,-1.6328,-1.5917,-1.5316,-1.468,-1.4303,-1.4146,-1.3999,-1.3966,-1.3912,-1.3928,-1.3906,-1.3895,-1.3911,-1.4073,-1.4395,-1.4503,-1.4777,-1.5314,-1.5597,-1.5908,-1.6035,-1.6453,-1.6649,-1.6706,-1.6811,-1.6849,-1.6836,-1.6702,-1.6648,-1.6621,-1.6564,-1.6476,-1.6469,-1.6463,-1.6429,-1.6341,-1.6361,-1.632,-1.6225,-1.6225,-1.6246,-1.6225,-1.6137,-1.6085,-1.6035,-1.5995,-1.592,-1.5872,-1.5915,-1.5908,-1.5839,-1.5833,-1.5716,-1.5573,-1.5485,-1.5418,-1.5276,-1.5039,-1.4856,-1.4721,-1.4797,-1.4877,-1.4923,-1.4923,-1.5018,-1.5153,-1.5167,-1.5215,-1.5215,-1.5262,-1.5343,0.0,0.0,-0.0676,-0.11,-0.1396,-0.2406,-0.2986,-0.3265,-0.362,-0.3798,-0.3802,-0.3814,-0.3813,-0.3798,-0.3797,-0.3788,-0.3832,-0.3844,-0.3842,-0.4006,-0.4947,-0.5415,-0.5766,-0.7056,-0.8517,-1.0856,-1.3547,-1.5152,-1.5965,-1.7267,-1.7377,-1.6969,-1.6797,-1.6676,-1.6631,-1.6731,-1.6922,-1.707,-1.7228,-1.7292,-1.7461,-1.735,-1.7253,-1.7088,-1.7027,-1.6601,-1.5993,-1.5449,-1.4898,-1.4387,-1.4102,-1.4031,-1.4031,-1.4031,-1.4118,-1.4291,-1.4379,-1.4668,-1.5055,-1.5206,-1.5476,-1.595,-1.6365,-1.6607,-1.6795,-1.7049,-1.7154,-1.7073,-1.7073,-1.7039,-1.6978,-1.6897,-1.6849,-1.6836,-1.6768,-1.6686,-1.6574,-1.6567,-1.6493,-1.6469,-1.6456,-1.6469,-1.6279,-1.6347,-1.6381,-1.6388,-1.6341,-1.6293,-1.6273,-1.6218,-1.6164,-1.6103,-1.6085,-1.6008,-1.5974,-1.592,-1.5962,-1.5825,-1.5757,-1.5696,-1.5486,-1.5296,-1.5201,-1.5079,-1.5053,-1.5066,-1.5153,-1.5201,-1.5316,-1.5398,-1.5371,-1.5282,-1.5261,-1.4947,-1.5061,0.0,-0.0185,-0.0862,-0.1526,-0.2051,-0.2708,-0.3281,-0.372,-0.3775,-0.3832,-0.3834,-0.3832,-0.3838,-0.3831,-0.3837,-0.3949,-0.4302,-0.4559,-0.4793,-0.56,-0.6939,-0.811,-0.8811,-0.9045,-1.1032,-1.3956,-1.5068,-1.6645,-1.7781,-1.7935,-1.7832,-1.7743,-1.7281,-1.7075,-1.7241,-1.7233,-1.7357,-1.7697,-1.7826,-1.8058,-1.8216,-1.8058,-1.7923,-1.7807,-1.7305,-1.6993,-1.6611,-1.6276,-1.5762,-1.4642,-1.4415,-1.4498,-1.4487,-1.442,-1.4601,-1.4928,-1.515,-1.5358,-1.5796,-1.5905,-1.6079,-1.6627,-1.677,-1.69,-1.7271,-1.7345,-1.7311,-1.7175,-1.7209,-1.7154,-1.7039,-1.6992,-1.6958,-1.6951,-1.6965,-1.6931,-1.6763,-1.6723,-1.6662,-1.6571,-1.6551,-1.6544,-1.6524,-1.6524,-1.6524,-1.6537,-1.6497,-1.6456,-1.6429,-1.6388,-1.6347,-1.6313,-1.6232,-1.6151,-1.6103,-1.6049,-1.6069,-1.6049,-1.5988,-1.5886,-1.5655,-1.5506,-1.5506,-1.5418,-1.533,-1.535,-1.5431,-1.5506,-1.5553,-1.5235,-1.5009,-1.5048,-1.5045,-1.4517,-1.4415,-0.0734,-0.0795,-0.1932,-0.2459,-0.2688,-0.3326,-0.3666,-0.3831,-0.3831,-0.3831,-0.3831,-0.3831,-0.389,-0.3889,-0.4124,-0.477,-0.6587,-0.6839,-0.7652,-0.9751,-1.0041,-1.1674,-1.2901,-1.3197,-1.3897,-1.554,-1.7123,-1.8233,-1.8626,-1.8633,-1.8548,-1.851,-1.8336,-1.8323,-1.8291,-1.824,-1.8407,-1.8548,-1.8575,-1.8568,-1.8657,-1.8612,-1.8523,-1.8458,-1.7852,-1.748,-1.7225,-1.6808,-1.6325,-1.6119,-1.6044,-1.5976,-1.5833,-1.5878,-1.5904,-1.6031,-1.6038,-1.6237,-1.6694,-1.6813,-1.694,-1.7415,-1.7431,-1.7432,-1.748,-1.75,-1.7372,-1.7256,-1.7297,-1.7297,-1.7148,-1.7039,-1.7005,-1.7012,-1.7073,-1.708,-1.6965,-1.6931,-1.6863,-1.6696,-1.6642,-1.6608,-1.65,-1.6558,-1.6592,-1.6601,-1.6601,-1.6605,-1.6578,-1.6506,-1.6466,-1.6476,-1.6402,-1.632,-1.63,-1.6252,-1.6246,-1.6246,-1.6198,-1.6103,-1.5866,-1.5716,-1.5716,-1.5621,-1.5553,-1.5614,-1.5715,-1.5648,-1.5654,-1.5165,-1.444,-1.3913,-1.3543,-1.3429,-1.3172,-0.091,-0.1031,-0.2286,-0.2812,-0.2921,-0.3503,-0.3844,-0.3832,-0.3831,-0.3831,-0.3831,-0.3831,-0.4419,-0.5474,-0.5649,-0.6939,-0.8811,-0.9338,-1.0649,-1.2542,-1.3109,-1.4427,-1.6296,-1.6768,-1.6826,-1.7012,-1.8079,-1.883,-1.881,-1.8877,-1.8905,-1.8841,-1.8888,-1.8758,-1.8827,-1.882,-1.8762,-1.8755,-1.882,-1.882,-1.882,-1.882,-1.882,-1.8755,-1.8392,-1.8101,-1.7951,-1.7792,-1.7601,-1.7576,-1.7653,-1.7339,-1.6711,-1.658,-1.6669,-1.6865,-1.6821,-1.6988,-1.7357,-1.7477,-1.7555,-1.7962,-1.7833,-1.7819,-1.7799,-1.7717,-1.7568,-1.7467,-1.746,-1.7392,-1.7222,-1.7141,-1.7087,-1.7093,-1.7148,-1.7154,-1.71,-1.708,-1.7026,-1.6904,-1.6856,-1.6822,-1.6768,-1.67,-1.6727,-1.6829,-1.6836,-1.6795,-1.6768,-1.6741,-1.6615,-1.656,-1.6544,-1.6497,-1.649,-1.6463,-1.6429,-1.6422,-1.6388,-1.6286,-1.6123,-1.6008,-1.5927,-1.5845,-1.5771,-1.5927,-1.5995,-1.5857,-1.5221,-1.4298,-1.3356,-1.2442,-1.1699,-1.1387,-1.1115,-0.1084,-0.1325,-0.2526,-0.2994,-0.3038,-0.357,-0.3793,-0.3832,-0.4242,-0.4711,-0.4594,-0.4652,-0.6645,-0.7758,-0.8051,-0.9572,-1.1445,-1.2677,-1.4113,-1.5401,-1.5632,-1.6657,-1.8117,-1.8407,-1.844,-1.881,-1.8911,-1.8905,-1.8905,-1.9013,-1.8986,-1.885,-1.8936,-1.8857,-1.8834,-1.882,-1.882,-1.882,-1.8803,-1.8847,-1.8841,-1.8847,-1.8861,-1.8755,-1.8749,-1.8636,-1.8518,-1.8552,-1.8684,-1.8834,-1.9,-1.8404,-1.7562,-1.7033,-1.7054,-1.7631,-1.7591,-1.7642,-1.786,-1.7926,-1.7968,-1.8104,-1.7989,-1.7982,-1.8043,-1.7968,-1.7812,-1.769,-1.7616,-1.75,-1.729,-1.7243,-1.7229,-1.7236,-1.7243,-1.7249,-1.7229,-1.7236,-1.7195,-1.6998,-1.6937,-1.691,-1.6924,-1.6897,-1.6951,-1.6978,-1.6978,-1.6971,-1.6937,-1.6904,-1.6815,-1.6781,-1.6734,-1.6714,-1.6707,-1.668,-1.6646,-1.6578,-1.6558,-1.6463,-1.6354,-1.6273,-1.6157,-1.5995,-1.6024,-1.609,-1.5781,-1.5185,-1.4414,-1.3352,-1.173,-1.0147,-0.9541,-0.9299,-0.8932,-0.2031,-0.2568,-0.3322,-0.3665,-0.3662,-0.3779,-0.4012,-0.4183,-0.6178,-0.688,-0.7174,-0.9045,-0.9924,-1.0626,-1.0681,-1.2083,-1.4311,-1.5895,-1.7251,-1.7878,-1.7846,-1.8434,-1.8615,-1.8875,-1.8909,-1.8932,-1.9,-1.8979,-1.8966,-1.8993,-1.9047,-1.8952,-1.8891,-1.8881,-1.8854,-1.8827,-1.8861,-1.8895,-1.8898,-1.8905,-1.885,-1.8891,-1.8877,-1.8847,-1.8834,-1.8755,-1.8735,-1.8742,-1.882,-1.8827,-1.8868,-1.8815,-1.8673,-1.8621,-1.8607,-1.8519,-1.8416,-1.8292,-1.8328,-1.8172,-1.8158,-1.8206,-1.8145,-1.8131,-1.8192,-1.8131,-1.7962,-1.7806,-1.7629,-1.7494,-1.7514,-1.7446,-1.7392,-1.7405,-1.7406,-1.7494,-1.7379,-1.7433,-1.7378,-1.7107,-1.7032,-1.6978,-1.6978,-1.6978,-1.6978,-1.6978,-1.6978,-1.6978,-1.6965,-1.6958,-1.6931,-1.6924,-1.6937,-1.6931,-1.6924,-1.6897,-1.6856,-1.6748,-1.67,-1.6632,-1.6544,-1.6452,-1.6337,-1.5653,-1.5691,-1.5967,-1.5475,-1.4569,-1.3256,-1.1951,-0.9902,-0.7773,-0.7381,-0.709,-0.6331,-0.2252,-0.2842,-0.3467,-0.4518,-0.5584,-0.5741,-0.6504,-0.7755,-0.8928,-0.9455,-0.9806,-1.0798,-1.2083,-1.2906,-1.3197,-1.4602,-1.6826,-1.8059,-1.882,-1.8827,-1.8895,-1.8884,-1.8949,-1.8938,-1.8972,-1.902,-1.9054,-1.9088,-1.9122,-1.9284,-1.9183,-1.9047,-1.9047,-1.904,-1.8938,-1.8966,-1.8972,-1.9006,-1.9054,-1.9067,-1.8986,-1.9067,-1.8979,-1.8837,-1.883,-1.8837,-1.8841,-1.885,-1.8877,-1.8911,-1.9033,-1.9169,-1.9291,-1.9352,-1.9298,-1.9027,-1.8796,-1.8586,-1.8457,-1.8274,-1.8287,-1.8389,-1.8294,-1.8247,-1.826,-1.8172,-1.803,-1.7929,-1.7785,-1.7643,-1.7582,-1.7527,-1.7494,-1.7548,-1.7554,-1.7554,-1.7527,-1.7561,-1.746,-1.7236,-1.7168,-1.7093,-1.6978,-1.6978,-1.6978,-1.6978,-1.6978,-1.6978,-1.6978,-1.6978,-1.6978,-1.6978,-1.6978,-1.6978,-1.6978,-1.6971,-1.6965,-1.689,-1.6725,-1.6657,-1.6358,-1.6202,-1.5359,-1.4446,-1.483,-1.5177,-1.454,-1.3413,-1.2027,-1.0463,-0.8487,-0.6654,-0.5549,-0.4744,-0.4412,-0.3169,-0.3806,-0.4711,-0.6285,-0.7999,-0.8205,-0.9257,-1.1058,-1.1787,-1.2029,-1.2088,-1.2789,-1.4131,-1.5359,-1.6005,-1.6884,-1.8762,-1.8762,-1.882,-1.8847,-1.8963,-1.8986,-1.902,-1.9081,-1.9101,-1.9074,-1.9074,-1.9162,-1.9169,-1.9352,-1.9305,-1.9183,-1.9291,-1.9284,-1.9094,-1.9115,-1.9189,-1.921,-1.9244,-1.9244,-1.921,-1.9162,-1.904,-1.8796,-1.8884,-1.8884,-1.8902,-1.8864,-1.8966,-1.9047,-1.9183,-1.9339,-1.9434,-1.9549,-1.944,-1.9108,-1.8816,-1.862,-1.8504,-1.8437,-1.8491,-1.8626,-1.8491,-1.8437,-1.8369,-1.828,-1.8077,-1.7976,-1.7949,-1.7833,-1.7738,-1.7642,-1.7636,-1.769,-1.769,-1.769,-1.7642,-1.7636,-1.7582,-1.7467,-1.7351,-1.7222,-1.7114,-1.7046,-1.7053,-1.6985,-1.6978,-1.6978,-1.6978,-1.6978,-1.6978,-1.6978,-1.6978,-1.6978,-1.6978,-1.6978,-1.6971,-1.6944,-1.676,-1.6563,-1.6119,-1.5728,-1.4474,-1.3009,-1.317,-1.3365,-1.2791,-1.1815,-1.0027,-0.8264,-0.6838,-0.5631,-0.4628,-0.4164,-0.3911,-0.6195,-0.6963,-0.901,-1.0158,-1.041,-1.0514,-1.078,-1.1502,-1.3663,-1.4539,-1.4687,-1.6645,-1.7697,-1.8001,-1.8117,-1.8465,-1.8762,-1.882,-1.882,-1.8841,-1.8918,-1.8993,-1.9,-1.9,-1.9101,-1.9108,-1.9067,-1.902,-1.9074,-1.921,-1.9264,-1.9203,-1.923,-1.921,-1.9203,-1.9244,-1.9196,-1.9237,-1.9345,-1.9339,-1.921,-1.9094,-1.8952,-1.8823,-1.8789,-1.8843,-1.8891,-1.8884,-1.8925,-1.9122,-1.9081,-1.9189,-1.9373,-1.944,-1.9447,-1.9345,-1.9217,-1.9061,-1.8884,-1.8755,-1.8728,-1.8823,-1.8769,-1.8779,-1.8606,-1.8423,-1.8186,-1.7949,-1.7989,-1.8009,-1.7907,-1.7853,-1.7902,-1.7846,-1.7853,-1.7846,-1.784,-1.7779,-1.7717,-1.7684,-1.7555,-1.7392,-1.7256,-1.7188,-1.7127,-1.7046,-1.6985,-1.6998,-1.6985,-1.6992,-1.6978,-1.6978,-1.6978,-1.6978,-1.6978,-1.6978,-1.6446,-1.661,-1.6255,-1.5881,-1.4715,-1.3708,-1.2565,-1.1517,-1.157,-1.084,-0.9771,-0.8654,-0.7416,-0.6409,-0.5401,-0.4553,-0.3741,-0.3524,-0.3516,-1.0102,-0.9383,-1.0154,-1.1477,-1.2853,-1.2799,-1.3695,-1.5162,-1.6263,-1.6819,-1.7014,-1.8024,-1.8674,-1.8786,-1.882,-1.882,-1.882,-1.882,-1.882,-1.8847,-1.8905,-1.8986,-1.904,-1.9142,-1.9237,-1.9094,-1.9081,-1.9,-1.902,-1.9156,-1.9298,-1.923,-1.9366,-1.9427,-1.9352,-1.942,-1.9461,-1.9488,-1.9508,-1.9434,-1.925,-1.9128,-1.9,-1.8782,-1.8827,-1.8823,-1.8864,-1.8911,-1.8932,-1.9101,-1.9135,-1.9284,-1.9427,-1.9508,-1.9563,-1.9549,-1.9413,-1.9223,-1.9013,-1.8932,-1.8938,-1.8952,-1.8918,-1.8857,-1.8807,-1.8565,-1.8362,-1.8152,-1.826,-1.8247,-1.8145,-1.8124,-1.8124,-1.8104,-1.803,-1.8002,-1.7968,-1.788,-1.7826,-1.7792,-1.7765,-1.7629,-1.7494,-1.7419,-1.7344,-1.7236,-1.7182,-1.7182,-1.7107,-1.7026,-1.7005,-1.6978,-1.6978,-1.6978,-1.6978,-1.6926,-1.5493,-1.5196,-1.4645,-1.3955,-1.2379,-1.1215,-1.0281,-0.9315,-0.8754,-0.7862,-0.6762,-0.6552,-0.6354,-0.5336,-0.4137,-0.379,-0.349,-0.3564,-0.3558,-1.3263,-1.241,-1.2135,-1.3343,-1.524,-1.5043,-1.6126,-1.7997,-1.8026,-1.8109,-1.8247,-1.8342,-1.8457,-1.862,-1.864,-1.8667,-1.882,-1.882,-1.882,-1.881,-1.8898,-1.8979,-1.9054,-1.921,-1.9237,-1.9033,-1.9088,-1.902,-1.9006,-1.9101,-1.923,-1.9217,-1.9481,-1.9563,-1.9549,-1.9569,-1.9684,-1.9684,-1.9698,-1.9515,-1.9318,-1.9264,-1.9108,-1.9017,-1.8936,-1.8891,-1.8938,-1.8979,-1.9047,-1.923,-1.9312,-1.942,-1.9508,-1.959,-1.9698,-1.9684,-1.9529,-1.9386,-1.9196,-1.9081,-1.9033,-1.8993,-1.8925,-1.883,-1.8701,-1.8586,-1.8413,-1.8294,-1.8416,-1.8359,-1.8355,-1.8301,-1.828,-1.824,-1.8199,-1.8172,-1.8124,-1.8023,-1.7996,-1.8023,-1.7989,-1.7935,-1.7806,-1.769,-1.7575,-1.7446,-1.7392,-1.7365,-1.721,-1.7035,-1.6935,-1.6816,-1.5838,-1.5767,-1.5657,-1.5447,-1.444,-1.3592,-1.3034,-1.1853,-1.0106,-0.9118,-0.8335,-0.7351,-0.6365,-0.564,-0.5027,-0.5303,-0.5474,-0.4578,-0.3783,-0.3643,-0.3501,-0.3579,-0.3602,-1.4938,-1.6933,-1.6846,-1.6805,-1.7135,-1.7337,-1.7512,-1.7901,-1.8009,-1.8057,-1.8084,-1.8023,-1.8145,-1.8321,-1.8437,-1.8545,-1.8749,-1.882,-1.882,-1.8868,-1.8905,-1.8952,-1.9027,-1.9108,-1.9196,-1.9122,-1.9081,-1.9013,-1.8986,-1.9033,-1.9142,-1.9223,-1.9495,-1.961,-1.9698,-1.9705,-1.9725,-1.9725,-1.9725,-1.9583,-1.944,-1.9379,-1.9298,-1.9189,-1.9162,-1.923,-1.9359,-1.925,-1.9271,-1.9481,-1.9481,-1.9508,-1.9596,-1.9698,-1.9725,-1.9711,-1.9698,-1.9508,-1.9359,-1.923,-1.9128,-1.9006,-1.8898,-1.8823,-1.8728,-1.8606,-1.842,-1.8423,-1.8565,-1.8467,-1.8423,-1.8328,-1.8389,-1.8382,-1.8369,-1.8321,-1.8253,-1.8158,-1.8145,-1.8219,-1.8199,-1.8118,-1.8091,-1.7968,-1.7806,-1.7677,-1.744,-1.7406,-1.7156,-1.6949,-1.6782,-1.6263,-1.4673,-1.403,-1.3565,-1.2936,-1.2035,-1.1246,-1.0611,-0.9244,-0.7586,-0.6855,-0.6434,-0.5583,-0.4644,-0.3966,-0.3627,-0.4184,-0.4408,-0.3905,-0.3534,-0.3568,-0.3585,-0.3603,-0.3632,-1.624,-1.7148,-1.7154,-1.7256,-1.7412,-1.729,-1.7372,-1.7561,-1.7555,-1.7711,-1.8004,-1.7996,-1.8118,-1.8294,-1.8423,-1.8498,-1.8626,-1.8786,-1.8807,-1.8827,-1.8881,-1.8843,-1.8898,-1.8972,-1.9027,-1.8979,-1.8959,-1.8993,-1.8993,-1.9067,-1.921,-1.9359,-1.9481,-1.9563,-1.9624,-1.9725,-1.9725,-1.9725,-1.9711,-1.9583,-1.9468,-1.942,-1.9352,-1.9217,-1.9203,-1.9223,-1.9278,-1.9332,-1.9413,-1.9495,-1.9549,-1.9664,-1.9705,-1.9718,-1.9725,-1.9725,-1.9725,-1.959,-1.9468,-1.9373,-1.9318,-1.9257,-1.9128,-1.8993,-1.8898,-1.8925,-1.8803,-1.8762,-1.8776,-1.8776,-1.8633,-1.8593,-1.8664,-1.8572,-1.8531,-1.8484,-1.843,-1.8348,-1.8348,-1.845,-1.8362,-1.8247,-1.8247,-1.824,-1.807,-1.7901,-1.7711,-1.7398,-1.6903,-1.6267,-1.5819,-1.4721,-1.3012,-1.1959,-1.1455,-1.0557,-0.9614,-0.8908,-0.8201,-0.7038,-0.5756,-0.5008,-0.4536,-0.3727,-0.3595,-0.3587,-0.3584,-0.3588,-0.3583,-0.3566,-0.3583,-0.3615,-0.3628,-0.3633,-0.3658,-1.6978,-1.6978,-1.6978,-1.71,-1.7249,-1.7066,-1.7121,-1.7304,-1.7256,-1.7378,-1.7731,-1.7812,-1.8002,-1.8213,-1.8335,-1.8511,-1.8606,-1.8773,-1.8807,-1.8827,-1.8827,-1.882,-1.8875,-1.8949,-1.8972,-1.8877,-1.8966,-1.9061,-1.9074,-1.9162,-1.9271,-1.9373,-1.944,-1.9529,-1.963,-1.9725,-1.9725,-1.9725,-1.9711,-1.9624,-1.9508,-1.9501,-1.9481,-1.9373,-1.9373,-1.9373,-1.9406,-1.9461,-1.9501,-1.9549,-1.959,-1.9711,-1.9725,-1.9725,-1.9725,-1.9725,-1.9711,-1.9664,-1.9522,-1.94,-1.9373,-1.9291,-1.9244,-1.9183,-1.9203,-1.9203,-1.9033,-1.8945,-1.904,-1.9054,-1.8881,-1.8827,-1.8779,-1.8674,-1.8735,-1.8715,-1.8694,-1.864,-1.8647,-1.8681,-1.8593,-1.8572,-1.8613,-1.862,-1.8382,-1.8206,-1.8043,-1.7223,-1.5918,-1.5148,-1.4173,-1.2684,-1.0829,-0.9937,-0.9208,-0.7948,-0.6807,-0.6414,-0.5798,-0.541,-0.4392,-0.383,-0.3673,-0.3636,-0.3626,-0.3641,-0.3633,-0.3613,-0.3607,-0.3606,-0.3626,-0.3647,-0.3669,-0.3675,-0.3688,-1.6978,-1.6978,-1.6978,-1.6992,-1.7019,-1.6985,-1.7066,-1.7188,-1.7195,-1.7297,-1.7446,-1.7378,-1.7629,-1.8023,-1.8165,-1.8362,-1.8654,-1.8793,-1.882,-1.882,-1.882,-1.882,-1.8803,-1.8877,-1.8925,-1.9013,-1.9067,-1.9122,-1.9176,-1.9223,-1.9318,-1.942,-1.9481,-1.9529,-1.9718,-1.9725,-1.9725,-1.9725,-1.9725,-1.9711,-1.9637,-1.9624,-1.9664,-1.9643,-1.9637,-1.9623,-1.9637,-1.9643,-1.961,-1.9624,-1.9698,-1.9725,-1.9725,-1.9725,-1.9725,-1.9725,-1.9725,-1.9718,-1.9691,-1.9373,-1.9364,-1.9305,-1.9298,-1.931,-1.9283,-1.9269,-1.9315,-1.9338,-1.9299,-1.9178,-1.9004,-1.8936,-1.9011,-1.9135,-1.9204,-1.9135,-1.9173,-1.8959,-1.8966,-1.9065,-1.9065,-1.9065,-1.9106,-1.9065,-1.8728,-1.8531,-1.8375,-1.7261,-1.5494,-1.3832,-1.2692,-1.0571,-0.8644,-0.7619,-0.6669,-0.5104,-0.4066,-0.3763,-0.3854,-0.3951,-0.3985,-0.3796,-0.3679,-0.3598,-0.3671,-0.37,-0.3664,-0.3624,-0.3655,-0.3686,-0.3656,-0.3667,-0.3693,-0.3719,-0.3733,-1.6978,-1.6978,-1.6978,-1.6978,-1.6978,-1.6978,-1.7012,-1.7066,-1.7154,-1.7277,-1.7392,-1.7358,-1.7609,-1.7968,-1.8118,-1.828,-1.8572,-1.88,-1.882,-1.882,-1.882,-1.882,-1.8847,-1.8816,-1.8909,-1.8943,-1.8986,-1.9142,-1.9203,-1.9298,-1.944,-1.9549,-1.9563,-1.9671,-1.9711,-1.9725,-1.9725,-1.9725,-1.9725,-1.9725,-1.9725,-1.9725,-1.9725,-1.9725,-1.9725,-1.9725,-1.9725,-1.9725,-1.9725,-1.9725,-1.9725,-1.9786,-1.9786,-1.9786,-1.9786,-1.9786,-1.9786,-1.9901,-2.0137,-2.0146,-1.9937,-1.9715,-1.9467,-1.9598,-1.9891,-2.001,-1.9961,-1.9912,-1.9846,-1.9849,-1.9845,-1.981,-1.9892,-2.0194,-2.0252,-2.0027,-1.987,-1.9436,-1.9298,-1.9545,-1.9633,-1.9734,-1.9832,-1.9278,-1.8897,-1.8273,-1.8,-1.6609,-1.4857,-1.2645,-1.1003,-0.8522,-0.6576,-0.5431,-0.4297,-0.3849,-0.3628,-0.3706,-0.3741,-0.3779,-0.3749,-0.3715,-0.3738,-0.3741,-0.375,-0.3756,-0.3738,-0.3731,-0.376,-0.3773,-0.3738,-0.3719,-0.3744,-0.3764,-0.3778,-1.6978,-1.6978,-1.6978,-1.6978,-1.6978,-1.6978,-1.6978,-1.6998,-1.708,-1.7202,-1.7317,-1.7344,-1.7582,-1.7914,-1.8091,-1.8253,-1.8525,-1.8687,-1.882,-1.882,-1.882,-1.882,-1.882,-1.882,-1.8841,-1.8875,-1.8966,-1.9128,-1.9217,-1.9413,-1.9549,-1.9684,-1.9725,-1.9718,-1.9725,-1.9725,-1.9725,-1.9725,-1.9725,-1.9725,-1.9725,-1.9725,-1.9725,-1.9725,-1.9725,-1.9725,-1.9725,-1.9725,-1.9725,-1.9786,-1.9901,-2.0022,-2.0022,-2.0029,-2.0144,-2.0265,-2.0447,-2.063,-2.0865,-2.1059,-2.0855,-2.0626,-2.0135,-2.0065,-2.0473,-2.0654,-2.0543,-2.0508,-2.0627,-2.051,-2.0445,-2.0417,-2.0723,-2.1019,-2.084,-2.056,-2.0399,-2.0026,-1.9908,-2.0159,-2.0335,-2.0423,-2.0335,-1.9621,-1.9046,-1.8258,-1.7482,-1.572,-1.3889,-1.1595,-0.9256,-0.6865,-0.531,-0.4556,-0.4095,-0.381,-0.3644,-0.3649,-0.3678,-0.3711,-0.3735,-0.3759,-0.3793,-0.3823,-0.3816,-0.3816,-0.3835,-0.3844,-0.3833,-0.3827,-0.3813,-0.3862,-0.3863,-0.3868,-0.382,-1.6978,-1.6978,-1.6978,-1.6978,-1.6978,-1.6978,-1.6978,-1.6985,-1.6985,-1.7066,-1.7195,-1.7216,-1.7473,-1.7895,-1.8023,-1.8253,-1.8511,-1.8687,-1.88,-1.882,-1.882,-1.882,-1.882,-1.882,-1.882,-1.8857,-1.8993,-1.9128,-1.923,-1.9481,-1.963,-1.9718,-1.9725,-1.9725,-1.9725,-1.9725,-1.9725,-1.9725,-1.9725,-1.9725,-1.9725,-1.9725,-1.9725,-1.9725,-1.9725,-1.9786,-1.9847,-1.9908,-1.9908,-2.0083,-2.0387,-2.0562,-2.063,-2.063,-2.1047,-2.135,-2.1479,-2.163,-2.166,-2.1825,-2.1892,-2.1709,-2.1171,-2.0855,-2.0955,-2.1387,-2.1396,-2.1291,-2.1277,-2.103,-2.0844,-2.107,-2.1354,-2.1287,-2.1081,-2.0933,-2.0912,-2.0782,-2.0698,-2.0823,-2.0933,-2.0936,-2.0682,-2.0091,-1.8274,-1.6844,-1.5537,-1.3391,-1.1578,-0.9953,-0.7638,-0.5383,-0.4221,-0.3998,-0.3705,-0.3697,-0.3699,-0.37,-0.3722,-0.375,-0.3775,-0.3799,-0.3827,-0.3848,-0.3859,-0.3929,-0.3883,-0.3878,-0.3925,-0.3921,-0.3863,-0.3906,-0.3893,-0.3907,-0.3857,-1.6978,-1.6978,-1.6978,-1.6978,-1.6978,-1.6978,-1.6978,-1.6978,-1.6978,-1.706,-1.7195,-1.7195,-1.7446,-1.7915,-1.8023,-1.826,-1.8491,-1.8674,-1.8742,-1.882,-1.882,-1.882,-1.882,-1.882,-1.882,-1.8881,-1.8952,-1.9122,-1.925,-1.9508,-1.9725,-1.9725,-1.9725,-1.9725,-1.9725,-1.9725,-1.9725,-1.9725,-1.9725,-1.9725,-1.9725,-1.9725,-1.9725,-1.9786,-1.9786,-1.9961,-2.0265,-2.0326,-2.0508,-2.0994,-2.1168,-2.129,-2.1297,-2.1297,-2.154,-2.1615,-2.1994,-2.2451,-2.2474,-2.2658,-2.2751,-2.2751,-2.2451,-2.2451,-2.2412,-2.2344,-2.2336,-2.2161,-2.2138,-2.2032,-2.1895,-2.2077,-2.2417,-2.2472,-2.2176,-2.1837,-2.1686,-2.1486,-2.1521,-2.1752,-2.187,-2.1537,-2.124,-1.9062,-1.7231,-1.5457,-1.3527,-1.1387,-0.9561,-0.7984,-0.6566,-0.4403,-0.3763,-0.3772,-0.3752,-0.3739,-0.3745,-0.3752,-0.3772,-0.3795,-0.3827,-0.385,-0.3863,-0.3885,-0.3911,-0.3921,-0.3926,-0.3919,-0.3914,-0.3911,-0.3911,-0.3887,-0.3931,-0.3884,-0.3888,-1.6802,-1.6809,-1.687,-1.6924,-1.6978,-1.6978,-1.6978,-1.6978,-1.6978,-1.7039,-1.7107,-1.7168,-1.7412,-1.7765,-1.7996,-1.8247,-1.8531,-1.8681,-1.882,-1.882,-1.882,-1.882,-1.882,-1.882,-1.882,-1.8875,-1.8918,-1.9074,-1.925,-1.9548,-1.9725,-1.9725,-1.9725,-1.9725,-1.9725,-1.9725,-1.9725,-1.9725,-1.9725,-1.9725,-1.9725,-1.9786,-1.984,-2.0022,-2.0083,-2.0387,-2.0872,-2.0994,-2.1236,-2.1653,-2.1714,-2.2017,-2.2085,-2.2206,-2.2206,-2.2359,-2.2748,-2.3163,-2.3296,-2.3454,-2.3525,-2.3549,-2.3557,-2.3589,-2.3533,-2.3454,-2.3174,-2.2912,-2.3096,-2.3219,-2.3165,-2.3173,-2.3598,-2.397,-2.3378,-2.2834,-2.2543,-2.225,-2.245,-2.277,-2.2631,-2.2293,-2.0893,-1.8461,-1.6109,-1.4146,-1.2106,-0.991,-0.8204,-0.6753,-0.5691,-0.4227,-0.3885,-0.3842,-0.3818,-0.3805,-0.3817,-0.3823,-0.3818,-0.3844,-0.3878,-0.3903,-0.3919,-0.3945,-0.3913,-0.3916,-0.3913,-0.3975,-0.3971,-0.3967,-0.3904,-0.3959,-0.394,-0.3928,-0.3923,-1.6524,-1.6493,-1.6635,-1.6784,-1.6958,-1.6971,-1.6978,-1.6978,-1.6978,-1.6978,-1.7012,-1.7154,-1.7392,-1.7704,-1.7989,-1.8274,-1.8511,-1.8687,-1.882,-1.882,-1.882,-1.882,-1.882,-1.882,-1.882,-1.8816,-1.8925,-1.9081,-1.9271,-1.9495,-1.9725,-1.9725,-1.9725,-1.9725,-1.9725,-1.9725,-1.9786,-1.9961,-1.9961,-1.9961,-1.9901,-1.9901,-2.0022,-2.0569,-2.0751,-2.0994,-2.1479,-2.1661,-2.1714,-2.1956,-2.2259,-2.2622,-2.2803,-2.2992,-2.3019,-2.3138,-2.3454,-2.3737,-2.3997,-2.4096,-2.424,-2.4256,-2.4373,-2.4288,-2.4177,-2.4048,-2.368,-2.3532,-2.3656,-2.3656,-2.3594,-2.3664,-2.4013,-2.404,-2.3692,-2.3489,-2.341,-2.3221,-2.3267,-2.351,-2.329,-2.2767,-2.0881,-1.8436,-1.5108,-1.2952,-1.0772,-0.8636,-0.7693,-0.6293,-0.517,-0.4358,-0.4012,-0.3908,-0.3908,-0.3899,-0.3906,-0.3904,-0.3891,-0.3906,-0.3947,-0.3964,-0.3915,-0.3932,-0.3947,-0.3959,-0.3961,-0.3953,-0.3948,-0.3952,-0.3955,-0.3968,-0.3953,-0.3923,-0.3909,-1.6517,-1.6537,-1.6635,-1.6723,-1.6822,-1.6931,-1.6978,-1.6978,-1.6978,-1.6978,-1.7026,-1.7243,-1.7412,-1.7642,-1.8057,-1.8348,-1.8538,-1.8687,-1.8807,-1.882,-1.882,-1.882,-1.882,-1.882,-1.8827,-1.881,-1.8932,-1.9142,-1.9352,-1.9542,-1.9725,-1.9725,-1.9725,-1.9725,-1.9725,-1.9725,-1.9961,-2.0204,-2.0387,-2.0447,-2.0508,-2.0508,-2.069,-2.1108,-2.1418,-2.1729,-2.2153,-2.2387,-2.2622,-2.2984,-2.3166,-2.3287,-2.3287,-2.3407,-2.3504,-2.3597,-2.3819,-2.4137,-2.4348,-2.4486,-2.456,-2.4616,-2.4616,-2.4584,-2.4511,-2.4356,-2.4213,-2.4151,-2.408,-2.408,-2.4088,-2.4221,-2.4237,-2.4084,-2.3976,-2.4054,-2.4204,-2.4173,-2.4079,-2.3961,-2.3834,-2.2417,-2.0594,-1.792,-1.4578,-1.1991,-0.9733,-0.8148,-0.8111,-0.7214,-0.5897,-0.4948,-0.4146,-0.3973,-0.3977,-0.3975,-0.3973,-0.3979,-0.3971,-0.399,-0.3951,-0.396,-0.3967,-0.3966,-0.3974,-0.3988,-0.3992,-0.3978,-0.3976,-0.3988,-0.3991,-0.3998,-0.3991,-0.3966,-0.396,-1.6327,-1.6347,-1.6439,-1.6673,-1.6836,-1.687,-1.6917,-1.6971,-1.6978,-1.6978,-1.7005,-1.7222,-1.7467,-1.7724,-1.8084,-1.8396,-1.8579,-1.8715,-1.8813,-1.882,-1.882,-1.882,-1.882,-1.882,-1.8888,-1.8884,-1.9088,-1.9305,-1.9447,-1.9576,-1.9725,-1.9725,-1.9725,-1.9725,-1.9779,-1.9961,-2.0265,-2.0569,-2.0865,-2.1168,-2.129,-2.129,-2.1418,-2.1835,-2.2145,-2.2471,-2.2821,-2.3056,-2.3222,-2.3464,-2.3524,-2.3549,-2.3573,-2.3666,-2.3755,-2.3918,-2.4105,-2.43,-2.4527,-2.4673,-2.4714,-2.4738,-2.4787,-2.4722,-2.4592,-2.4462,-2.4454,-2.4383,-2.4383,-2.432,-2.4328,-2.4454,-2.4462,-2.4401,-2.4291,-2.4362,-2.4433,-2.4387,-2.4403,-2.434,-2.3574,-2.197,-1.9962,-1.7608,-1.4579,-1.2656,-1.0186,-0.8799,-0.8632,-0.8383,-0.6928,-0.5795,-0.5096,-0.4282,-0.4035,-0.4031,-0.4026,-0.4034,-0.4167,-0.4107,-0.4112,-0.4069,-0.4018,-0.4203,-0.4202,-0.4022,-0.4021,-0.4012,-0.4015,-0.4029,-0.4027,-0.4023,-0.4015,-0.4011,-0.4076,-1.609,-1.6153,-1.6252,-1.653,-1.6856,-1.675,-1.677,-1.6937,-1.6971,-1.6978,-1.6992,-1.7107,-1.7426,-1.7731,-1.8058,-1.8405,-1.8579,-1.8654,-1.8701,-1.8813,-1.882,-1.882,-1.882,-1.8827,-1.8929,-1.9047,-1.9257,-1.9379,-1.9488,-1.9603,-1.9725,-1.9718,-1.9779,-1.9847,-2.0022,-2.0387,-2.0872,-2.1176,-2.1532,-2.2077,-2.2138,-2.2138,-2.2259,-2.2501,-2.2758,-2.3088,-2.3508,-2.3682,-2.3597,-2.3699,-2.3699,-2.3731,-2.3755,-2.3804,-2.3926,-2.4064,-2.421,-2.4413,-2.4616,-2.4771,-2.4763,-2.4771,-2.4836,-2.4803,-2.4673,-2.4641,-2.4633,-2.4633,-2.4633,-2.4633,-2.4641,-2.4592,-2.46,-2.4616,-2.4616,-2.4529,-2.4592,-2.4592,-2.4592,-2.4592,-2.3313,-2.1724,-1.9324,-1.6965,-1.5032,-1.3163,-1.163,-1.0493,-0.9538,-0.9203,-0.8368,-0.7306,-0.649,-0.5607,-0.4724,-0.4588,-0.4767,-0.471,-0.4907,-0.4525,-0.4402,-0.4736,-0.4815,-0.4631,-0.457,-0.4633,-0.4255,-0.4125,-0.4132,-0.4132,-0.4129,-0.4122,-0.4114,-0.4113,-0.4127,-1.6133,-1.6096,-1.6246,-1.6368,-1.6476,-1.6601,-1.6716,-1.6757,-1.6931,-1.6978,-1.7005,-1.7026,-1.7216,-1.7521,-1.7799,-1.8111,-1.8403,-1.8531,-1.8674,-1.8749,-1.8813,-1.8813,-1.8841,-1.8888,-1.8945,-1.9149,-1.9359,-1.9481,-1.9556,-1.9684,-1.9725,-1.9786,-2.0265,-2.0447,-2.0569,-2.1054,-2.16,-2.1896,-2.2198,-2.2682,-2.2924,-2.2864,-2.2864,-2.3045,-2.3355,-2.3529,-2.3707,-2.3617,-2.3755,-2.3853,-2.3869,-2.3885,-2.3926,-2.395,-2.4032,-2.4186,-2.427,-2.4495,-2.4681,-2.4811,-2.4811,-2.4925,-2.4966,-2.4901,-2.4819,-2.4819,-2.4819,-2.4819,-2.4819,-2.4836,-2.4811,-2.4673,-2.4633,-2.4673,-2.4689,-2.4624,-2.4592,-2.4592,-2.4592,-2.4466,-2.3953,-2.1724,-1.8981,-1.6905,-1.5059,-1.3238,-1.155,-1.0603,-1.1014,-1.0418,-0.9631,-0.8824,-0.7954,-0.6943,-0.611,-0.5909,-0.5901,-0.5845,-0.5785,-0.5779,-0.5779,-0.579,-0.5806,-0.5829,-0.5633,-0.5563,-0.5122,-0.4622,-0.4295,-0.4295,-0.4228,-0.4159,-0.4151,-0.415,-0.4161]},{"header":{"parameterUnit":"m.s-1","parameterCategory":1,"la1":31.0,"la2":29.5877,"lo1":-88.7671,"lo2":-86.6584,"dy":0.0162,"dx":0.0185,"nx":115,"ny":88,"refTime":"2023-04-10T12:00:00:Z","depth":0,"parameterNumber":3,"parameterNumberName":"V-component_of_WINDS"},"data":[0.0,0.0,0.0,0.0,0.0,0.0,0.0,0.0,0.0,0.0,0.0,0.0,0.0,0.0,0.0,0.0,0.0,0.0,0.0,0.0,0.0,0.0,0.0,0.0,0.0,0.0,0.0,0.0,0.0,0.0,0.0,0.0,0.0,0.0,0.0,0.0,0.0,0.0,0.0,0.0,0.0,0.0,0.0,0.0,0.0,0.0,0.0,0.0,0.0,0.0,0.0,0.0,0.0,0.0,0.0,0.0,0.0,0.0,0.0,0.0,0.0,0.0,0.0,0.0,0.0,0.0,0.0,0.0,0.0,0.0,0.0,0.0,0.0,0.0,0.0,0.0,0.0,0.0,0.0,0.0,0.0,0.0,0.0,0.0,0.0,0.0,0.0,0.0,0.0,0.0,0.0,0.0,0.0,0.0,0.0,0.0,0.0,0.0,0.0,0.0,0.0,0.0,0.0,0.0,0.0,0.0,0.0,0.0,0.0,0.0,0.0,0.0,0.0,0.0,0.0,0.0,0.0,0.0,0.0,0.0,0.0,0.0,0.0,0.0,0.0,0.0,0.0,0.0,0.0,0.0,0.0,0.0,0.0,0.0,0.0,0.0,0.0,0.0,0.0,0.0,0.0,0.0,0.0,0.0,0.0,0.0,0.0,0.0,0.0,0.0,0.0,0.0,0.0,0.0,0.0,0.0,0.0,0.0,0.0,0.0,0.0,0.0,0.0,0.0,0.0,0.0,0.0,0.0,0.0,0.0,0.0,0.0,0.0,0.0,0.0,0.0,0.0,0.0,0.0,0.0,0.0,0.0,0.0,0.0,0.0,0.0,0.0,0.0,0.0,0.0,0.0,0.0,0.0,0.0,0.0,0.0,0.0,0.0,0.0,0.0,0.0,0.0,0.0,0.0,0.0,0.0,0.0,0.0,0.0,0.0,0.0,0.0,0.0,0.0,0.0,0.0,0.0,0.0,0.0,0.0,0.0,0.0,0.0,0.0,0.0,0.0,0.0,0.0,0.0,0.0,0.0,0.0,0.0,0.0,0.0,0.0,0.0,0.0,0.0,0.0,0.0,0.0,0.0,0.0,0.0,0.0,0.0,0.0,0.0,0.0,0.0,0.0,0.0,0.0,0.0,0.0,0.0,0.0,0.0,0.0,0.0,0.0,0.0,0.0,0.0,0.0,0.0,0.0,0.0,0.0,0.0,0.0,0.0,0.0,0.0,0.0,0.0,0.0,0.0,0.0,0.0,0.0,0.0,0.0,0.0,0.0,0.0,0.0,0.0,0.0,0.0,0.0,0.0,0.0,0.0,0.0,0.0,0.0,0.0,0.0,0.0,0.0,0.0,0.0,0.0,0.0,0.0,0.0,0.0,0.0,0.0,0.0,0.0,0.0,0.0,0.0,0.0,0.0,0.0,0.0,0.0,0.0,0.0,0.0,0.0,0.0,0.0,0.0,0.0,0.0,0.0,0.0,0.0,0.0,0.0,0.0,0.0,0.0,0.0,0.0,0.0,0.0,0.0,0.0,0.0,0.0,0.0,0.0,0.0,0.0,0.0,0.0,0.0,0.0,0.0,0.0,0.0,0.0,0.0,0.0,0.0,0.0,0.0,0.0,0.0,0.0,0.0,0.0,0.0,0.0,0.0,0.0,0.0,0.0,0.0,0.0,0.0,0.0,0.0,0.0,0.0,0.0,0.0,0.0,0.0,0.0,0.0,0.0,0.0,0.0,0.0,0.0,0.0,0.0,0.0,0.0,0.0,0.0,0.0,0.0,0.0,0.0,0.0,0.0,0.0,0.0,0.0,0.0,0.0,0.0,0.0,0.0,0.0,0.0,0.0,0.0,0.0,0.0,0.0,0.0,0.0,0.0,0.0,0.0,0.0,0.0,0.0,0.0,0.0,0.0,0.0,0.0,0.0,0.0,0.0,0.0,0.0,0.0,0.0,0.0,0.0,0.0,0.0,0.0,0.0,0.0,0.0,0.0,0.0,0.0,0.0,0.0,0.0,0.0,0.0,0.0,0.0,0.0,0.0,0.0,0.0,0.0,0.0,0.0,0.0,0.0,0.0,0.0,0.0,0.0,0.0,0.0,0.0,0.0,0.0,0.0,0.0,0.0,0.0,0.0,0.0,0.0,0.0,0.0,0.0,0.0,0.0,0.0,0.0,0.0,0.0,0.0,0.0,0.0,0.0,0.0,0.0,0.0,0.0,0.0,0.0,0.0,0.0,0.0,0.0,0.0,0.0,0.0,0.0,0.0,0.0,0.0,0.0,0.0,0.0,0.0,0.0,0.0,0.0,0.0,0.0,0.0,0.0,0.0,0.0,0.0,0.0,0.0,0.0,0.0,0.0,0.0,0.0,0.0,0.0,0.0,0.0,0.0,0.0,0.0,0.0,0.0,0.0,0.0,0.0,0.0,0.0,0.0,0.0,0.0,0.0,0.0,0.0,0.0,0.0,0.0,0.0,0.0,0.0,0.0,0.0,0.0,0.0,0.0,0.0,0.0,0.0,0.0,0.0,0.0,0.0,0.0,0.0,0.0,0.0,0.0,0.0,0.0,0.0,0.0,0.0,0.0,0.0,0.0,0.0,0.0,0.0,0.0,0.0,0.0,0.0,0.0,0.0,0.0,0.0,0.0,0.0,0.0,0.0,0.0,0.0,0.0,0.0,0.0,0.0,0.0,0.0,0.0,0.0,0.0,0.0,0.0,0.0,0.0,0.0,0.0,0.0,0.0,0.0,0.0,0.0,0.0,0.0,0.0,0.0,0.0,0.0,0.0,0.0,0.0,0.0,0.0,0.0,0.0,0.0,0.0,0.0,0.0,0.0,0.0,0.0,0.0,0.0,0.0,0.0,0.0,0.0,0.0,0.0,0.0,0.0,0.0,0.0,0.0,0.0,0.0,0.0,0.0,0.0,0.0,0.0,0.0,0.0,0.0,0.0,0.0,0.0,0.0,0.0,0.0,0.0,0.0,0.0,0.0,0.0,0.0,0.0,0.0,0.0,0.0,0.0,0.0,0.0,0.0,0.0,0.0,0.0,0.0,0.0,0.0,0.0,0.0,0.0,0.0,0.0,0.0,0.0,0.0,0.0,0.0,0.0,0.0,0.0,0.0,0.0,0.0,0.0,0.0,0.0,0.0,0.0,0.0,0.0,0.0,0.0,0.0,0.0,0.0,0.0,0.0,0.0,0.0,0.0,0.0,0.0,0.0,0.0,0.0,0.0,0.0,0.0,0.0,0.0,0.0,0.0,0.0,0.0,0.0,0.0,0.0,0.0,0.0,0.0,0.0,0.0,0.0,0.0,0.0,0.0,0.0,0.0,0.0,0.0,0.0,0.0,0.0,0.0,0.0,0.0,0.0,0.0,0.0,0.0,0.0,0.0,0.0,0.0,0.0,0.0,0.0,0.0,0.0,0.0,0.0,0.0,0.0,0.0,0.0,0.0,0.0,0.0,0.0,0.0,0.0,0.0,0.0,0.0,0.0,0.0,0.0,0.0,0.0,0.0,0.0,0.0,0.0,0.0,0.0,0.0,0.0,0.0,0.0,0.0,0.0,0.0,0.0,0.0,0.0,0.0,0.0,0.0,0.0,0.0,0.0,0.0,0.0,0.0,0.0,0.0,0.0,0.0,0.0,0.0,0.0,0.0,0.0,0.0,0.0,0.0,0.0,0.0,0.0,0.0,0.0,0.0,0.0,0.0,0.0,0.0,0.0,0.0,0.0,0.0,0.0,0.0,0.0,0.0,0.0,0.0,0.0,0.0,0.0,0.0,0.0,0.0,0.0,0.0,0.0,0.0,0.0,0.0,0.0,0.0,0.0,0.0,0.0,0.0,0.0,0.0,0.0,0.0,0.0,0.0,0.0,0.0,0.0,0.0,0.0,0.0,0.0,0.0,0.0,0.0,0.0,0.0,0.0,0.0,0.0,0.0,0.0,0.0,0.0,0.0,0.0,0.0,0.0,0.0,0.0,0.0,0.0,0.0,0.0,0.0,0.0,0.0,0.0,0.0,0.0,0.0,0.0,0.0,0.0,0.0,0.0,0.0,0.0,0.0,0.0,0.0,0.0,0.0,0.0,0.0,0.0,0.0,0.0,0.0,0.0,0.0,0.0,0.0,0.0,0.0,0.0,0.0,0.0,0.0,0.0,0.0,0.0,0.0,0.0,0.0,0.0,0.0,0.0,0.0,0.0,0.0,0.0,0.0,0.0,0.0,0.0,0.0,0.0,0.0,0.0,0.0,0.0,0.0,0.0,0.0,0.0,0.0,0.0,2.0098,0.0,0.0,0.0,0.0,0.0,0.0,0.0,0.0,0.0,0.0,0.0,0.0,0.0,0.0,0.0,0.0,0.0,0.0,0.0,0.0,0.0,0.0,0.0,0.0,0.0,0.0,0.0,0.0,0.0,0.0,0.0,0.0,0.0,0.0,0.0,0.0,0.0,0.0,0.0,0.0,0.0,0.0,0.0,0.0,0.0,0.0,0.0,0.0,0.0,0.0,0.0,0.0,0.0,0.0,0.0,0.0,0.0,0.0,0.0,0.0,0.0,0.0,0.0,0.0,0.0,0.0,0.0,0.0,0.0,0.0,0.0,0.0,0.0,0.0,0.0,0.0,0.0,0.0,0.0,0.0,0.0,0.0,0.0,0.0,0.0,0.0,0.0,0.0,0.0,0.0,0.0,0.0,0.0,0.0,0.0,0.0,0.0,0.0,0.0,0.0,0.0,0.0,0.0,0.0,0.0,0.0,0.0,0.0,0.0,0.0,2.1362,2.1412,2.142,2.1428,2.1479,0.0,0.0,0.0,0.0,0.0,0.0,0.0,0.0,0.0,0.0,0.0,0.0,0.0,0.0,0.0,0.0,0.0,0.0,0.0,0.0,0.0,0.0,0.0,0.0,0.0,0.0,0.0,0.0,0.0,0.0,0.0,0.0,0.0,0.0,0.0,0.0,0.0,0.0,0.0,0.0,0.0,0.0,0.0,0.0,0.0,0.0,0.0,0.0,0.0,0.0,0.0,0.0,0.0,0.0,0.0,0.0,0.0,0.0,0.0,0.0,0.0,0.0,0.0,0.0,0.0,0.0,0.0,0.0,0.0,0.0,0.0,0.0,0.0,0.0,0.0,0.0,0.0,0.0,0.0,0.0,0.0,0.0,0.0,0.0,0.0,0.0,0.0,0.0,0.0,0.0,0.0,0.0,0.0,0.0,0.0,0.0,0.0,0.0,0.0,0.0,0.0,0.0,0.0,0.0,0.0,0.0,0.0,0.0,0.0,0.0,0.0,0.0,2.2634,2.2653,2.2688,0.0,0.0,0.0,0.0,0.0,0.0,0.0,0.0,0.0,0.0,0.0,0.0,0.0,0.0,0.0,0.0,0.0,0.0,0.0,0.0,0.0,0.0,0.0,0.0,0.0,0.0,0.0,0.0,0.0,0.0,0.0,0.0,0.0,0.0,0.0,0.0,0.0,0.0,0.0,0.0,0.0,0.0,0.0,0.0,0.0,0.0,0.0,0.0,0.0,0.0,0.0,0.0,0.0,0.0,0.0,0.0,0.0,0.0,0.0,0.0,0.0,0.0,0.0,0.0,0.0,0.0,0.0,0.0,0.0,0.0,0.0,0.0,0.0,0.0,0.0,0.0,0.0,0.0,0.0,0.0,0.0,0.0,0.0,0.0,0.0,0.0,0.0,0.0,0.0,0.0,0.0,0.0,0.0,0.0,0.0,0.0,0.0,0.0,0.0,0.0,0.0,0.0,0.0,0.0,0.0,0.0,0.0,0.0,0.0,0.0,2.2524,2.2612,2.2609,0.0,2.2716,0.0,0.0,0.0,0.0,0.0,0.0,0.0,0.0,0.0,0.0,0.0,0.0,0.0,0.0,0.0,0.0,0.0,0.0,0.0,0.0,0.0,0.0,0.0,0.0,0.0,0.0,0.0,0.0,0.0,0.0,0.0,0.0,0.0,0.0,0.0,0.0,0.0,0.0,0.0,0.0,0.0,0.0,0.0,0.0,0.0,0.0,0.0,0.0,0.0,0.0,0.0,0.0,0.0,0.0,0.0,0.0,0.0,0.0,0.0,0.0,0.0,0.0,0.0,0.0,0.0,0.0,0.0,0.0,0.0,0.0,0.0,0.0,0.0,0.0,0.0,0.0,0.0,0.0,0.0,0.0,0.0,0.0,0.0,0.0,0.0,0.0,0.0,0.0,0.0,0.0,0.0,0.0,0.0,0.0,0.0,0.0,0.0,0.0,0.0,0.0,0.0,0.0,0.0,0.0,0.0,0.0,0.0,0.0,0.0,0.0,2.458,2.4137,2.4197,2.3998,0.0,0.0,0.0,0.0,0.0,0.0,0.0,0.0,0.0,0.0,0.0,0.0,0.0,0.0,0.0,0.0,0.0,0.0,0.0,0.0,0.0,0.0,0.0,0.0,0.0,0.0,0.0,0.0,0.0,0.0,0.0,0.0,0.0,0.0,0.0,0.0,0.0,0.0,0.0,0.0,0.0,0.0,0.0,0.0,0.0,0.0,0.0,0.0,0.0,0.0,0.0,0.0,0.0,0.0,0.0,0.0,0.0,0.0,0.0,0.0,0.0,0.0,0.0,0.0,0.0,0.0,0.0,0.0,0.0,0.0,0.0,0.0,0.0,0.0,0.0,0.0,0.0,0.0,0.0,0.0,0.0,0.0,0.0,0.0,0.0,0.0,0.0,0.0,0.0,0.0,0.0,0.0,0.0,0.0,0.0,0.0,0.0,0.0,0.0,0.0,0.0,0.0,0.0,0.0,0.0,0.0,0.0,0.0,0.0,0.0,2.572,2.5791,2.5264,2.5288,2.5041,2.4478,0.0,0.0,0.0,0.0,0.0,0.0,0.0,0.0,0.0,0.0,0.0,0.0,0.0,0.0,0.0,0.0,0.0,0.0,0.0,0.0,0.0,0.0,0.0,0.0,0.0,0.0,0.0,0.0,0.0,0.0,0.0,0.0,0.0,0.0,0.0,0.0,0.0,0.0,0.0,0.0,0.0,0.0,0.0,0.0,0.0,0.0,0.0,0.0,0.0,0.0,0.0,0.0,0.0,0.0,0.0,0.0,0.0,0.0,0.0,0.0,0.0,0.0,0.0,0.0,0.0,0.0,0.0,0.0,0.0,0.0,0.0,0.0,0.0,0.0,0.0,0.0,0.0,0.0,0.0,0.0,0.0,0.0,0.0,0.0,0.0,0.0,0.0,0.0,0.0,0.0,0.0,0.0,0.0,0.0,0.0,0.0,0.0,0.0,0.0,0.0,0.0,0.0,0.0,0.0,0.0,0.0,0.0,0.0,2.5155,2.5244,2.5305,2.5339,2.5293,2.5334,0.0,0.0,0.0,0.0,0.0,0.0,0.0,0.0,0.0,0.0,0.0,0.0,0.0,0.0,0.0,0.0,0.0,0.0,0.0,0.0,0.0,0.0,0.0,0.0,0.0,0.0,0.0,0.0,0.0,0.0,0.0,0.0,0.0,0.0,0.0,0.0,0.0,0.0,0.0,0.0,0.0,0.0,0.0,0.0,0.0,0.0,0.0,0.0,0.0,0.0,0.0,0.0,0.0,0.0,0.0,0.0,0.0,0.0,0.0,0.0,0.0,0.0,0.0,0.0,0.0,0.0,0.0,0.0,0.0,0.0,0.0,0.0,0.0,0.0,0.0,0.0,0.0,0.0,0.0,0.0,0.0,0.0,0.0,0.0,0.0,0.0,0.0,0.0,0.0,0.0,0.0,0.0,0.0,0.0,0.0,0.0,0.0,0.0,0.0,0.0,0.0,0.0,0.0,0.0,0.0,0.0,0.0,0.0,0.0,2.6772,2.6854,2.6899,2.688,2.6423,2.5888,0.0,0.0,0.0,0.0,0.0,0.0,0.0,0.0,0.0,0.0,0.0,0.0,0.0,0.0,0.0,0.0,0.0,0.0,0.0,0.0,0.0,0.0,0.0,0.0,0.0,0.0,0.0,0.0,0.0,0.0,0.0,0.0,0.0,0.0,0.0,0.0,0.0,0.0,0.0,0.0,0.0,0.0,0.0,0.0,0.0,0.0,0.0,0.0,0.0,0.0,0.0,0.0,0.0,0.0,0.0,0.0,0.0,0.0,0.0,0.0,0.0,0.0,0.0,0.0,0.0,0.0,0.0,0.0,0.0,0.0,0.0,0.0,0.0,0.0,0.0,0.0,0.0,0.0,0.0,0.0,0.0,0.0,0.0,0.0,0.0,0.0,0.0,0.0,0.0,0.0,0.0,0.0,0.0,0.0,0.0,0.0,0.0,0.0,0.0,0.0,0.0,0.0,0.0,0.0,0.0,0.0,0.0,0.0,0.0,2.7746,0.0,2.7833,2.78,2.7038,2.6381,0.0,0.0,0.0,0.0,0.0,0.0,0.0,0.0,0.0,0.0,0.0,0.0,0.0,0.0,0.0,0.0,0.0,0.0,0.0,0.0,0.0,0.0,0.0,0.0,0.0,0.0,0.0,0.0,0.0,0.0,0.0,0.0,0.0,0.0,0.0,0.0,0.0,0.0,0.0,0.0,0.0,0.0,0.0,0.0,0.0,0.0,0.0,0.0,0.0,0.0,0.0,0.0,0.0,0.0,0.0,0.0,0.0,0.0,0.0,0.0,0.0,0.0,0.0,0.0,0.0,0.0,0.0,0.0,0.0,0.0,0.0,0.0,0.0,0.0,0.0,0.0,0.0,0.0,0.0,0.0,0.0,0.0,0.0,0.0,0.0,0.0,0.0,0.0,0.0,0.0,0.0,0.0,0.0,0.0,0.0,0.0,0.0,0.0,0.0,0.0,0.0,0.0,0.0,0.0,0.0,0.0,0.0,0.0,2.8622,2.7915,2.7981,2.8063,2.7903,2.725,2.6771,0.0,0.0,0.0,0.0,0.0,0.0,0.0,0.0,0.0,0.0,0.0,0.0,0.0,0.0,0.0,0.0,0.0,0.0,0.0,0.0,0.0,0.0,0.0,0.0,0.0,0.0,0.0,0.0,0.0,0.0,0.0,0.0,0.0,0.0,0.0,0.0,0.0,0.0,0.0,0.0,0.0,0.0,0.0,0.0,0.0,0.0,0.0,0.0,0.0,0.0,0.0,0.0,0.0,0.0,0.0,0.0,0.0,0.0,0.0,0.0,0.0,0.0,0.0,0.0,0.0,0.0,0.0,0.0,0.0,0.0,0.0,0.0,0.0,0.0,0.0,0.0,0.0,0.0,0.0,0.0,0.0,0.0,0.0,0.0,0.0,0.0,0.0,0.0,0.0,0.0,0.0,0.0,0.0,0.0,0.0,0.0,0.0,0.0,0.0,0.0,0.0,0.0,0.0,0.0,0.0,0.0,0.0,0.0,0.0,3.053,3.0523,3.0246,2.97,2.9458,2.8507,0.0,0.0,0.0,0.0,0.0,0.0,0.0,0.0,0.0,0.0,0.0,0.0,0.0,0.0,0.0,0.0,0.0,0.0,0.0,0.0,0.0,0.0,0.0,0.0,0.0,0.0,0.0,0.0,0.0,0.0,0.0,0.0,0.0,0.0,0.0,0.0,0.0,0.0,0.0,0.0,0.0,0.0,0.0,0.0,0.0,0.0,0.0,0.0,0.0,0.0,0.0,0.0,0.0,0.0,0.0,0.0,0.0,0.0,0.0,0.0,0.0,0.0,0.0,0.0,0.0,0.0,0.0,0.0,0.0,0.0,0.0,0.0,0.0,0.0,0.0,0.0,0.0,0.0,0.0,0.0,0.0,0.0,0.0,0.0,0.0,0.0,0.0,0.0,0.0,0.0,0.0,0.0,0.0,0.0,0.0,0.0,0.0,0.0,0.0,0.0,0.0,0.0,0.0,0.0,0.0,0.0,0.0,0.0,0.0,3.6369,3.4946,3.4039,3.3836,3.2645,3.093,2.868,0.0,0.0,0.0,0.0,0.0,0.0,0.0,0.0,0.0,0.0,0.0,0.0,0.0,0.0,0.0,0.0,0.0,0.0,0.0,0.0,0.0,0.0,0.0,0.0,0.0,0.0,0.0,0.0,0.0,0.0,0.0,0.0,0.0,0.0,0.0,0.0,0.0,0.0,0.0,0.0,0.0,0.0,0.0,0.0,0.0,0.0,0.0,0.0,0.0,0.0,0.0,0.0,0.0,0.0,0.0,0.0,0.0,0.0,0.0,0.0,0.0,0.0,0.0,0.0,0.0,0.0,0.0,0.0,0.0,0.0,0.0,0.0,0.0,0.0,0.0,0.0,0.0,0.0,0.0,0.0,0.0,0.0,0.0,0.0,0.0,0.0,0.0,0.0,0.0,0.0,0.0,0.0,0.0,0.0,0.0,0.0,0.0,0.0,0.0,0.0,0.0,0.0,0.0,0.0,0.0,0.0,0.0,0.0,4.4843,4.1341,3.9663,3.9753,3.6665,3.3997,0.0,0.0,0.0,0.0,0.0,0.0,0.0,0.0,0.0,0.0,0.0,0.0,0.0,0.0,0.0,0.0,0.0,0.0,0.0,0.0,0.0,0.0,0.0,0.0,0.0,0.0,0.0,0.0,0.0,0.0,0.0,0.0,0.0,0.0,0.0,0.0,0.0,0.0,0.0,0.0,0.0,0.0,0.0,0.0,0.0,0.0,0.0,0.0,0.0,0.0,0.0,0.0,0.0,0.0,0.0,0.0,0.0,0.0,0.0,0.0,0.0,0.0,0.0,0.0,0.0,0.0,0.0,0.0,0.0,0.0,0.0,0.0,0.0,0.0,0.0,0.0,0.0,0.0,0.0,0.0,0.0,0.0,0.0,0.0,0.0,0.0,0.0,0.0,0.0,0.0,0.0,0.0,0.0,0.0,0.0,0.0,0.0,0.0,0.0,0.0,0.0,0.0,0.0,0.0,0.0,0.0,0.0,0.0,0.0,5.0772,5.2675,5.0877,4.5277,4.1805,3.8086,0.0,0.0,0.0,0.0,0.0,0.0,0.0,0.0,0.0,0.0,0.0,0.0,0.0,0.0,0.0,0.0,0.0,0.0,0.0,0.0,0.0,0.0,0.0,0.0,0.0,0.0,0.0,0.0,0.0,0.0,0.0,0.0,0.0,0.0,0.0,0.0,0.0,0.0,0.0,0.0,0.0,0.0,0.0,0.0,0.0,0.0,0.0,0.0,0.0,0.0,0.0,0.0,0.0,0.0,0.0,0.0,0.0,0.0,0.0,0.0,0.0,0.0,0.0,0.0,0.0,0.0,0.0,0.0,0.0,0.0,0.0,0.0,0.0,0.0,0.0,0.0,0.0,0.0,0.0,0.0,0.0,0.0,0.0,0.0,0.0,0.0,0.0,0.0,0.0,0.0,0.0,0.0,0.0,0.0,0.0,0.0,0.0,0.0,0.0,0.0,0.0,0.0,0.0,0.0,0.0,0.0,0.0,0.0,4.9484,5.4976,6.0091,6.036,5.5422,4.8499,4.2471,0.0,0.0,0.0,0.0,0.0,0.0,0.0,0.0,0.0,0.0,0.0,0.0,0.0,0.0,0.0,0.0,0.0,0.0,0.0,0.0,0.0,0.0,0.0,0.0,0.0,0.0,0.0,0.0,0.0,0.0,0.0,0.0,0.0,0.0,0.0,0.0,0.0,0.0,0.0,0.0,0.0,0.0,0.0,0.0,0.0,0.0,0.0,0.0,0.0,0.0,0.0,0.0,0.0,0.0,0.0,0.0,0.0,0.0,0.0,0.0,0.0,0.0,0.0,0.0,0.0,0.0,0.0,0.0,0.0,0.0,0.0,0.0,0.0,0.0,0.0,0.0,0.0,0.0,0.0,0.0,0.0,0.0,0.0,0.0,0.0,0.0,0.0,0.0,0.0,0.0,0.0,0.0,0.0,0.0,0.0,0.0,0.0,0.0,0.0,0.0,0.0,0.0,0.0,0.0,0.0,0.0,0.0,0.0,5.3088,5.8257,6.505,6.8105,6.6858,5.5749,4.708,0.0,0.0,0.0,0.0,0.0,0.0,0.0,0.0,0.0,0.0,0.0,0.0,0.0,0.0,0.0,0.0,0.0,0.0,0.0,0.0,0.0,0.0,0.0,0.0,0.0,0.0,0.0,0.0,0.0,0.0,0.0,0.0,0.0,0.0,0.0,0.0,0.0,0.0,0.0,0.0,0.0,0.0,0.0,0.0,0.0,0.0,0.0,0.0,0.0,0.0,0.0,0.0,0.0,0.0,0.0,0.0,0.0,0.0,0.0,0.0,0.0,0.0,0.0,0.0,0.0,0.0,0.0,0.0,0.0,0.0,0.0,0.0,0.0,0.0,0.0,0.0,0.0,0.0,0.0,0.0,0.0,0.0,0.0,0.0,0.0,0.0,0.0,0.0,0.0,0.0,0.0,0.0,0.0,0.0,0.0,0.0,0.0,0.0,0.0,0.0,0.0,0.0,0.0,0.0,0.0,0.0,0.0,0.0,5.7779,6.3504,6.9845,7.2367,7.06,6.0302,5.2017,0.0,0.0,0.0,0.0,0.0,0.0,0.0,0.0,0.0,0.0,0.0,0.0,0.0,0.0,0.0,0.0,0.0,0.0,0.0,0.0,0.0,0.0,0.0,0.0,0.0,0.0,0.0,0.0,0.0,0.0,0.0,0.0,0.0,0.0,0.0,0.0,0.0,0.0,0.0,0.0,0.0,0.0,0.0,0.0,0.0,0.0,0.0,0.0,3.8765,0.0,0.0,0.0,0.0,0.0,0.0,0.0,0.0,0.0,0.0,0.0,0.0,0.0,0.0,0.0,0.0,0.0,0.0,0.0,0.0,0.0,0.0,0.0,0.0,0.0,0.0,0.0,0.0,0.0,0.0,0.0,0.0,0.0,0.0,0.0,0.0,0.0,0.0,0.0,0.0,0.0,0.0,0.0,0.0,0.0,0.0,0.0,0.0,0.0,0.0,0.0,0.0,0.0,0.0,0.0,0.0,0.0,0.0,0.0,5.9478,6.5841,7.1609,7.4119,7.284,6.5402,5.7519,0.0,0.0,0.0,0.0,0.0,0.0,0.0,0.0,0.0,0.0,0.0,0.0,0.0,0.0,0.0,0.0,0.0,0.0,0.0,0.0,0.0,0.0,0.0,0.0,0.0,0.0,0.0,0.0,0.0,0.0,0.0,0.0,0.0,0.0,0.0,0.0,0.0,0.0,0.0,0.0,0.0,0.0,0.0,0.0,0.0,0.0,0.0,0.0,0.0,0.0,0.0,0.0,0.0,0.0,0.0,0.0,0.0,0.0,0.0,0.0,0.0,0.0,0.0,0.0,0.0,0.0,0.0,0.0,0.0,0.0,0.0,0.0,0.0,0.0,0.0,0.0,0.0,0.0,0.0,0.0,0.0,0.0,0.0,0.0,0.0,0.0,0.0,0.0,0.0,0.0,0.0,0.0,0.0,0.0,0.0,0.0,0.0,0.0,0.0,0.0,0.0,0.0,0.0,0.0,0.0,0.0,0.0,5.4092,6.0579,6.7409,7.2452,7.4916,7.4724,6.9682,6.2335,5.2757,0.0,0.0,0.0,0.0,0.0,0.0,0.0,0.0,0.0,0.0,0.0,0.0,0.0,0.0,0.0,0.0,0.0,0.0,0.0,0.0,0.0,0.0,0.0,0.0,0.0,0.0,0.0,0.0,0.0,0.0,0.0,0.0,0.0,0.0,0.0,0.0,0.0,0.0,3.6618,3.8017,0.0,0.0,0.0,0.0,0.0,0.0,0.0,0.0,4.0311,0.0,0.0,0.0,0.0,0.0,0.0,0.0,0.0,0.0,0.0,0.0,0.0,0.0,0.0,0.0,0.0,0.0,0.0,0.0,0.0,0.0,0.0,0.0,0.0,0.0,0.0,0.0,0.0,0.0,0.0,0.0,0.0,0.0,0.0,0.0,0.0,0.0,0.0,0.0,0.0,0.0,0.0,0.0,0.0,0.0,0.0,0.0,0.0,0.0,0.0,0.0,0.0,0.0,0.0,0.0,0.0,5.1561,5.7646,6.4118,7.0971,7.4842,7.6444,7.5583,6.9999,6.371,5.6947,0.0,0.0,0.0,0.0,0.0,0.0,0.0,0.0,0.0,0.0,0.0,0.0,0.0,0.0,0.0,0.0,0.0,0.0,0.0,0.0,0.0,0.0,0.0,0.0,0.0,0.0,0.0,0.0,0.0,0.0,0.0,0.0,0.0,0.0,0.0,0.0,0.0,0.0,0.0,4.0484,4.1027,0.0,0.0,0.0,0.0,0.0,0.0,0.0,0.0,4.2521,0.0,0.0,0.0,0.0,0.0,0.0,0.0,0.0,0.0,0.0,0.0,0.0,0.0,0.0,0.0,0.0,0.0,0.0,0.0,0.0,0.0,0.0,0.0,0.0,0.0,0.0,0.0,0.0,0.0,0.0,0.0,0.0,0.0,0.0,0.0,0.0,0.0,0.0,0.0,0.0,0.0,0.0,0.0,0.0,0.0,0.0,0.0,0.0,0.0,0.0,0.0,0.0,0.0,0.0,0.0,5.3681,5.9851,6.6317,7.3124,7.5859,7.6992,7.6445,7.0742,6.4531,0.0,0.0,0.0,0.0,0.0,0.0,0.0,0.0,0.0,0.0,0.0,0.0,0.0,0.0,0.0,0.0,0.0,0.0,0.0,0.0,0.0,0.0,0.0,0.0,0.0,0.0,0.0,0.0,0.0,0.0,0.0,0.0,0.0,0.0,0.0,0.0,0.0,0.0,0.0,0.0,4.3309,4.4793,4.5653,0.0,0.0,0.0,0.0,0.0,0.0,4.6457,4.5462,0.0,0.0,0.0,0.0,0.0,0.0,0.0,0.0,0.0,0.0,0.0,0.0,0.0,0.0,0.0,0.0,0.0,0.0,0.0,0.0,0.0,0.0,0.0,0.0,0.0,0.0,0.0,0.0,0.0,0.0,0.0,0.0,0.0,0.0,0.0,0.0,0.0,0.0,0.0,0.0,0.0,0.0,0.0,0.0,0.0,0.0,0.0,0.0,0.0,0.0,0.0,0.0,0.0,0.0,0.0,5.6028,6.1813,6.8003,7.457,7.6406,7.7226,7.707,7.0859,6.4414,0.0,0.0,0.0,0.0,0.0,0.0,0.0,0.0,0.0,0.0,0.0,0.0,0.0,0.0,0.0,0.0,0.0,0.0,0.0,0.0,0.0,0.0,0.0,0.0,0.0,0.0,0.0,0.0,0.0,0.0,0.0,0.0,0.0,0.0,0.0,0.0,0.0,0.0,0.0,0.0,0.0,4.8512,4.9529,4.8902,0.0,0.0,0.0,0.0,5.0458,5.0411,0.0,0.0,0.0,0.0,0.0,0.0,0.0,0.0,0.0,0.0,0.0,0.0,0.0,0.0,0.0,0.0,0.0,0.0,0.0,0.0,0.0,0.0,0.0,0.0,0.0,0.0,0.0,0.0,0.0,0.0,0.0,0.0,0.0,0.0,0.0,0.0,0.0,0.0,0.0,0.0,0.0,0.0,0.0,0.0,0.0,0.0,0.0,0.0,0.0,0.0,0.0,0.0,0.0,0.0,0.0,0.0,5.9466,6.416,6.9528,7.543,7.6719,7.7226,7.7109,6.914,6.2578,0.0,0.0,0.0,0.0,0.0,0.0,0.0,0.0,0.0,0.0,0.0,0.0,0.0,0.0,0.0,0.0,0.0,0.0,0.0,0.0,0.0,0.0,0.0,0.0,0.0,0.0,0.0,0.0,0.0,0.0,0.0,0.0,0.0,0.0,0.0,0.0,0.0,0.0,0.0,0.0,0.0,5.0467,5.203,5.1521,5.07,0.0,0.0,5.2185,5.3396,5.6558,0.0,0.0,0.0,0.0,0.0,0.0,0.0,0.0,0.0,0.0,0.0,0.0,0.0,0.0,0.0,0.0,0.0,0.0,0.0,0.0,0.0,0.0,0.0,0.0,0.0,0.0,0.0,0.0,0.0,0.0,0.0,0.0,0.0,0.0,0.0,0.0,0.0,0.0,0.0,0.0,0.0,0.0,0.0,0.0,0.0,0.0,0.0,0.0,0.0,0.0,0.0,0.0,0.0,0.0,0.0,5.1463,5.9433,6.4872,7.0312,7.5664,7.6758,7.6992,7.6445,6.8555,6.207,0.0,0.0,0.0,0.0,0.0,0.0,0.0,0.0,0.0,0.0,0.0,0.0,0.0,0.0,0.0,0.0,0.0,0.0,0.0,0.0,0.0,0.0,0.0,0.0,0.0,0.0,0.0,0.0,0.0,0.0,0.0,0.0,0.0,0.0,0.0,0.0,0.0,0.0,0.0,0.0,0.0,0.0,5.4804,5.625,0.0,0.0,0.0,5.7929,5.8318,0.0,0.0,0.0,0.0,0.0,0.0,0.0,0.0,0.0,0.0,0.0,0.0,0.0,0.0,0.0,0.0,0.0,0.0,0.0,0.0,0.0,0.0,0.0,0.0,0.0,0.0,0.0,0.0,0.0,0.0,0.0,0.0,0.0,0.0,0.0,0.0,0.0,0.0,0.0,0.0,0.0,0.0,0.0,0.0,0.0,0.0,0.0,0.0,0.0,0.0,0.0,0.0,0.0,0.0,0.0,0.0,0.0,5.9907,6.5815,7.1328,7.6328,7.6953,7.6992,7.6445,6.9023,0.0,0.0,0.0,0.0,0.0,0.0,0.0,0.0,0.0,0.0,0.0,0.0,0.0,0.0,0.0,0.0,0.0,0.0,0.0,0.0,0.0,0.0,0.0,0.0,0.0,0.0,0.0,3.6552,0.0,0.0,0.0,0.0,0.0,0.0,0.0,0.0,0.0,0.0,0.0,0.0,0.0,0.0,5.7772,5.8437,6.1094,6.2734,0.0,0.0,6.2734,6.2968,6.41,6.3592,0.0,0.0,0.0,0.0,0.0,0.0,0.0,0.0,0.0,0.0,0.0,0.0,0.0,0.0,0.0,0.0,0.0,0.0,0.0,0.0,0.0,0.0,0.0,0.0,0.0,0.0,0.0,0.0,3.7623,0.0,0.0,0.0,0.0,0.0,0.0,0.0,0.0,0.0,0.0,0.0,0.0,0.0,0.0,0.0,0.0,0.0,0.0,0.0,0.0,0.0,0.0,0.0,0.0,0.0,5.4846,6.2487,6.7846,7.3047,7.8086,7.7578,7.7539,7.8164,7.0781,6.4297,0.0,0.0,0.0,0.0,0.0,0.0,0.0,0.0,0.0,0.0,0.0,0.0,0.0,0.0,0.0,0.0,0.0,0.0,0.0,0.0,0.0,0.0,0.0,0.0,0.0,0.0,0.0,0.0,0.0,0.0,0.0,0.0,0.0,0.0,0.0,0.0,0.0,0.0,0.0,0.0,0.0,6.1015,6.3437,6.5351,6.7109,0.0,6.6836,6.5625,6.6445,7.0547,7.0429,6.078,0.0,0.0,0.0,0.0,0.0,0.0,0.0,0.0,0.0,0.0,0.0,0.0,0.0,0.0,0.0,0.0,0.0,0.0,0.0,0.0,0.0,0.0,0.0,0.0,0.0,4.0788,0.0,0.0,4.0324,0.0,0.0,0.0,0.0,0.0,0.0,0.0,0.0,0.0,0.0,0.0,0.0,0.0,0.0,0.0,0.0,0.0,0.0,0.0,0.0,0.0,0.0,0.0,0.0,5.4863,6.203,6.7769,7.3242,7.8242,7.8672,7.8398,7.7734,7.1719,6.6055,0.0,0.0,0.0,0.0,0.0,0.0,0.0,0.0,0.0,0.0,0.0,0.0,0.0,0.0,0.0,0.0,0.0,0.0,0.0,0.0,0.0,0.0,0.0,0.0,0.0,0.0,0.0,0.0,4.4608,4.5037,4.4838,0.0,0.0,0.0,0.0,0.0,0.0,0.0,0.0,0.0,0.0,6.3944,6.6992,6.9844,0.0,0.0,7.1992,7.1719,6.8867,7.0117,6.9219,6.2617,5.8242,0.0,0.0,0.0,0.0,0.0,0.0,0.0,0.0,0.0,0.0,0.0,0.0,0.0,0.0,0.0,0.0,0.0,0.0,0.0,0.0,0.0,0.0,0.0,0.0,0.0,0.0,0.0,0.0,0.0,0.0,0.0,0.0,0.0,0.0,0.0,0.0,0.0,0.0,0.0,0.0,0.0,0.0,0.0,0.0,0.0,0.0,0.0,0.0,0.0,0.0,0.0,0.0,5.5734,6.235,6.8395,7.4023,7.914,7.9531,7.9258,7.8242,7.3594,6.8711,0.0,0.0,0.0,0.0,0.0,0.0,0.0,0.0,0.0,0.0,0.0,0.0,0.0,0.0,0.0,0.0,0.0,0.0,0.0,0.0,0.0,0.0,0.0,0.0,0.0,0.0,0.0,0.0,4.6911,4.726,4.6392,0.0,0.0,0.0,0.0,0.0,0.0,0.0,0.0,0.0,0.0,6.6796,6.9414,7.2539,7.4062,7.2617,7.3594,7.3242,6.9609,6.8867,6.7265,6.293,0.0,0.0,0.0,0.0,0.0,0.0,0.0,0.0,0.0,0.0,0.0,0.0,0.0,0.0,0.0,0.0,0.0,0.0,0.0,0.0,0.0,0.0,0.0,0.0,0.0,0.0,0.0,4.656,0.0,0.0,4.4072,0.0,0.0,0.0,0.0,0.0,0.0,0.0,0.0,0.0,0.0,0.0,0.0,0.0,0.0,0.0,0.0,0.0,0.0,0.0,0.0,0.0,0.0,5.8046,6.4107,7.0114,7.5742,8.0703,8.0156,8.0117,8.0742,7.6758,7.2461,6.8008,0.0,0.0,0.0,0.0,0.0,0.0,0.0,0.0,0.0,0.0,0.0,0.0,0.0,0.0,0.0,0.0,0.0,0.0,0.0,0.0,0.0,0.0,0.0,0.0,0.0,0.0,4.5306,4.6595,4.7296,0.0,0.0,0.0,0.0,0.0,0.0,0.0,0.0,0.0,0.0,6.496,6.9609,7.0547,7.293,7.4258,7.3437,7.0625,6.8476,6.8359,6.7539,6.5469,0.0,0.0,0.0,0.0,0.0,0.0,0.0,0.0,0.0,0.0,0.0,0.0,0.0,0.0,0.0,0.0,0.0,0.0,0.0,0.0,0.0,0.0,0.0,0.0,0.0,0.0,0.0,5.4218,5.4182,0.0,0.0,0.0,0.0,0.0,0.0,0.0,0.0,0.0,0.0,0.0,5.9781,6.0969,0.0,0.0,0.0,0.0,0.0,0.0,0.0,0.0,0.0,0.0,0.0,0.0,5.8486,6.506,7.1092,7.668,8.1679,8.1601,8.1562,8.1836,7.8828,7.3828,6.668,0.0,0.0,0.0,0.0,0.0,0.0,0.0,0.0,0.0,0.0,0.0,0.0,0.0,0.0,0.0,0.0,0.0,0.0,0.0,0.0,0.0,0.0,0.0,0.0,0.0,4.9567,0.0,0.0,0.0,0.0,0.0,0.0,0.0,0.0,0.0,0.0,0.0,5.7224,6.1209,6.5195,6.8437,7.043,7.2422,7.4023,0.0,0.0,0.0,0.0,0.0,0.0,0.0,0.0,0.0,0.0,0.0,0.0,0.0,0.0,5.7344,5.3047,5.2266,5.2305,5.2304,0.0,0.0,0.0,0.0,0.0,0.0,0.0,0.0,0.0,0.0,0.0,0.0,0.0,0.0,6.0928,0.0,5.8927,0.0,0.0,0.0,0.0,0.0,0.0,0.0,0.0,6.5676,6.7931,6.7387,6.8878,6.8799,0.0,6.496,6.0479,0.0,0.0,0.0,0.0,0.0,0.0,0.0,0.0,6.0292,6.6862,7.2889,7.8164,8.25,8.2773,8.2773,8.2695,8.0,7.5273,6.8515,6.5781,6.1484,0.0,0.0,0.0,0.0,0.0,0.0,0.0,0.0,0.0,0.0,0.0,0.0,0.0,0.0,0.0,0.0,0.0,0.0,0.0,0.0,0.0,0.0,0.0,5.2106,0.0,0.0,0.0,0.0,0.0,0.0,0.0,0.0,0.0,5.487,5.7418,6.0624,6.4295,6.7031,6.8867,6.9297,0.0,0.0,0.0,0.0,0.0,0.0,0.0,6.582,6.3828,6.3789,6.4648,6.664,6.789,6.8476,6.793,0.0,0.0,6.0,5.8867,5.8789,5.8515,5.9648,6.0625,6.0625,6.1758,6.2734,0.0,0.0,0.0,0.0,0.0,0.0,0.0,0.0,6.6772,6.6419,0.0,6.5612,0.0,0.0,0.0,0.0,0.0,6.3444,0.0,0.0,7.6439,7.9257,7.6283,7.7028,7.6989,7.5814,7.1005,6.8108,6.6888,6.2063,0.0,0.0,0.0,0.0,0.0,0.0,6.3502,6.9479,7.5467,8.0195,8.3476,8.3633,8.3633,8.3515,8.0312,7.6914,7.3555,7.0937,6.7226,6.2108,5.8668,0.0,0.0,0.0,0.0,0.0,0.0,0.0,0.0,0.0,0.0,0.0,0.0,0.0,0.0,0.0,0.0,0.0,0.0,0.0,0.0,5.2339,0.0,0.0,0.0,0.0,0.0,0.0,0.0,0.0,0.0,0.0,5.9446,6.0897,6.3398,6.7577,0.0,0.0,0.0,0.0,7.2109,6.9101,6.7695,6.6914,6.6328,6.7383,6.8047,6.7226,0.0,0.0,7.207,7.2265,7.2422,7.2344,7.2539,7.1055,6.6992,6.5976,6.6015,6.6836,6.7656,6.8398,6.8515,6.9062,6.9726,7.8444,0.0,0.0,0.0,0.0,6.9968,7.2916,7.6048,7.7956,7.7627,7.5662,7.4541,0.0,0.0,0.0,0.0,0.0,0.0,7.1525,7.4351,7.9526,8.2382,8.3242,8.414,8.375,8.2187,7.9531,7.7461,7.5935,7.3319,6.7414,5.8625,0.0,0.0,0.0,0.0,6.6787,7.2144,7.7538,8.1679,8.4453,8.4531,8.4219,8.3633,8.0859,7.8594,7.7031,7.4492,7.1055,6.6562,6.3632,0.0,0.0,0.0,0.0,0.0,0.0,0.0,0.0,0.0,0.0,0.0,0.0,0.0,0.0,0.0,0.0,0.0,0.0,0.0,5.4959,5.5894,5.5343,0.0,0.0,0.0,0.0,0.0,0.0,0.0,0.0,0.0,6.7536,6.6053,6.539,0.0,0.0,6.8945,6.7968,6.9883,7.1992,7.3476,7.1914,0.0,7.4375,7.2617,7.1055,7.1406,7.4054,7.6364,7.7086,7.825,7.9268,7.9814,8.006,7.9504,7.7631,7.3862,7.164,7.2265,7.3594,7.457,7.4687,7.5703,7.6719,8.9918,8.2298,7.8115,7.6478,7.6862,7.8892,8.1554,8.4572,8.6226,8.5559,8.3231,8.261,7.8855,7.278,6.9955,0.0,0.0,0.0,7.8071,8.1792,8.4568,8.6718,8.8242,8.914,8.8632,8.6874,8.5503,8.3783,8.1716,7.9686,7.4765,6.7136,0.0,0.0,6.3536,6.6904,7.0855,7.5311,8.0078,8.3476,8.5351,8.5429,8.4844,8.3633,8.207,8.0547,7.9023,7.7461,7.4805,7.0898,6.789,6.4607,0.0,0.0,0.0,0.0,0.0,0.0,0.0,0.0,0.0,0.0,0.0,4.995,4.8939,0.0,0.0,0.0,5.617,5.8124,5.953,5.9526,0.0,0.0,0.0,0.0,0.0,0.0,0.0,6.0491,6.335,6.7066,7.1834,7.117,7.0702,7.207,7.1953,7.1523,7.082,0.0,7.457,7.664,7.5543,7.5264,7.753,7.6501,7.5823,7.7034,7.8526,8.0115,8.1208,8.2017,8.2685,8.3471,8.3797,8.3764,8.3569,8.0561,7.7987,7.7773,7.875,7.9687,7.9726,8.082,8.1758,10.0221,9.875,9.0071,8.7038,8.8017,8.8293,8.9732,9.1933,9.2341,9.1059,8.8768,8.9597,8.6255,7.9786,7.6876,0.0,8.1666,8.257,8.5154,8.9062,9.0742,9.1523,9.164,9.2419,9.1909,9.0191,8.9325,8.7641,8.5143,8.2731,8.0234,7.7773,7.3867,7.0857,6.9017,7.2029,7.535,7.8709,8.2929,8.5547,8.6367,8.6328,8.5469,8.375,8.3554,8.2304,7.9922,7.9648,7.8125,7.4922,7.1601,6.9022,6.7147,0.0,0.0,0.0,0.0,0.0,0.0,0.0,0.0,0.0,0.0,0.0,0.0,0.0,0.0,5.7889,6.1406,0.0,6.4451,6.312,0.0,0.0,0.0,6.0456,6.2024,6.3939,6.5736,6.7338,0.0,0.0,7.3787,7.6131,7.7967,7.8905,7.8086,7.6797,7.5232,7.7186,7.8906,7.8984,7.8885,7.8541,7.8401,7.9357,8.077,8.2239,8.2523,8.2546,8.3913,8.3718,8.3655,8.4376,8.4557,8.4763,8.5549,8.5332,8.517,8.2919,8.3242,8.3828,8.3828,8.4414,8.4922,10.5751,10.5338,10.2511,9.8566,9.4308,9.5627,9.6304,9.6654,9.7988,9.6882,9.4072,9.3663,9.1187,8.7231,8.657,8.683,8.7851,8.8749,9.0039,9.1719,9.2772,9.363,9.4255,9.4445,9.3621,9.198,9.108,8.9677,8.7807,8.652,8.5272,8.4062,8.3008,7.9687,7.4333,7.6131,7.8554,8.1367,8.5,8.7304,8.8047,8.75,8.6367,8.4648,8.332,8.1992,8.0742,7.9453,7.8086,7.6601,7.4531,7.2304,6.9881,6.5151,0.0,0.0,0.0,0.0,0.0,0.0,0.0,0.0,0.0,5.4134,5.281,0.0,5.914,0.0,6.4687,6.7422,6.6405,6.6522,0.0,0.0,6.5031,6.6124,6.6555,6.9878,7.2302,7.2693,7.4452,7.6796,7.9765,8.0703,8.1914,8.3945,8.1328,7.8904,7.8487,8.0587,8.2231,8.2312,8.3157,8.3789,8.2955,8.2193,8.2111,8.3049,8.2941,8.3305,8.4843,8.4427,8.4155,8.4903,8.5199,8.5325,8.5537,8.6148,8.6475,8.6002,8.6144,8.6387,8.6523,8.6719,8.6836,10.9157,10.8786,10.8009,10.5282,10.1628,10.1872,10.1608,10.1117,10.2151,10.1408,9.9272,9.6894,9.4471,9.206,9.1387,9.1324,9.1797,9.2656,9.3515,9.4335,9.5192,9.5855,9.6323,9.6278,9.5573,9.4288,9.3776,9.2684,9.1047,9.0113,8.9099,8.7929,8.75,8.5586,8.2343,8.2343,8.3164,8.4609,8.7265,8.8828,8.9219,8.8476,8.6679,8.3827,8.2421,8.0585,7.824,7.6873,7.5779,7.492,7.3592,7.2029,7.0152,6.6436,6.3658,0.0,0.0,0.0,0.0,0.0,0.0,0.0,0.0,0.0,0.0,0.0,6.3203,6.4336,6.8515,7.0586,6.9295,6.9959,7.0037,6.902,7.0152,7.1442,7.2615,7.5194,7.7031,7.7421,7.9297,8.1328,8.3203,8.4453,8.5625,8.7148,8.5586,8.3827,8.284,8.381,8.4741,8.5068,8.5812,8.6075,8.5237,8.3912,8.324,8.3916,8.3765,8.4022,8.5552,8.5178,8.4908,8.5688,8.5918,8.5973,8.6017,8.6376,8.6841,8.6911,8.7033,8.7184,8.7326,8.7372,8.7375,11.1232,11.0459,10.9784,10.9115,10.8433,10.699,10.5763,10.4843,10.5088,10.4602,10.3375,9.9524,9.7002,9.5505,9.3946,9.3736,9.4609,9.5234,9.5898,9.6597,9.7339,9.769,9.769,9.7684,9.7255,9.644,9.6396,9.5612,9.409,9.3315,9.2106,9.0544,8.9843,8.9804,9.0273,8.9101,8.832,8.8008,8.9297,9.0,9.0,8.9023,8.6562,8.2498,8.1247,7.8785,7.4795,7.3546,7.2648,7.1866,7.1202,7.0617,7.0031,6.7017,6.5333,0.0,6.146,0.0,0.0,0.0,0.0,0.0,0.0,0.0,0.0,6.5547,6.7344,7.0,7.2422,7.3515,7.2889,7.3592,7.4413,7.5155,7.5428,7.6562,7.8867,7.9961,8.0898,8.1875,8.3984,8.539,8.5664,8.7539,8.8828,8.8828,8.914,8.8554,8.7064,8.6593,8.6776,8.7205,8.6972,8.6292,8.5489,8.463,8.4317,8.5023,8.4727,8.483,8.63,8.5945,8.572,8.6371,8.6539,8.6578,8.6603,8.6616,8.6661,8.6754,8.6843,8.7007,8.7153,8.7271,8.728,11.2175,11.1671,11.1513,11.105,11.0329,10.9705,10.8133,10.6004,10.6136,10.5027,10.296,10.1438,10.0229,9.9217,9.8201,9.7851,9.8008,9.7461,9.7304,9.7457,9.7613,9.7689,9.7683,9.7681,9.7251,9.6433,9.6398,9.5893,9.4956,9.4804,9.4179,9.3203,9.3711,9.3359,9.2226,0.0,0.0,0.0,9.0195,9.0,8.9961,8.8515,8.6015,8.242,8.0076,0.0,7.4717,7.2413,7.1124,7.0968,7.1475,0.0,0.0,0.0,0.0,0.0,0.0,0.0,0.0,0.0,0.0,0.0,6.8278,6.781,6.5663,6.8007,7.1094,7.4336,7.5781,7.6679,7.7226,7.8008,7.8554,7.875,8.0,8.1328,8.2539,8.3984,8.5547,8.707,8.7656,8.8242,8.8789,8.9492,8.9687,8.962,8.9728,8.9579,8.8974,8.8833,8.8443,8.7322,8.6546,8.5931,8.5646,8.4869,8.466,8.5186,8.5265,8.5501,8.6332,8.6487,8.6332,8.6603,8.6603,8.6603,8.6603,8.6603,8.6623,8.6636,8.666,8.6757,8.7128,8.7327,8.7459,11.3661,0.0,11.2401,11.1839,0.0,11.1013,10.9755,10.7748,10.6933,10.5696,10.4101,10.2812,10.1992,10.1523,10.0234,9.9414,9.8984,9.8554,9.8124,9.7691,9.7691,9.7689,9.7687,9.7686,9.7493,9.7066,9.7029,9.6835,9.6405,9.6015,9.5625,9.5195,9.5195,9.4961,9.457,9.539,9.4765,9.2617,9.1719,9.1289,9.125,9.0039,8.7304,8.3123,8.1247,0.0,0.0,0.0,0.0,0.0,0.0,0.0,0.0,0.0,0.0,7.3718,7.143,7.0572,7.1767,7.1941,7.2497,7.3788,7.4991,7.4246,7.0937,7.3437,7.5859,7.7617,7.8945,7.9922,8.0351,8.1914,8.289,8.2969,8.4101,8.5078,8.5508,8.6289,8.7148,8.789,8.8436,8.8905,8.9293,9.006,9.0389,9.0387,9.0646,9.0619,9.0104,8.9776,8.9055,8.7763,8.6763,8.6005,8.5612,8.5579,8.5336,8.5467,8.5687,8.6075,8.6526,8.6603,8.6603,8.6603,8.6603,8.6603,8.6603,8.6603,8.6603,8.6623,8.6641,8.6738,8.6987,8.7153,8.7312,11.4848,11.3706,11.2887,11.2269,11.1846,11.1705,11.0646,10.8945,0.0,0.0,0.0,10.3594,10.289,10.2773,10.125,10.0039,9.9258,9.9062,9.8554,9.7691,9.7692,9.7692,9.7691,9.7692,9.7694,9.7695,9.7695,9.7695,9.7656,9.7031,9.664,9.6445,9.5898,9.6015,9.6679,9.6562,9.5781,9.4375,9.3359,9.2812,9.2812,9.1836,8.9062,8.4373,8.3123,8.0308,7.5693,7.3546,7.2804,7.3468,7.2179,7.2179,7.3821,7.3581,7.4068,7.5538,7.4367,7.4801,7.7606,7.7151,7.784,8.0343,8.1091,8.0182,7.7179,7.9016,8.0383,8.054,8.1984,8.289,8.2922,8.4922,8.636,8.636,8.7141,8.7656,8.7851,8.7843,8.7992,8.8184,8.8839,8.9112,8.9407,9.0367,9.108,9.1126,9.1451,9.1607,9.0854,9.0007,8.9121,8.8095,8.7265,8.65,8.5688,8.5972,8.6177,8.5469,8.5997,8.6564,8.6603,8.6603,8.6603,8.6603,8.6603,8.6603,8.6603,8.6603,8.6603,8.6603,8.6663,8.6747,8.6797,8.6878,8.7064,11.4665,11.4042,11.307,11.2669,11.2672,11.2099,11.0468,10.8086,10.6406,10.5195,10.4297,10.3359,10.289,10.2851,10.1875,10.0937,10.0078,9.9336,9.8515,9.7691,9.7694,9.7694,9.7691,9.7694,9.7695,9.7695,9.7695,9.7695,9.7695,9.7578,9.7187,9.664,9.707,9.7383,9.7461,9.6836,9.6367,9.6094,9.4531,9.3711,9.3672,9.2148,8.9921,8.699,8.4685,8.2066,7.9093,7.6007,7.4289,7.4406,7.417,7.4837,7.6559,7.7776,7.9229,8.0793,7.9993,7.9937,8.1091,8.0407,8.1043,8.3459,8.3831,8.3091,8.1282,8.2065,8.3036,8.3744,8.4607,8.522,8.5298,8.6287,8.7039,8.703,8.7687,8.8464,8.9231,8.9289,8.9745,9.0992,9.0726,9.0609,9.1205,9.1549,9.1615,9.1583,9.1539,9.1553,9.1054,9.0056,8.8872,8.8068,8.7747,8.6967,8.5771,8.6023,8.6177,8.5449,8.5991,8.6526,8.6603,8.6526,8.6526,8.6603,8.6603,8.6603,8.6603,8.6603,8.6603,8.661,8.663,8.6672,8.677,8.6817,8.6923,11.5524,11.4846,11.3568,11.3028,11.2995,11.2225,11.0664,10.8633,10.7383,10.6093,10.4844,10.3984,10.3594,10.3515,10.2695,10.1836,10.0937,10.0117,9.9218,9.8437,9.8398,9.8398,9.8397,9.8398,9.8398,9.8398,9.789,9.7695,9.7695,9.7695,9.75,9.7187,9.7539,9.7695,9.7656,9.7344,9.7148,9.7109,9.5469,9.4609,9.4609,9.3828,9.2383,9.0273,8.9062,8.7265,8.4685,8.2654,8.1556,8.1455,8.0126,8.0113,8.1678,8.1631,8.2245,8.3792,8.3601,8.3722,8.4488,8.4723,8.5046,8.5659,8.6579,8.6573,8.5271,8.5221,8.524,8.5205,8.6335,8.7114,8.7156,8.8392,8.9252,8.9213,9.007,9.0758,9.1107,9.1208,9.1501,9.2147,9.1805,9.1622,9.1993,9.1845,9.1659,9.1547,9.1192,9.0736,9.0585,8.9609,8.8782,8.8404,8.7632,8.6626,8.553,8.5976,8.6105,8.5443,8.5597,8.6061,8.641,8.63,8.6139,8.6526,8.6603,8.6603,8.6603,8.6603,8.6603,8.6603,8.6603,8.6642,8.6696,8.6732,8.689,11.6019,11.531,11.3828,11.3203,11.3086,11.207,11.0859,10.9531,10.8476,10.7265,10.6015,10.4961,10.4492,10.4414,10.3554,10.2734,10.1875,10.0976,10.0156,9.9375,9.9297,9.9297,9.9297,9.9297,9.9297,9.9219,9.8594,9.8203,9.8008,9.8203,9.8164,9.7969,9.7812,9.7695,9.7695,9.7695,9.7695,9.7617,9.6405,9.5741,9.5742,9.5781,9.5,9.3551,9.32,9.2067,8.9918,8.878,8.8101,8.7718,8.5705,8.4993,8.5871,8.4932,8.4859,8.5947,8.6168,8.6553,8.7308,8.8429,8.8798,8.8301,8.9443,8.9872,8.9146,8.8644,8.7893,8.7154,8.8425,8.9402,8.9567,9.0613,9.1515,9.1554,9.1998,9.2157,9.2295,9.2318,9.2295,9.2261,9.2125,9.1926,9.1899,9.1663,9.1436,9.1299,9.0571,8.9949,8.9816,8.9094,8.8507,8.8289,8.7457,8.623,8.5267,8.5611,8.5755,8.5113,8.5017,8.552,8.6061,8.5868,8.572,8.6371,8.6603,8.6603,8.6603,8.6603,8.6603,8.6603,8.6603,8.661,8.6636,8.669,8.6817,11.5351,11.4531,11.3593,11.3203,11.3008,11.1484,11.0664,11.0273,10.875,10.7929,10.7539,10.6093,10.539,10.5273,10.4453,10.3633,10.2773,10.1875,10.1015,10.0273,10.0195,10.0195,10.0156,10.0195,10.0195,10.0156,10.0039,9.9531,9.8945,9.9648,9.9609,9.8867,9.8086,9.7734,9.7695,9.7695,9.7695,9.7695,9.744,9.7361,9.7461,9.7461,9.6948,9.5889,9.5105,9.4207,9.3033,9.146,9.02,8.9538,8.8479,8.7546,8.7054,8.7353,8.7715,8.7839,8.776,8.8055,8.8978,9.0494,9.1643,9.2338,9.2461,9.2524,9.2373,9.2383,9.1714,9.0579,9.1495,9.2219,9.2566,9.2639,9.2612,9.2483,9.2051,9.1666,9.1598,9.1438,9.1423,9.1416,9.1475,9.1303,9.1385,9.1234,9.1142,9.0967,9.0193,8.9663,8.9663,8.844,8.7602,8.7597,8.7369,8.6416,8.4872,8.4727,8.5109,8.4396,8.4179,8.4901,8.5797,8.5829,8.5565,8.6332,8.6603,8.6603,8.6603,8.6603,8.6603,8.6603,8.6603,8.6603,8.661,8.6604,8.6687,11.5508,11.5078,11.375,11.3203,11.3086,11.2422,11.1562,11.0547,10.9843,10.8984,10.8047,10.7812,10.7187,10.6172,10.5351,10.4765,10.4375,10.3008,10.2187,10.1795,10.1326,10.1053,10.1053,10.1053,10.1093,10.1015,10.0547,10.0117,9.9883,10.0156,9.9844,9.9062,9.8633,9.8476,9.8437,9.7969,9.7654,9.7557,9.7534,9.7474,9.7457,9.7455,9.728,9.6887,9.6488,9.5903,9.5075,9.424,9.3457,9.2573,9.1209,9.0218,8.9776,8.9141,8.897,8.9429,8.992,9.0516,9.1406,9.2528,9.334,9.3688,9.4191,9.4075,9.3147,9.3418,9.3186,9.2218,9.2095,9.2412,9.2883,9.2599,9.2471,9.2768,9.2282,9.1724,9.1712,9.1676,9.1644,9.1631,9.1497,9.1354,9.1253,9.0799,9.0265,8.9787,8.9017,8.8671,8.8979,8.7709,8.6978,8.7218,8.7012,8.6368,8.5337,8.5528,8.5439,8.4839,8.432,8.4637,8.5327,8.514,8.4985,8.63,8.6526,8.6603,8.6603,8.6603,8.6603,8.6603,8.6603,8.6603,8.6603,8.6576,8.6584,11.539,11.4843,11.3672,11.3203,11.3164,11.2929,11.2265,11.1328,11.082,11.0,10.9179,10.9492,10.8828,10.7421,10.6523,10.6054,10.5664,10.4257,10.3593,10.3472,10.269,10.2298,10.2298,10.2339,10.2185,10.1953,10.1601,10.1289,10.0976,10.0469,10.0078,9.9726,9.9451,9.9175,9.894,9.8426,9.8126,9.7834,9.796,9.7928,9.7632,9.7527,9.741,9.7226,9.723,9.6918,9.633,9.6243,9.5788,9.4873,9.3564,9.2625,9.2046,9.0903,9.04,9.0749,9.16,9.2412,9.3263,9.4075,9.4663,9.4895,9.532,9.5004,9.3998,9.3804,9.3572,9.2985,9.1965,9.1796,9.3017,9.2367,9.2128,9.2806,9.2229,9.1733,9.1686,9.17,9.1676,9.1689,9.1489,9.1314,9.0968,9.0177,8.9363,8.8833,8.8055,8.7555,8.8017,8.7132,8.6363,8.694,8.6478,8.6041,8.5914,8.5491,8.5373,8.4814,8.3996,8.356,8.4611,8.4346,8.4443,8.5759,8.6216,8.6603,8.6603,8.6603,8.6519,8.6558,8.6551,8.6537,8.6569,8.6521,8.6528,11.4843,11.3437,11.3242,11.3203,11.3164,11.2383,11.2383,11.2695,11.1328,11.0976,11.1289,11.0781,11.0038,10.902,10.8124,10.7422,10.6601,10.5662,10.523,10.5112,10.4363,10.3969,10.4009,10.4055,10.3629,10.2966,10.3437,10.3359,10.2617,10.1172,10.0703,10.1367,10.0484,9.9671,9.9115,9.9386,9.9261,9.858,9.9065,9.9053,9.8353,9.8142,9.7768,9.7232,9.7021,9.6982,9.6921,9.6824,9.6442,9.5756,9.5345,9.4561,9.3178,9.2799,9.2373,9.187,9.2451,9.3302,9.4121,9.4934,9.57,9.6358,9.5932,9.5429,9.5004,9.3959,9.3186,9.2946,9.1419,9.1383,9.323,9.217,9.1739,9.2387,9.1798,9.1327,9.1236,9.1303,9.1232,9.1266,9.1266,9.0873,9.0107,8.9265,8.8872,8.8526,8.7902,8.7517,8.7555,8.6824,8.6363,8.6286,8.6201,8.5863,8.514,8.5074,8.4466,8.3825,8.3379,8.2289,8.325,8.4082,8.4611,8.5133,8.57,8.6164,8.6487,8.6519,8.6389,8.6337,8.6296,8.6321,8.6468,8.6436,8.6404,11.5117,11.3984,11.3437,11.3515,11.3906,11.3086,11.2617,11.2304,11.1718,11.0937,11.0389,11.0506,10.98,10.8465,10.8742,10.8352,10.7493,10.663,10.6236,10.6112,10.5325,10.4621,10.4113,10.4118,10.4011,10.3823,10.4021,10.3749,10.2969,10.2226,10.1754,10.1421,10.1123,10.069,10.0304,9.9931,9.9575,9.9298,9.9475,9.9363,9.8968,9.8885,9.8731,9.8443,9.7411,9.6869,9.6869,9.6841,9.6687,9.6442,9.5835,9.5243,9.4578,9.3572,9.3108,9.3263,9.3108,9.3611,9.4856,9.532,9.5893,9.6667,9.6551,9.5777,9.4856,9.4082,9.334,9.2243,9.1103,9.1083,9.1601,9.0821,9.0349,9.1363,9.0988,9.0706,9.1065,9.1201,9.1201,9.1201,9.1163,9.0671,8.9594,8.8863,8.8487,8.794,8.7594,8.7671,8.794,8.7478,8.6824,8.6786,8.6478,8.6017,8.5786,8.5551,8.5113,8.4057,8.3261,8.2887,8.3316,8.3293,8.3636,8.4177,8.488,8.5112,8.5221,8.5193,8.5232,8.5745,8.5748,8.605,8.6351,8.6323,8.633,11.4648,11.4023,11.3437,11.3515,11.3984,11.3437,11.3007,11.2617,11.2148,11.1248,11.0345,11.0462,10.9637,10.8338,10.8884,10.8803,10.8018,10.7358,10.7121,10.7033,10.6246,10.5503,10.5036,10.4923,10.4819,10.4637,10.4604,10.4021,10.3046,10.3121,10.2714,10.1854,10.1674,10.1423,10.1037,10.065,10.0329,10.0043,10.0173,10.0151,9.9777,9.9715,9.9568,9.9174,9.8176,9.7595,9.7595,9.7634,9.7479,9.7209,9.6628,9.6087,9.5468,9.4153,9.3611,9.4044,9.3688,9.3998,9.5243,9.5506,9.5893,9.6667,9.6512,9.5746,9.4353,9.3937,9.3072,9.1852,9.0805,9.0489,9.055,8.9668,8.9465,9.0843,9.0706,9.0556,9.1095,9.1201,9.1355,9.1518,9.1095,9.0364,8.9671,8.9056,8.8526,8.7872,8.7594,8.7709,8.8017,8.7555,8.6978,8.694,8.644,8.6132,8.5978,8.5865,8.5512,8.4574,8.3425,8.3123,8.2929,8.2754,8.2796,8.3336,8.3614,8.3768,8.3825,8.3796,8.4238,8.4872,8.5243,8.5544,8.5899,8.6238,8.6246,11.332,11.332,11.3203,11.3281,11.3398,11.3164,11.3593,11.3707,11.2535,11.1711,11.1312,11.096,10.9781,10.852,10.8948,10.8821,10.811,10.7886,10.7853,10.7772,10.7095,10.6657,10.6462,10.6438,10.6057,10.5437,10.5417,10.4564,10.3195,10.3592,10.3401,10.2626,10.2248,10.1806,10.0928,10.1489,10.144,10.1076,10.1517,10.1525,10.0736,10.0775,10.0496,9.9677,9.9522,9.9483,9.9406,9.9251,9.871,9.8098,9.7982,9.7247,9.5746,9.474,9.4276,9.4392,9.4276,9.4663,9.539,9.5584,9.6009,9.6551,9.6087,9.5383,9.4479,9.3646,9.2836,9.1963,9.1083,9.043,9.0384,8.9701,8.9573,9.0864,9.0902,9.0941,9.1124,9.1201,9.1518,9.1941,9.1171,9.0432,9.0556,8.9902,8.9026,8.8671,8.8171,8.7709,8.7825,8.7325,8.6517,8.6286,8.6555,8.6748,8.644,8.6055,8.5593,8.4994,8.378,8.2986,8.2886,8.2745,8.2596,8.295,8.2919,8.3027,8.3346,8.3393,8.4018,8.462,8.4828,8.526,8.5775,8.6191,8.6231,11.4609,11.4023,11.3437,11.3554,11.3867,11.2811,11.2458,11.2613,11.2062,11.1584,11.1144,11.1299,11.0507,10.9205,10.9201,10.8807,10.8059,10.8028,10.7991,10.795,10.771,10.7239,10.6812,10.67,10.6553,10.6283,10.6105,10.5515,10.4615,10.4489,10.3762,10.2601,10.2756,10.2462,10.1751,10.2361,10.2624,10.2547,10.3204,10.3204,10.2547,10.2933,10.2779,10.216,10.25,10.2577,10.1966,10.0295,9.898,9.8176,9.8098,9.7557,9.6512,9.5591,9.539,9.5855,9.539,9.5468,9.6241,9.6358,9.6474,9.6698,9.6467,9.5934,9.5185,9.469,9.4102,9.3361,9.2916,9.2734,9.2563,9.1887,9.1142,9.0402,9.0316,9.0701,9.1171,9.124,9.1325,9.1595,9.1633,9.1325,9.0624,9.0056,9.0094,8.9594,8.921,8.8893,8.8402,8.8363,8.8124,8.7325,8.7517,8.7478,8.7171,8.6863,8.6478,8.5824,8.4664,8.3541,8.3249,8.2848,8.2693,8.26,8.2484,8.2593,8.2863,8.3195,8.3826,8.4458,8.4889,8.5373,8.5942,8.6129,8.6192,11.4492,11.3945,11.3437,11.332,11.3437,11.2302,11.1712,11.1394,11.1074,11.0633,11.0268,11.0264,10.9829,10.8959,10.8801,10.8527,10.8018,10.8018,10.8018,10.8018,10.8018,10.7669,10.72,10.72,10.6909,10.6656,10.6731,10.6143,10.5016,10.4761,10.4072,10.3274,10.3225,10.322,10.2872,10.3359,10.3544,10.3319,10.3921,10.3952,10.3471,10.3913,10.4123,10.3736,10.4109,10.397,10.3166,10.158,10.0226,9.9143,9.8485,9.7827,9.7286,9.6512,9.6241,9.6551,9.6358,9.6241,9.6706,9.6744,9.6807,9.6777,9.6738,9.6305,9.5562,9.5296,9.4822,9.412,9.3812,9.3838,9.3675,9.3332,9.2402,9.1479,9.1124,9.1133,9.1595,9.1672,9.171,9.1825,9.1864,9.1556,9.1287,9.0855,9.1056,9.047,9.0086,8.9816,8.9325,8.9248,8.8671,8.8248,8.8248,8.8141,8.791,8.7641,8.7325,8.6632,8.5756,8.4763,8.4125,8.3448,8.3056,8.3018,8.2987,8.3018,8.3256,8.3171,8.3517,8.417,8.5008,8.5363,8.5841,8.6063,8.6151,11.3281,11.3203,11.3125,11.2655,11.2028,11.1714,11.1158,11.0474,10.9767,10.9446,10.9197,10.8959,10.841,10.8176,10.833,10.8252,10.8018,10.8018,10.8018,10.8018,10.8018,10.7901,10.7864,10.7809,10.7328,10.6735,10.7125,10.6458,10.4933,10.4855,10.4525,10.4238,10.3762,10.366,10.4054,10.4341,10.406,10.3615,10.4147,10.4143,10.3348,10.4065,10.4456,10.4379,10.4562,10.4294,10.3451,10.2848,10.2044,10.0613,9.9027,9.8253,9.8021,9.7363,9.7054,9.717,9.6976,9.7008,9.7008,9.7186,9.7117,9.7132,9.6946,9.6428,9.5828,9.5521,9.5075,9.442,9.4196,9.4027,9.4027,9.3835,9.371,9.3633,9.2826,9.2518,9.2518,9.2556,9.2479,9.2326,9.1864,9.1518,9.2095,9.1595,9.1402,9.1171,9.0624,9.0163,8.997,8.971,8.9064,8.891,8.9056,8.8979,8.8863,8.8556,8.8248,8.7632,8.6901,8.617,8.517,8.4379,8.3471,8.3425,8.3656,8.3648,8.3678,8.3708,8.4016,8.4863,8.5324,8.547,8.5739,8.6094,8.6478,11.3789,11.3125,11.2499,11.2107,11.1714,11.057,10.9894,10.965,10.9402,10.9236,10.9308,10.9738,10.9347,10.8996,10.8879,10.8605,10.8135,10.8018,10.8018,10.8018,10.8018,10.8018,10.7961,10.7817,10.7554,10.7239,10.707,10.6455,10.5514,10.5664,10.5323,10.4266,10.4619,10.4559,10.4318,10.4868,10.5004,10.49,10.5595,10.5586,10.4942,10.5539,10.5711,10.5209,10.5699,10.5327,10.4035,10.2824,10.1773,10.0651,9.9607,9.898,9.8988,9.871,9.8555,9.8477,9.8593,9.8571,9.8524,9.8508,9.8507,9.8425,9.7787,9.7341,9.7122,9.6379,9.5949,9.5661,9.5643,9.5557,9.548,9.5027,9.472,9.4566,9.3941,9.3441,9.3403,9.3364,9.3172,9.2672,9.2787,9.2556,9.2018,9.2018,9.2133,9.2018,9.1518,9.0932,9.0941,9.071,9.0287,9.0017,8.997,8.9932,8.9825,8.9509,8.9133,8.8603,8.8102,8.7718,8.6632,8.5563,8.4524,8.3755,8.4456,8.464,8.4632,8.4632,8.517,8.594,8.6017,8.6286,8.6286,8.6555,8.7017,11.3672,11.3164,11.2654,11.2026,11.128,11.0247,10.9451,10.8818,10.8768,10.8762,10.8879,10.923,10.9191,10.8762,10.8723,10.8488,10.8057,10.8369,10.833,10.7972,10.7894,10.7833,10.7775,10.7659,10.7475,10.7225,10.6958,10.6545,10.6031,10.6025,10.5611,10.5282,10.5309,10.5289,10.5375,10.5636,10.5724,10.5542,10.615,10.6179,10.5399,10.617,10.6304,10.6014,10.638,10.5933,10.4288,10.2988,10.1964,10.1169,10.0342,9.9839,9.9839,9.9839,9.9669,9.9328,9.9553,9.9629,9.9255,9.9153,9.9111,9.8957,9.8454,9.8255,9.8064,9.7624,9.7288,9.6826,9.6826,9.6634,9.6288,9.5826,9.5557,9.548,9.5095,9.4634,9.4296,9.4258,9.3835,9.3403,9.3326,9.3403,9.2326,9.271,9.2903,9.2941,9.2672,9.2402,9.2287,9.1979,9.1672,9.1325,9.0932,9.0787,9.0594,9.0287,9.0239,8.9748,8.9363,8.9017,8.7825,8.6748,8.6209,8.5517,8.564,8.5717,8.594,8.6209,8.6863,8.7325,8.7171,8.7226,8.7388,8.7561,8.7938,11.3047,11.3046,11.2887,11.1903,11.0567,11.0318,10.9326,10.8217,10.8098,10.8057,10.8096,10.8057,10.8213,10.8018,10.8174,10.8014,10.8,10.8498,10.8409,10.798,10.7667,10.7546,10.7452,10.7432,10.7207,10.6905,10.6794,10.6599,10.6257,10.5755,10.5852,10.6025,10.5745,10.5937,10.6227,10.6545,10.6208,10.5756,10.617,10.6131,10.5668,10.6131,10.6391,10.6411,10.6256,10.5792,10.4508,10.3493,10.2783,10.2159,10.1363,10.1154,10.1076,10.1007,10.0705,10.0262,10.0623,10.0513,9.9733,9.9716,9.9411,9.936,9.9217,9.8997,9.8894,9.8682,9.8173,9.7403,9.7596,9.7288,9.6634,9.6365,9.6172,9.6134,9.6211,9.6019,9.5374,9.5143,9.4797,9.398,9.3864,9.3826,9.371,9.371,9.371,9.3787,9.3557,9.3326,9.3172,9.2941,9.271,9.2518,9.2056,9.1595,9.1325,9.1018,9.1133,9.1018,9.0671,9.0094,8.8786,8.794,8.794,8.7718,8.7218,8.7333,8.7795,8.8218,8.8487,8.8661,8.8502,8.8733,8.9011,8.9138,8.9431,11.2185,11.2067,11.0686,10.9933,10.9498,10.8855,10.8375,10.8018,10.8018,10.8018,10.8018,10.8018,10.8016,10.7977,10.7968,10.7902,10.7689,10.7947,10.7736,10.741,10.7344,10.7139,10.6998,10.7001,10.6913,10.6765,10.6602,10.6457,10.631,10.6349,10.6205,10.633,10.6361,10.6284,10.6448,10.6496,10.6427,10.6205,10.6359,10.632,10.6146,10.6233,10.6407,10.6379,10.5968,10.5515,10.5042,10.4279,10.3802,10.3597,10.349,10.3422,10.3246,10.316,10.2958,10.2662,10.2344,10.2155,10.1804,10.1151,10.0892,10.0692,10.0135,9.9817,9.9769,9.925,9.8519,9.7865,9.8096,9.8096,9.725,9.6634,9.6442,9.648,9.6826,9.6865,9.6211,9.6019,9.5634,9.4989,9.4681,9.4489,9.3873,9.3903,9.4095,9.445,9.445,9.4172,9.4018,9.3912,9.3681,9.3441,9.3018,9.2556,9.2441,9.2172,9.2133,9.2133,9.1864,9.1325,8.9979,8.9133,8.9133,8.8872,8.8487,8.8833,8.941,8.9026,8.9064,8.9426,8.9902,9.0064,9.0279,9.0533,9.0847,11.1285,11.1206,11.0289,10.969,10.9258,10.8811,10.8369,10.8057,10.8018,10.8018,10.8018,10.8018,10.7956,10.783,10.7782,10.7667,10.7452,10.7407,10.7521,10.7474,10.7248,10.6882,10.6653,10.6619,10.661,10.6659,10.6959,10.679,10.6674,10.7059,10.7213,10.651,10.678,10.6723,10.6433,10.6395,10.6405,10.6367,10.6395,10.6395,10.6395,10.6395,10.6395,10.6367,10.5994,10.5687,10.5158,10.5264,10.5178,10.538,10.5842,10.5736,10.4769,10.4315,10.4143,10.3913,10.3287,10.2547,10.201,10.1712,10.1501,10.1866,10.1135,10.1058,10.0943,10.0481,9.9635,9.9058,9.9019,9.8952,9.7673,9.7211,9.6903,9.6942,9.725,9.7288,9.698,9.6865,9.6557,9.5865,9.5595,9.5403,9.5095,9.4711,9.4864,9.5441,9.548,9.5249,9.5095,9.4941,9.4527,9.422,9.3826,9.3557,9.3518,9.3364,9.3172,9.3133,9.2941,9.2364,9.1441,9.0787,9.0325,8.9863,8.944,9.0325,9.071,9.0218,9.0051,9.0914,9.1412,9.1423,9.156,9.1914,9.2184,11.0385,11.0382,11.0244,10.9764,10.9176,10.9043,10.8605,10.8057,10.7963,10.7905,10.791,10.7907,10.7686,10.7572,10.755,10.7386,10.7203,10.7104,10.72,10.7456,10.6989,10.6676,10.6477,10.6427,10.662,10.6674,10.7251,10.7213,10.7213,10.7829,10.7675,10.6905,10.7049,10.6944,10.6472,10.6395,10.6395,10.6395,10.6636,10.6549,10.651,10.6549,10.6626,10.6367,10.6328,10.6031,10.5695,10.5887,10.63,10.6472,10.7752,10.7459,10.6372,10.5311,10.4714,10.4658,10.407,10.3348,10.2597,10.1991,10.1904,10.2674,10.202,10.1981,10.2327,10.1904,10.1019,10.0327,9.9904,9.925,9.8057,9.7788,9.7711,9.775,9.7788,9.7827,9.7711,9.775,9.7519,9.6403,9.6057,9.5903,9.598,9.5826,9.6134,9.6288,9.6288,9.6249,9.6057,9.5865,9.5365,9.5172,9.4903,9.4788,9.4749,9.4595,9.4403,9.4018,9.3903,9.3364,9.2749,9.2287,9.1633,9.071,9.0586,9.1248,9.154,9.1047,9.133,9.2439,9.3013,9.312,9.3224,9.3366,9.3833,10.9512,10.9462,10.8738,10.8336,10.8258,10.8215,10.8128,10.7966,10.7752,10.7671,10.7652,10.7432,10.7355,10.7287,10.7243,10.7094,10.6898,10.6753,10.6661,10.6835,10.6642,10.6581,10.659,10.6703,10.6895,10.7367,10.7752,10.7636,10.7559,10.7713,10.8021,10.7482,10.7136,10.6741,10.6587,10.6433,10.6626,10.6818,10.7175,10.7213,10.6905,10.7136,10.7059,10.6549,10.6472,10.6367,10.6251,10.629,10.6395,10.6433,10.6664,10.7387,10.7967,10.8016,10.7582,10.6725,10.5792,10.4743,10.3943,10.3058,10.2981,10.3251,10.2904,10.2828,10.3174,10.2828,10.1866,10.0981,9.9981,9.9211,9.9644,9.8942,9.8634,9.8711,9.9029,9.9211,9.8875,9.8865,9.8557,9.7019,9.6596,9.6288,9.6288,9.6288,9.6288,9.6288,9.6288,9.6288,9.6211,9.6172,9.6019,9.598,9.6057,9.6019,9.598,9.5826,9.5595,9.498,9.4711,9.4326,9.3826,9.3604,9.295,9.1998,9.1318,9.1429,9.1553,9.1662,9.2492,9.3536,9.4207,9.4799,9.5104,9.5401,9.6589,10.8648,10.8517,10.7717,10.7522,10.7668,10.7307,10.7303,10.7533,10.7442,10.7397,10.7365,10.7231,10.7094,10.7037,10.7001,10.6858,10.661,10.6487,10.6395,10.6433,10.6818,10.7098,10.7126,10.7405,10.7598,10.7867,10.8059,10.8252,10.8444,10.9367,10.879,10.8021,10.8021,10.7982,10.7405,10.7559,10.7598,10.779,10.8059,10.8136,10.7675,10.8136,10.7636,10.6828,10.679,10.6828,10.651,10.6905,10.7059,10.7251,10.7944,10.8713,10.9406,10.9752,10.9444,10.7905,10.6597,10.5405,10.4674,10.3635,10.3712,10.4289,10.3751,10.3482,10.3558,10.3058,10.2251,10.1356,10.0866,10.0058,10.0029,9.9721,9.9529,9.9519,9.9875,9.9875,9.9721,9.9913,9.9019,9.775,9.7365,9.6942,9.6288,9.6288,9.6288,9.6288,9.6288,9.6288,9.6288,9.6288,9.6288,9.6288,9.6288,9.6288,9.6288,9.6249,9.6211,9.5788,9.546,9.5075,9.4889,9.4599,9.3987,9.3183,9.2649,9.2553,9.2457,9.2864,9.3723,9.4579,9.5208,9.5902,9.6794,9.7658,9.8573,10.757,10.7315,10.6575,10.6572,10.6849,10.6481,10.6473,10.689,10.7087,10.7139,10.7132,10.7051,10.6882,10.6752,10.6697,10.6601,10.6405,10.6405,10.6395,10.6549,10.7203,10.7675,10.7867,10.8213,10.8329,10.8175,10.8175,10.8675,10.8713,10.9752,10.9483,10.879,10.9406,10.9367,10.829,10.8406,10.8829,10.8944,10.9136,10.9136,10.8944,10.8675,10.7982,10.6597,10.7098,10.7098,10.6856,10.6982,10.7559,10.8021,10.879,10.9675,11.0214,11.0868,11.0252,10.8367,10.6713,10.5597,10.4943,10.4559,10.4866,10.5636,10.4866,10.4559,10.4174,10.3674,10.252,10.1625,10.1471,10.1135,10.0596,10.0375,10.0337,10.0327,10.0327,10.0327,10.0375,10.0337,10.0029,9.9058,9.8404,9.7673,9.7057,9.6673,9.6711,9.6326,9.6288,9.6288,9.6288,9.6288,9.6288,9.6288,9.6288,9.6288,9.6288,9.6288,9.6249,9.6095,9.5969,9.5765,9.5683,9.5589,9.5076,9.4815,9.4832,9.4726,9.4371,9.4105,9.4901,9.5659,9.6281,9.7298,9.8602,9.9092,9.9532,10.603,10.5356,10.4965,10.49,10.511,10.5571,10.5898,10.6097,10.647,10.6827,10.661,10.6599,10.6469,10.6497,10.6477,10.6417,10.6405,10.6395,10.6395,10.651,10.729,10.7713,10.7752,10.7752,10.8329,10.8367,10.8136,10.7867,10.8175,10.8944,10.9252,10.8906,10.906,10.8944,10.8906,10.9136,10.8867,10.9098,10.9713,10.9675,10.8944,10.829,10.7482,10.6751,10.6559,10.6867,10.7136,10.7098,10.7328,10.8444,10.8213,10.8829,10.9867,11.0252,11.0291,10.9713,10.8983,10.8098,10.7098,10.6367,10.6213,10.6751,10.6444,10.6164,10.552,10.4482,10.3135,10.1471,10.202,10.2135,10.1558,10.125,10.1202,10.1212,10.125,10.1212,10.1173,10.0827,10.0481,10.0289,9.9558,9.8634,9.7865,9.748,9.7134,9.6673,9.6326,9.6403,9.6326,9.6365,9.6288,9.6288,9.6288,9.6288,9.6288,9.6288,9.634,9.6352,9.6492,9.6515,9.6659,9.6768,9.7081,9.6856,9.685,9.6542,9.5988,9.5899,9.6238,9.6976,9.7937,9.931,10.0829,10.0915,10.0681,10.3728,10.4619,10.3095,10.3231,10.421,10.3311,10.3591,10.457,10.4523,10.4712,10.5195,10.5582,10.5905,10.6203,10.6395,10.6395,10.6395,10.6395,10.6395,10.6549,10.7213,10.7675,10.7982,10.8559,10.9098,10.829,10.8213,10.7752,10.7867,10.8636,10.9444,10.906,10.9829,11.0175,10.9752,11.0137,11.0367,11.0521,11.0637,11.0214,10.9175,10.8482,10.7752,10.6521,10.6433,10.6751,10.6982,10.7251,10.7367,10.8329,10.8521,10.9367,11.0175,11.0637,11.0944,11.0868,11.0098,10.9021,10.7829,10.7367,10.7405,10.7482,10.729,10.6944,10.6318,10.529,10.4135,10.2943,10.3558,10.3482,10.2904,10.2789,10.2789,10.2674,10.2251,10.2097,10.1904,10.1404,10.1096,10.0904,10.075,9.9981,9.9211,9.8788,9.8365,9.775,9.7442,9.7442,9.7019,9.6557,9.6442,9.6288,9.6288,9.6288,9.6288,9.6297,9.6459,9.6625,9.7263,9.7364,9.7735,9.7954,9.8331,9.8427,9.8204,9.7849,9.7461,9.7514,9.7762,9.8723,9.9758,10.0671,10.1541,10.2047,10.1891,10.1165,10.2926,10.111,10.1352,10.2743,10.1034,10.1461,10.3049,10.2886,10.303,10.3482,10.402,10.4674,10.5597,10.5713,10.5867,10.6395,10.6395,10.6395,10.6674,10.7175,10.7636,10.8059,10.8944,10.9098,10.7944,10.8252,10.7867,10.779,10.8329,10.906,10.8983,11.0483,11.0944,11.0868,11.0983,11.128,11.128,11.1357,11.0675,10.956,10.9252,10.8367,10.751,10.7049,10.7136,10.7405,10.7636,10.8021,10.906,10.9521,11.0137,11.0637,11.1098,11.1357,11.128,11.0752,10.9944,10.8867,10.8213,10.7944,10.7713,10.7328,10.679,10.6059,10.5405,10.4761,10.3751,10.4443,10.4453,10.4097,10.3789,10.3674,10.3443,10.3212,10.3058,10.2789,10.2212,10.2058,10.2212,10.202,10.1712,10.0981,10.0327,9.9673,9.8942,9.8634,9.8481,9.7913,9.723,9.697,9.6911,9.6917,9.681,9.6472,9.6506,9.6622,9.71,9.7768,9.8311,9.8742,9.923,9.9652,9.9651,9.9601,9.9332,9.9013,9.9116,9.9263,9.9856,10.0475,10.1145,10.1854,10.2476,10.314,9.8483,9.919,9.9007,9.9093,9.9393,9.9913,10.0596,10.152,10.2135,10.2404,10.2558,10.2212,10.2904,10.3905,10.4559,10.5174,10.6328,10.6395,10.6395,10.6664,10.7213,10.7482,10.7905,10.8367,10.8867,10.8444,10.8213,10.7829,10.7675,10.7944,10.8559,10.9021,11.056,11.1214,11.1357,11.1395,11.1511,11.1511,11.1511,11.106,11.0252,10.9906,10.9444,10.8829,10.8675,10.906,10.979,10.9175,10.929,11.0483,11.0483,11.0637,11.1137,11.1357,11.1511,11.1434,11.1357,11.0637,10.979,10.906,10.8482,10.779,10.7175,10.6751,10.6213,10.552,10.48,10.4482,10.529,10.5069,10.4482,10.3943,10.4289,10.4251,10.4174,10.3905,10.352,10.2981,10.2904,10.3328,10.3212,10.2751,10.2597,10.1904,10.0981,10.025,9.9221,9.9029,9.8874,9.8315,9.7987,9.7837,9.7812,9.7511,9.6906,9.7032,9.7581,9.8225,9.8885,9.9415,9.9868,10.0391,10.1554,10.1252,10.13,10.0938,10.0716,10.089,10.0958,10.0784,10.1188,10.2164,10.2672,10.3179,10.3999,9.7049,9.725,9.7288,9.7865,9.875,9.8057,9.8519,9.9596,9.9558,10.0442,10.1779,10.2058,10.2751,10.3751,10.4482,10.4905,10.5636,10.6203,10.6318,10.6433,10.6741,10.6867,10.7175,10.7598,10.7905,10.7636,10.7521,10.7713,10.7713,10.8136,10.8944,10.979,11.0483,11.0944,11.1291,11.1511,11.1511,11.1511,11.1434,11.106,11.0406,11.0137,10.9752,10.8983,10.8906,10.9021,10.9329,10.9637,11.0098,11.056,11.0868,11.1165,11.1395,11.1472,11.1511,11.1511,11.1511,11.1098,11.0406,10.9867,10.956,10.9213,10.8482,10.7713,10.7175,10.7328,10.6636,10.6405,10.6482,10.6482,10.5674,10.5443,10.551,10.5328,10.5097,10.4828,10.452,10.4059,10.4059,10.4636,10.4135,10.3482,10.3482,10.3443,10.2481,10.152,10.0442,9.9625,9.967,9.9539,9.9176,9.8871,9.8834,9.8731,9.8162,9.838,9.8712,9.9328,10.0016,10.0652,10.136,10.3081,10.3885,10.3487,10.2945,10.2711,10.2633,10.275,10.2593,10.2125,10.2593,10.353,10.3882,10.4038,10.4741,9.6288,9.6288,9.6288,9.698,9.7827,9.6788,9.7096,9.8134,9.7865,9.8557,10.0558,10.1019,10.2097,10.3289,10.3982,10.4982,10.552,10.6126,10.6318,10.6433,10.6433,10.6395,10.6703,10.7126,10.7598,10.7059,10.7559,10.8098,10.8175,10.8675,10.929,10.9867,11.0252,11.0752,11.1329,11.1511,11.1511,11.1511,11.1434,11.1291,11.0637,11.0598,11.0483,10.9867,10.9867,10.9867,11.006,11.0367,11.0598,11.0868,11.1098,11.1434,11.1511,11.1511,11.1511,11.1511,11.1434,11.1165,11.0714,11.0021,10.9867,10.9406,10.9136,10.879,10.8906,10.8906,10.7944,10.7444,10.7982,10.8059,10.6741,10.6433,10.6164,10.5905,10.6251,10.6136,10.602,10.5713,10.5751,10.5944,10.5443,10.5328,10.5559,10.5597,10.4251,10.3251,10.2327,10.1558,10.1217,10.0979,10.045,10.0137,9.9883,9.978,9.9614,9.9605,9.969,10.0381,10.1123,10.2161,10.3188,10.4774,10.517,10.4116,10.3843,10.4272,10.4038,10.3452,10.3296,10.3257,10.3843,10.4428,10.5053,10.5248,10.5599,9.6288,9.6288,9.6288,9.6365,9.6519,9.6326,9.6788,9.748,9.7519,9.8096,9.8942,9.8557,9.9981,10.2212,10.302,10.4135,10.579,10.6241,10.6395,10.6395,10.6395,10.6395,10.6636,10.7059,10.7328,10.7829,10.8136,10.8444,10.8752,10.9021,10.956,11.0137,11.0483,11.0752,11.1472,11.1511,11.1511,11.1511,11.1511,11.1434,11.1368,11.1291,11.1165,11.1049,11.1011,11.0934,11.1011,11.1049,11.1214,11.1291,11.1357,11.1511,11.1511,11.1511,11.1511,11.1511,11.1511,11.1472,11.1318,10.9867,10.9472,10.9483,10.9444,10.9164,10.9011,10.8934,10.8846,10.8287,10.8413,10.8077,10.7433,10.7049,10.6797,10.6815,10.7199,10.749,10.7364,10.7521,10.7559,10.778,10.778,10.778,10.801,10.778,10.6213,10.5097,10.4212,10.3492,10.2902,10.2469,10.1987,10.1639,10.1351,10.1041,10.0912,10.0534,10.0699,10.1414,10.2349,10.344,10.4338,10.54,10.5365,10.4665,10.5131,10.5951,10.4936,10.3765,10.4663,10.556,10.4702,10.5014,10.5756,10.6497,10.6888,9.6288,9.6288,9.6288,9.6288,9.6288,9.6288,9.648,9.6788,9.7288,9.798,9.8634,9.8442,9.9865,10.1904,10.2751,10.3674,10.5328,10.628,10.6395,10.6395,10.6395,10.6395,10.6549,10.6713,10.6895,10.7087,10.7675,10.8559,10.8906,10.9444,11.0252,11.0868,11.0944,11.1203,11.1434,11.1511,11.1511,11.1511,11.1511,11.1511,11.1511,11.1511,11.1511,11.1511,11.1511,11.1511,11.1511,11.1511,11.1511,11.1511,11.1511,11.15,11.15,11.15,11.15,11.15,11.15,11.144,11.1358,11.0721,11.06,11.0402,11.0049,10.9748,10.9656,10.9634,10.9365,10.9096,10.9068,10.875,10.8393,10.8201,10.7988,10.7971,10.8278,10.8717,10.8865,10.9182,10.9444,10.9797,10.994,10.9128,10.8991,10.9329,10.8206,10.7045,10.6141,10.4864,10.4062,10.3921,10.3597,10.3242,10.2915,10.2551,10.2253,10.2232,10.2279,10.2902,10.3878,10.4932,10.5715,10.638,10.7044,10.7122,10.7395,10.7551,10.7044,10.6849,10.7669,10.8059,10.7044,10.6497,10.72,10.7786,10.8176,9.6288,9.6288,9.6288,9.6288,9.6288,9.6288,9.6288,9.6403,9.6865,9.7557,9.8211,9.8365,9.9712,10.1597,10.2597,10.352,10.5059,10.5982,10.6395,10.6395,10.6395,10.6395,10.6395,10.6395,10.651,10.6703,10.7559,10.8482,10.8983,11.0098,11.0868,11.128,11.1511,11.1472,11.1511,11.1511,11.1511,11.1511,11.1511,11.1511,11.1511,11.1511,11.1511,11.1511,11.1511,11.1511,11.1511,11.1511,11.1511,11.15,11.144,11.1418,11.1418,11.1457,11.1396,11.1374,11.1341,11.1307,11.1224,11.1585,11.1504,11.1626,11.1001,11.0617,11.0462,11.0429,11.0171,10.9979,10.9957,10.9661,10.9315,10.9162,10.8826,10.8769,10.944,10.9929,11.0397,11.0743,11.1478,11.183,11.1758,11.0869,11.0051,11.022,11.0123,10.9108,10.8087,10.6778,10.5496,10.534,10.514,10.4736,10.4592,10.4353,10.4216,10.4227,10.435,10.4506,10.5326,10.6263,10.6966,10.7629,10.8605,10.9464,10.9269,10.9269,10.9816,11.0089,10.9777,10.9581,10.9191,10.8877,10.8916,10.9072,10.9386,9.6288,9.6288,9.6288,9.6288,9.6288,9.6288,9.6288,9.6326,9.6326,9.6788,9.7519,9.7634,9.9096,10.1164,10.2212,10.352,10.4982,10.5982,10.628,10.6395,10.6395,10.6395,10.6395,10.6395,10.6395,10.6944,10.7713,10.8482,10.906,11.0483,11.1329,11.1472,11.1511,11.1511,11.1511,11.1511,11.1511,11.1511,11.1511,11.1511,11.1511,11.1511,11.1511,11.1511,11.1511,11.15,11.1489,11.1478,11.1478,11.1407,11.1352,11.128,11.1307,11.1307,11.1189,11.1132,11.1147,11.1276,11.143,11.1955,11.23,11.2335,11.1842,11.1504,11.1366,11.1323,11.1043,11.0825,11.0748,11.0437,11.0115,10.9674,10.9221,10.9831,11.0706,11.1251,11.1811,11.2471,11.34,11.3734,11.3635,11.2959,11.1933,11.1803,11.1441,11.0639,10.9686,10.9064,10.7896,10.7038,10.6719,10.6035,10.597,10.6175,10.6107,10.5873,10.5912,10.5951,10.6575,10.7395,10.8098,10.8801,10.9581,11.0206,11.0518,11.0789,11.1182,11.1065,11.0672,11.0555,11.0635,11.0126,10.9774,11.0165,11.044,9.6288,9.6288,9.6288,9.6288,9.6288,9.6288,9.6288,9.6288,9.6288,9.6749,9.7519,9.7519,9.8942,10.1279,10.2212,10.3558,10.4866,10.5905,10.629,10.6395,10.6395,10.6395,10.6395,10.6395,10.6395,10.6741,10.7482,10.8444,10.9175,11.0637,11.1511,11.1511,11.1511,11.1511,11.1511,11.1511,11.1511,11.1511,11.1511,11.1511,11.1511,11.1511,11.1511,11.15,11.15,11.1429,11.1374,11.1363,11.133,11.1239,11.1166,11.1143,11.1182,11.1182,11.1135,11.12,11.1524,11.1911,11.2025,11.2626,11.3085,11.3085,11.2867,11.2867,11.2675,11.233,11.1973,11.1729,11.1614,11.1397,11.1344,11.0989,11.0802,11.1388,11.2125,11.2669,11.3215,11.3849,11.4717,11.4912,11.485,11.4118,11.322,11.2775,11.2358,11.1748,11.1172,11.0665,10.9976,10.9044,10.8317,10.7566,10.7747,10.802,10.7434,10.7083,10.7239,10.7434,10.802,10.8684,10.9581,11.0245,11.0635,11.126,11.2002,11.2275,11.2431,11.2236,11.208,11.2002,11.2002,11.1299,11.0828,11.1221,11.1338,9.5288,9.5326,9.5672,9.598,9.6288,9.6288,9.6288,9.6288,9.6288,9.6634,9.7019,9.7365,9.875,10.075,10.2058,10.3482,10.5097,10.5944,10.6395,10.6395,10.6395,10.6395,10.6395,10.6395,10.6395,10.6703,10.729,10.8175,10.9175,11.0511,11.1511,11.1511,11.1511,11.1511,11.1511,11.1511,11.1511,11.1511,11.1511,11.1511,11.1511,11.15,11.1451,11.1418,11.1407,11.1352,11.1262,11.1239,11.1193,11.1073,11.1061,11.1001,11.1028,11.1004,11.1322,11.1451,11.1811,11.2284,11.2615,11.338,11.3725,11.384,11.3878,11.4031,11.3763,11.338,11.296,11.2615,11.2577,11.2552,11.2603,11.2641,11.2832,11.3073,11.3636,11.4144,11.464,11.5135,11.5494,11.579,11.5419,11.4689,11.4119,11.3746,11.3274,11.267,11.2239,11.1866,11.1221,11.0418,10.9735,10.9098,10.954,11.0011,10.9347,10.8957,10.9308,10.9464,10.9347,11.0089,11.1065,11.1768,11.2236,11.2978,11.3839,11.3917,11.3839,11.3837,11.3719,11.3602,11.3565,11.3368,11.2822,11.247,11.2353,9.371,9.3835,9.4643,9.5489,9.6172,9.6249,9.6288,9.6288,9.6288,9.6288,9.648,9.7288,9.8634,10.0404,10.202,10.3635,10.4982,10.5982,10.6395,10.6395,10.6395,10.6395,10.6395,10.6395,10.6395,10.6713,10.7328,10.8213,10.929,11.056,11.1511,11.1511,11.1511,11.1511,11.1511,11.1511,11.15,11.1429,11.1429,11.1429,11.144,11.144,11.1418,11.1319,11.1285,11.1239,11.1147,11.1111,11.1061,11.1013,11.0953,11.088,11.0843,11.0843,11.1277,11.185,11.2144,11.2883,11.3506,11.4284,11.4653,11.4729,11.4665,11.4882,11.4666,11.4055,11.3533,11.3444,11.3418,11.3418,11.3431,11.3457,11.3583,11.4016,11.4528,11.4809,11.5064,11.5421,11.5651,11.5881,11.5766,11.5114,11.4756,11.4383,11.4279,11.3678,11.316,11.2873,11.2667,11.1893,11.1442,11.093,11.1412,11.1924,11.1924,11.165,11.1846,11.1807,11.1416,11.1846,11.3017,11.3524,11.3878,11.4385,11.4815,11.5166,11.5244,11.501,11.4854,11.4971,11.5049,11.5439,11.501,11.4112,11.3722,9.3672,9.3787,9.4643,9.5143,9.5403,9.6019,9.6288,9.6288,9.6288,9.6288,9.6557,9.7788,9.9067,10.0375,10.2404,10.4059,10.5136,10.5982,10.6318,10.6395,10.6395,10.6395,10.6395,10.6395,10.6433,10.6674,10.7367,10.8559,10.9752,11.0829,11.1511,11.1511,11.1511,11.1511,11.1511,11.1511,11.1429,11.1385,11.1352,11.1341,11.133,11.133,11.1296,11.1178,11.1158,11.1138,11.1054,11.0967,11.088,11.0805,11.0767,11.0742,11.0742,11.0717,11.1175,11.1914,11.2666,11.3557,11.455,11.52,11.5543,11.5811,11.5811,11.5658,11.5314,11.4588,11.4219,11.4233,11.4207,11.4207,11.4246,11.4258,11.4334,11.4845,11.5267,11.533,11.5419,11.5585,11.5764,11.5829,11.5855,11.566,11.5324,11.5176,11.5096,11.4687,11.4117,11.3849,11.4204,11.3873,11.3714,11.3329,11.3401,11.3759,11.3876,11.3837,11.3759,11.3954,11.3719,11.4266,11.4932,11.5205,11.54,11.5361,11.5596,11.6025,11.6142,11.5713,11.5674,11.6025,11.6103,11.6298,11.6103,11.5361,11.5205,9.2595,9.271,9.3527,9.4557,9.548,9.5672,9.5942,9.6249,9.6288,9.6288,9.6442,9.7673,9.9058,10.0519,10.2558,10.4328,10.5366,10.6136,10.6356,10.6395,10.6395,10.6395,10.6395,10.6395,10.678,10.7098,10.8252,10.9483,11.0291,11.1021,11.1511,11.1511,11.1511,11.1511,11.1462,11.1429,11.1374,11.1319,11.1224,11.1166,11.1143,11.1143,11.1158,11.1037,11.1016,11.107,11.1238,11.1149,11.1035,11.0984,11.0971,11.1086,11.12,11.134,11.1761,11.2525,11.3404,11.4321,11.5391,11.6078,11.6269,11.6384,11.6613,11.6308,11.5696,11.5085,11.5047,11.5022,11.5022,11.5035,11.5073,11.5047,11.5085,11.5417,11.552,11.5545,11.557,11.566,11.5736,11.575,11.5868,11.6064,11.5792,11.5659,11.5608,11.5559,11.4979,11.5015,11.5302,11.536,11.5339,11.5401,11.5278,11.5389,11.5554,11.5437,11.5281,11.5515,11.5706,11.5786,11.5942,11.653,11.6884,11.6721,11.6682,11.7001,11.6962,11.6728,11.6806,11.7196,11.7157,11.704,11.6806,11.6689,11.6725,9.1248,9.1317,9.2172,9.3749,9.5595,9.5297,9.5412,9.6057,9.6249,9.6288,9.6365,9.7019,9.8827,10.0558,10.2087,10.4049,10.5366,10.579,10.6059,10.6356,10.6395,10.6395,10.6395,10.6433,10.701,10.8021,10.9213,10.9906,11.0521,11.1175,11.1511,11.1472,11.1462,11.1489,11.1418,11.1352,11.1262,11.1205,11.1096,11.0989,11.0977,11.0977,11.0953,11.0904,11.0931,11.1302,11.1494,11.1417,11.1315,11.1493,11.1493,11.1646,11.1761,11.199,11.2563,11.3213,11.39,11.4856,11.5811,11.6537,11.6499,11.6537,11.6843,11.669,11.6078,11.5926,11.5887,11.5887,11.5887,11.5887,11.5926,11.5696,11.5734,11.5811,11.5811,11.571,11.5696,11.5696,11.5696,11.5696,11.5881,11.615,11.6256,11.6111,11.614,11.6092,11.6138,11.6285,11.6328,11.612,11.6026,11.6333,11.6538,11.674,11.6975,11.6785,11.6465,11.6623,11.6772,11.6787,11.6909,11.7287,11.7636,11.7878,11.7958,11.7917,11.8165,11.8131,11.8326,11.8326,11.8248,11.8053,11.7819,11.778,11.817,9.1201,9.1287,9.2133,9.2826,9.3441,9.445,9.5104,9.5335,9.6019,9.6288,9.6442,9.6557,9.7634,9.9365,10.0943,10.2712,10.4366,10.5097,10.5905,10.6328,10.6356,10.6356,10.651,10.678,10.7444,10.8598,10.979,11.0483,11.0906,11.128,11.1511,11.15,11.1374,11.1341,11.1319,11.1228,11.1123,11.1025,11.0965,11.0867,11.0818,11.083,11.083,11.0793,11.0767,11.129,11.1531,11.1111,11.1761,11.2219,11.2296,11.2372,11.2563,11.2678,11.306,11.3786,11.4487,11.5238,11.6117,11.6728,11.6728,11.7263,11.7454,11.7148,11.6766,11.6766,11.6766,11.6766,11.6766,11.6843,11.6728,11.6078,11.5887,11.6078,11.6155,11.5849,11.5696,11.5696,11.5696,11.5723,11.579,11.615,11.655,11.6593,11.6846,11.6752,11.6617,11.6785,11.7061,11.688,11.6673,11.7011,11.7426,11.7725,11.781,11.7664,11.7508,11.7667,11.7748,11.7631,11.7631,11.7865,11.8178,11.8646,11.8616,11.8502,11.8796,11.9285,11.9258,11.9258,11.9222,11.9107,11.8873,11.8834,11.9146]}]]